<?xml version="1.0" encoding="UTF-8" standalone="no" ?>
<gpx xmlns="http://www.topografix.com/GPX/1/1" xmlns:xsi="http://www.w3.org/2001/XMLSchema-instance" xsi:schemaLocation="http://www.topografix.com/GPX/1/1 http://www.topografix.com/GPX/1/1/gpx.xsd" version="1.1" creator="VisuGPX - https://www.visugpx.com">
  <metadata>
    <name>Rando Diesen Falck 27km</name>
    <desc><![CDATA[Rando depuis Diesen jusqu'aux étangs de Creutzwald. Puis direction Falck avec un point de vue depuis le terril de la mine de la Houve, passage par la source et la grotte Ste Barbe, les sequoias géants, la Madone et retour par Guerting puis Ham et les bassins de décantation de la centrale E.Huchet de Diesen
]]></desc>
  </metadata>
  <trk>
    <name><![CDATA[2020-02-22 09:05:22]]></name>
    <trkseg>
      <trkpt lat="49.17729" lon="6.6758">
        <ele>229</ele>
        <time>2020-02-22T08:05:21.000Z</time>
      </trkpt>
      <trkpt lat="49.1773" lon="6.67568">
        <ele>229</ele>
        <time>2020-02-22T08:07:13.000Z</time>
      </trkpt>
      <trkpt lat="49.17723" lon="6.67564">
        <ele>229</ele>
        <time>2020-02-22T08:07:23.000Z</time>
      </trkpt>
      <trkpt lat="49.17709" lon="6.67558">
        <ele>229</ele>
        <time>2020-02-22T08:07:33.000Z</time>
      </trkpt>
      <trkpt lat="49.17697" lon="6.67555">
        <ele>229</ele>
        <time>2020-02-22T08:07:43.000Z</time>
      </trkpt>
      <trkpt lat="49.17683" lon="6.6755">
        <ele>229</ele>
        <time>2020-02-22T08:07:53.000Z</time>
      </trkpt>
      <trkpt lat="49.17671" lon="6.67543">
        <ele>229</ele>
        <time>2020-02-22T08:08:03.000Z</time>
      </trkpt>
      <trkpt lat="49.17662" lon="6.67536">
        <ele>229</ele>
        <time>2020-02-22T08:08:13.000Z</time>
      </trkpt>
      <trkpt lat="49.1765" lon="6.6753">
        <ele>229</ele>
        <time>2020-02-22T08:08:23.000Z</time>
      </trkpt>
      <trkpt lat="49.17639" lon="6.67526">
        <ele>229</ele>
        <time>2020-02-22T08:08:33.000Z</time>
      </trkpt>
      <trkpt lat="49.17626" lon="6.67524">
        <ele>229</ele>
        <time>2020-02-22T08:08:43.000Z</time>
      </trkpt>
      <trkpt lat="49.17617" lon="6.67522">
        <ele>229</ele>
        <time>2020-02-22T08:08:53.000Z</time>
      </trkpt>
      <trkpt lat="49.17606" lon="6.67517">
        <ele>229</ele>
        <time>2020-02-22T08:09:03.000Z</time>
      </trkpt>
      <trkpt lat="49.17593" lon="6.67512">
        <ele>229</ele>
        <time>2020-02-22T08:09:13.000Z</time>
      </trkpt>
      <trkpt lat="49.17581" lon="6.67505">
        <ele>229</ele>
        <time>2020-02-22T08:09:23.000Z</time>
      </trkpt>
      <trkpt lat="49.17572" lon="6.67502">
        <ele>229</ele>
        <time>2020-02-22T08:09:33.000Z</time>
      </trkpt>
      <trkpt lat="49.17562" lon="6.67495">
        <ele>231</ele>
        <time>2020-02-22T08:09:43.000Z</time>
      </trkpt>
      <trkpt lat="49.17551" lon="6.67485">
        <ele>231</ele>
        <time>2020-02-22T08:09:53.000Z</time>
      </trkpt>
      <trkpt lat="49.17551" lon="6.67476">
        <ele>232</ele>
        <time>2020-02-22T08:10:03.000Z</time>
      </trkpt>
      <trkpt lat="49.1755" lon="6.67466">
        <ele>232</ele>
        <time>2020-02-22T08:10:13.000Z</time>
      </trkpt>
      <trkpt lat="49.17549" lon="6.67447">
        <ele>232</ele>
        <time>2020-02-22T08:10:23.000Z</time>
      </trkpt>
      <trkpt lat="49.17541" lon="6.67441">
        <ele>233</ele>
        <time>2020-02-22T08:10:33.000Z</time>
      </trkpt>
      <trkpt lat="49.17531" lon="6.67437">
        <ele>233</ele>
        <time>2020-02-22T08:10:43.000Z</time>
      </trkpt>
      <trkpt lat="49.17524" lon="6.67436">
        <ele>233</ele>
        <time>2020-02-22T08:10:53.000Z</time>
      </trkpt>
      <trkpt lat="49.17521" lon="6.67444">
        <ele>233</ele>
        <time>2020-02-22T08:11:03.000Z</time>
      </trkpt>
      <trkpt lat="49.17513" lon="6.67456">
        <ele>233</ele>
        <time>2020-02-22T08:11:13.000Z</time>
      </trkpt>
      <trkpt lat="49.175" lon="6.67469">
        <ele>236</ele>
        <time>2020-02-22T08:11:23.000Z</time>
      </trkpt>
      <trkpt lat="49.17488" lon="6.67477">
        <ele>236</ele>
        <time>2020-02-22T08:11:33.000Z</time>
      </trkpt>
      <trkpt lat="49.17476" lon="6.67485">
        <ele>236</ele>
        <time>2020-02-22T08:11:43.000Z</time>
      </trkpt>
      <trkpt lat="49.17463" lon="6.67492">
        <ele>237</ele>
        <time>2020-02-22T08:11:53.000Z</time>
      </trkpt>
      <trkpt lat="49.17453" lon="6.67497">
        <ele>238</ele>
        <time>2020-02-22T08:12:03.000Z</time>
      </trkpt>
      <trkpt lat="49.17445" lon="6.67506">
        <ele>237</ele>
        <time>2020-02-22T08:12:13.000Z</time>
      </trkpt>
      <trkpt lat="49.17442" lon="6.6752">
        <ele>236</ele>
        <time>2020-02-22T08:12:23.000Z</time>
      </trkpt>
      <trkpt lat="49.1744" lon="6.67536">
        <ele>236</ele>
        <time>2020-02-22T08:12:33.000Z</time>
      </trkpt>
      <trkpt lat="49.17437" lon="6.67552">
        <ele>236</ele>
        <time>2020-02-22T08:12:43.000Z</time>
      </trkpt>
      <trkpt lat="49.17436" lon="6.67569">
        <ele>236</ele>
        <time>2020-02-22T08:12:53.000Z</time>
      </trkpt>
      <trkpt lat="49.17431" lon="6.67588">
        <ele>234</ele>
        <time>2020-02-22T08:13:03.000Z</time>
      </trkpt>
      <trkpt lat="49.17425" lon="6.67605">
        <ele>233</ele>
        <time>2020-02-22T08:13:13.000Z</time>
      </trkpt>
      <trkpt lat="49.17424" lon="6.67624">
        <ele>232</ele>
        <time>2020-02-22T08:13:23.000Z</time>
      </trkpt>
      <trkpt lat="49.17422" lon="6.67646">
        <ele>232</ele>
        <time>2020-02-22T08:13:33.000Z</time>
      </trkpt>
      <trkpt lat="49.17419" lon="6.67663">
        <ele>232</ele>
        <time>2020-02-22T08:13:43.000Z</time>
      </trkpt>
      <trkpt lat="49.1742" lon="6.6768">
        <ele>229</ele>
        <time>2020-02-22T08:13:53.000Z</time>
      </trkpt>
      <trkpt lat="49.17419" lon="6.67697">
        <ele>228</ele>
        <time>2020-02-22T08:14:03.000Z</time>
      </trkpt>
      <trkpt lat="49.1742" lon="6.67716">
        <ele>226</ele>
        <time>2020-02-22T08:14:13.000Z</time>
      </trkpt>
      <trkpt lat="49.17419" lon="6.67737">
        <ele>226</ele>
        <time>2020-02-22T08:14:23.000Z</time>
      </trkpt>
      <trkpt lat="49.17419" lon="6.67756">
        <ele>224</ele>
        <time>2020-02-22T08:14:33.000Z</time>
      </trkpt>
      <trkpt lat="49.17423" lon="6.67774">
        <ele>223</ele>
        <time>2020-02-22T08:14:43.000Z</time>
      </trkpt>
      <trkpt lat="49.17425" lon="6.67791">
        <ele>222</ele>
        <time>2020-02-22T08:14:53.000Z</time>
      </trkpt>
      <trkpt lat="49.17423" lon="6.6781">
        <ele>221</ele>
        <time>2020-02-22T08:15:03.000Z</time>
      </trkpt>
      <trkpt lat="49.17423" lon="6.67827">
        <ele>220</ele>
        <time>2020-02-22T08:15:13.000Z</time>
      </trkpt>
      <trkpt lat="49.1743" lon="6.67827">
        <ele>220</ele>
        <time>2020-02-22T08:15:23.000Z</time>
      </trkpt>
      <trkpt lat="49.17433" lon="6.67825">
        <ele>220</ele>
        <time>2020-02-22T08:15:33.000Z</time>
      </trkpt>
      <trkpt lat="49.17434" lon="6.67829">
        <ele>220</ele>
        <time>2020-02-22T08:15:43.000Z</time>
      </trkpt>
      <trkpt lat="49.17442" lon="6.67832">
        <ele>220</ele>
        <time>2020-02-22T08:15:53.000Z</time>
      </trkpt>
      <trkpt lat="49.17451" lon="6.6784">
        <ele>220</ele>
        <time>2020-02-22T08:16:03.000Z</time>
      </trkpt>
      <trkpt lat="49.17462" lon="6.67842">
        <ele>220</ele>
        <time>2020-02-22T08:16:13.000Z</time>
      </trkpt>
      <trkpt lat="49.17473" lon="6.67846">
        <ele>220</ele>
        <time>2020-02-22T08:16:23.000Z</time>
      </trkpt>
      <trkpt lat="49.17484" lon="6.67845">
        <ele>220</ele>
        <time>2020-02-22T08:16:33.000Z</time>
      </trkpt>
      <trkpt lat="49.17496" lon="6.67841">
        <ele>220</ele>
        <time>2020-02-22T08:16:43.000Z</time>
      </trkpt>
      <trkpt lat="49.17507" lon="6.67835">
        <ele>220</ele>
        <time>2020-02-22T08:16:53.000Z</time>
      </trkpt>
      <trkpt lat="49.17518" lon="6.67829">
        <ele>220</ele>
        <time>2020-02-22T08:17:03.000Z</time>
      </trkpt>
      <trkpt lat="49.17532" lon="6.67824">
        <ele>220</ele>
        <time>2020-02-22T08:17:13.000Z</time>
      </trkpt>
      <trkpt lat="49.17542" lon="6.67825">
        <ele>220</ele>
        <time>2020-02-22T08:17:23.000Z</time>
      </trkpt>
      <trkpt lat="49.17539" lon="6.67828">
        <ele>220</ele>
        <time>2020-02-22T08:17:33.000Z</time>
      </trkpt>
      <trkpt lat="49.1755" lon="6.67825">
        <ele>220</ele>
        <time>2020-02-22T08:17:43.000Z</time>
      </trkpt>
      <trkpt lat="49.17569" lon="6.6782">
        <ele>220</ele>
        <time>2020-02-22T08:17:53.000Z</time>
      </trkpt>
      <trkpt lat="49.17583" lon="6.6782">
        <ele>220</ele>
        <time>2020-02-22T08:18:03.000Z</time>
      </trkpt>
      <trkpt lat="49.17597" lon="6.6782">
        <ele>220</ele>
        <time>2020-02-22T08:18:13.000Z</time>
      </trkpt>
      <trkpt lat="49.1761" lon="6.6782">
        <ele>220</ele>
        <time>2020-02-22T08:18:23.000Z</time>
      </trkpt>
      <trkpt lat="49.17622" lon="6.67818">
        <ele>220</ele>
        <time>2020-02-22T08:18:33.000Z</time>
      </trkpt>
      <trkpt lat="49.17633" lon="6.67817">
        <ele>220</ele>
        <time>2020-02-22T08:18:43.000Z</time>
      </trkpt>
      <trkpt lat="49.17648" lon="6.67817">
        <ele>219</ele>
        <time>2020-02-22T08:18:53.000Z</time>
      </trkpt>
      <trkpt lat="49.17664" lon="6.67821">
        <ele>219</ele>
        <time>2020-02-22T08:19:03.000Z</time>
      </trkpt>
      <trkpt lat="49.17679" lon="6.67832">
        <ele>220</ele>
        <time>2020-02-22T08:19:13.000Z</time>
      </trkpt>
      <trkpt lat="49.1769" lon="6.67849">
        <ele>220</ele>
        <time>2020-02-22T08:19:23.000Z</time>
      </trkpt>
      <trkpt lat="49.17699" lon="6.67865">
        <ele>221</ele>
        <time>2020-02-22T08:19:33.000Z</time>
      </trkpt>
      <trkpt lat="49.17697" lon="6.67889">
        <ele>221</ele>
        <time>2020-02-22T08:19:43.000Z</time>
      </trkpt>
      <trkpt lat="49.17691" lon="6.67913">
        <ele>221</ele>
        <time>2020-02-22T08:19:53.000Z</time>
      </trkpt>
      <trkpt lat="49.17686" lon="6.67934">
        <ele>223</ele>
        <time>2020-02-22T08:20:03.000Z</time>
      </trkpt>
      <trkpt lat="49.17689" lon="6.6794">
        <ele>223</ele>
        <time>2020-02-22T08:20:13.000Z</time>
      </trkpt>
      <trkpt lat="49.17694" lon="6.67935">
        <ele>223</ele>
        <time>2020-02-22T08:20:23.000Z</time>
      </trkpt>
      <trkpt lat="49.17702" lon="6.67934">
        <ele>223</ele>
        <time>2020-02-22T08:20:33.000Z</time>
      </trkpt>
      <trkpt lat="49.17716" lon="6.67935">
        <ele>223</ele>
        <time>2020-02-22T08:20:43.000Z</time>
      </trkpt>
      <trkpt lat="49.17731" lon="6.6794">
        <ele>223</ele>
        <time>2020-02-22T08:20:53.000Z</time>
      </trkpt>
      <trkpt lat="49.17745" lon="6.67944">
        <ele>223</ele>
        <time>2020-02-22T08:21:03.000Z</time>
      </trkpt>
      <trkpt lat="49.17759" lon="6.67946">
        <ele>222</ele>
        <time>2020-02-22T08:21:13.000Z</time>
      </trkpt>
      <trkpt lat="49.17771" lon="6.67947">
        <ele>222</ele>
        <time>2020-02-22T08:21:23.000Z</time>
      </trkpt>
      <trkpt lat="49.17782" lon="6.67945">
        <ele>222</ele>
        <time>2020-02-22T08:21:33.000Z</time>
      </trkpt>
      <trkpt lat="49.17795" lon="6.67943">
        <ele>222</ele>
        <time>2020-02-22T08:21:43.000Z</time>
      </trkpt>
      <trkpt lat="49.17809" lon="6.67948">
        <ele>222</ele>
        <time>2020-02-22T08:21:53.000Z</time>
      </trkpt>
      <trkpt lat="49.17822" lon="6.67953">
        <ele>222</ele>
        <time>2020-02-22T08:22:03.000Z</time>
      </trkpt>
      <trkpt lat="49.17836" lon="6.67955">
        <ele>221</ele>
        <time>2020-02-22T08:22:13.000Z</time>
      </trkpt>
      <trkpt lat="49.1785" lon="6.67954">
        <ele>221</ele>
        <time>2020-02-22T08:22:23.000Z</time>
      </trkpt>
      <trkpt lat="49.17865" lon="6.67953">
        <ele>221</ele>
        <time>2020-02-22T08:22:33.000Z</time>
      </trkpt>
      <trkpt lat="49.17878" lon="6.6795">
        <ele>221</ele>
        <time>2020-02-22T08:22:43.000Z</time>
      </trkpt>
      <trkpt lat="49.1789" lon="6.67949">
        <ele>221</ele>
        <time>2020-02-22T08:22:53.000Z</time>
      </trkpt>
      <trkpt lat="49.17902" lon="6.67947">
        <ele>221</ele>
        <time>2020-02-22T08:23:03.000Z</time>
      </trkpt>
      <trkpt lat="49.17911" lon="6.67945">
        <ele>221</ele>
        <time>2020-02-22T08:23:13.000Z</time>
      </trkpt>
      <trkpt lat="49.17922" lon="6.67943">
        <ele>222</ele>
        <time>2020-02-22T08:23:23.000Z</time>
      </trkpt>
      <trkpt lat="49.17932" lon="6.67947">
        <ele>222</ele>
        <time>2020-02-22T08:23:33.000Z</time>
      </trkpt>
      <trkpt lat="49.17945" lon="6.6795">
        <ele>223</ele>
        <time>2020-02-22T08:23:43.000Z</time>
      </trkpt>
      <trkpt lat="49.17956" lon="6.67951">
        <ele>223</ele>
        <time>2020-02-22T08:23:53.000Z</time>
      </trkpt>
      <trkpt lat="49.17967" lon="6.67953">
        <ele>223</ele>
        <time>2020-02-22T08:24:03.000Z</time>
      </trkpt>
      <trkpt lat="49.17979" lon="6.67957">
        <ele>224</ele>
        <time>2020-02-22T08:24:13.000Z</time>
      </trkpt>
      <trkpt lat="49.17989" lon="6.6796">
        <ele>224</ele>
        <time>2020-02-22T08:24:23.000Z</time>
      </trkpt>
      <trkpt lat="49.17997" lon="6.67964">
        <ele>225</ele>
        <time>2020-02-22T08:24:33.000Z</time>
      </trkpt>
      <trkpt lat="49.18013" lon="6.67977">
        <ele>226</ele>
        <time>2020-02-22T08:24:43.000Z</time>
      </trkpt>
      <trkpt lat="49.18027" lon="6.67988">
        <ele>226</ele>
        <time>2020-02-22T08:24:53.000Z</time>
      </trkpt>
      <trkpt lat="49.18043" lon="6.68013">
        <ele>231</ele>
        <time>2020-02-22T08:25:03.000Z</time>
      </trkpt>
      <trkpt lat="49.18054" lon="6.68032">
        <ele>231</ele>
        <time>2020-02-22T08:25:13.000Z</time>
      </trkpt>
      <trkpt lat="49.18066" lon="6.68051">
        <ele>232</ele>
        <time>2020-02-22T08:25:23.000Z</time>
      </trkpt>
      <trkpt lat="49.18077" lon="6.68054">
        <ele>232</ele>
        <time>2020-02-22T08:25:33.000Z</time>
      </trkpt>
      <trkpt lat="49.18086" lon="6.68051">
        <ele>227</ele>
        <time>2020-02-22T08:25:43.000Z</time>
      </trkpt>
      <trkpt lat="49.18096" lon="6.68046">
        <ele>226</ele>
        <time>2020-02-22T08:25:53.000Z</time>
      </trkpt>
      <trkpt lat="49.18107" lon="6.68043">
        <ele>225</ele>
        <time>2020-02-22T08:26:03.000Z</time>
      </trkpt>
      <trkpt lat="49.18118" lon="6.68048">
        <ele>225</ele>
        <time>2020-02-22T08:26:13.000Z</time>
      </trkpt>
      <trkpt lat="49.18128" lon="6.68062">
        <ele>225</ele>
        <time>2020-02-22T08:26:23.000Z</time>
      </trkpt>
      <trkpt lat="49.18147" lon="6.68081">
        <ele>224</ele>
        <time>2020-02-22T08:26:33.000Z</time>
      </trkpt>
      <trkpt lat="49.18159" lon="6.68077">
        <ele>224</ele>
        <time>2020-02-22T08:26:43.000Z</time>
      </trkpt>
      <trkpt lat="49.18166" lon="6.6808">
        <ele>223</ele>
        <time>2020-02-22T08:26:53.000Z</time>
      </trkpt>
      <trkpt lat="49.18173" lon="6.68091">
        <ele>224</ele>
        <time>2020-02-22T08:27:03.000Z</time>
      </trkpt>
      <trkpt lat="49.18184" lon="6.68105">
        <ele>224</ele>
        <time>2020-02-22T08:27:13.000Z</time>
      </trkpt>
      <trkpt lat="49.18197" lon="6.68119">
        <ele>225</ele>
        <time>2020-02-22T08:27:23.000Z</time>
      </trkpt>
      <trkpt lat="49.18208" lon="6.68127">
        <ele>225</ele>
        <time>2020-02-22T08:27:33.000Z</time>
      </trkpt>
      <trkpt lat="49.18213" lon="6.68131">
        <ele>225</ele>
        <time>2020-02-22T08:27:43.000Z</time>
      </trkpt>
      <trkpt lat="49.18215" lon="6.68133">
        <ele>225</ele>
        <time>2020-02-22T08:27:53.000Z</time>
      </trkpt>
      <trkpt lat="49.1822" lon="6.68137">
        <ele>225</ele>
        <time>2020-02-22T08:28:03.000Z</time>
      </trkpt>
      <trkpt lat="49.1823" lon="6.6814">
        <ele>226</ele>
        <time>2020-02-22T08:28:13.000Z</time>
      </trkpt>
      <trkpt lat="49.18236" lon="6.6815">
        <ele>226</ele>
        <time>2020-02-22T08:28:23.000Z</time>
      </trkpt>
      <trkpt lat="49.18246" lon="6.68154">
        <ele>227</ele>
        <time>2020-02-22T08:28:33.000Z</time>
      </trkpt>
      <trkpt lat="49.18257" lon="6.68166">
        <ele>226</ele>
        <time>2020-02-22T08:28:43.000Z</time>
      </trkpt>
      <trkpt lat="49.18267" lon="6.68175">
        <ele>229</ele>
        <time>2020-02-22T08:28:53.000Z</time>
      </trkpt>
      <trkpt lat="49.18279" lon="6.6818">
        <ele>230</ele>
        <time>2020-02-22T08:29:03.000Z</time>
      </trkpt>
      <trkpt lat="49.18287" lon="6.68191">
        <ele>230</ele>
        <time>2020-02-22T08:29:13.000Z</time>
      </trkpt>
      <trkpt lat="49.18299" lon="6.68199">
        <ele>230</ele>
        <time>2020-02-22T08:29:23.000Z</time>
      </trkpt>
      <trkpt lat="49.18306" lon="6.68205">
        <ele>230</ele>
        <time>2020-02-22T08:29:33.000Z</time>
      </trkpt>
      <trkpt lat="49.18315" lon="6.68222">
        <ele>231</ele>
        <time>2020-02-22T08:29:43.000Z</time>
      </trkpt>
      <trkpt lat="49.18334" lon="6.68228">
        <ele>227</ele>
        <time>2020-02-22T08:29:53.000Z</time>
      </trkpt>
      <trkpt lat="49.18345" lon="6.68234">
        <ele>227</ele>
        <time>2020-02-22T08:30:03.000Z</time>
      </trkpt>
      <trkpt lat="49.1835" lon="6.68231">
        <ele>227</ele>
        <time>2020-02-22T08:30:13.000Z</time>
      </trkpt>
      <trkpt lat="49.18356" lon="6.68233">
        <ele>226</ele>
        <time>2020-02-22T08:30:23.000Z</time>
      </trkpt>
      <trkpt lat="49.18366" lon="6.68236">
        <ele>225</ele>
        <time>2020-02-22T08:30:33.000Z</time>
      </trkpt>
      <trkpt lat="49.18381" lon="6.68242">
        <ele>224</ele>
        <time>2020-02-22T08:30:43.000Z</time>
      </trkpt>
      <trkpt lat="49.18394" lon="6.68246">
        <ele>224</ele>
        <time>2020-02-22T08:30:53.000Z</time>
      </trkpt>
      <trkpt lat="49.1841" lon="6.68248">
        <ele>223</ele>
        <time>2020-02-22T08:31:03.000Z</time>
      </trkpt>
      <trkpt lat="49.18425" lon="6.68249">
        <ele>222</ele>
        <time>2020-02-22T08:31:13.000Z</time>
      </trkpt>
      <trkpt lat="49.18439" lon="6.68255">
        <ele>227</ele>
        <time>2020-02-22T08:31:23.000Z</time>
      </trkpt>
      <trkpt lat="49.1845" lon="6.68252">
        <ele>227</ele>
        <time>2020-02-22T08:31:33.000Z</time>
      </trkpt>
      <trkpt lat="49.18462" lon="6.68252">
        <ele>228</ele>
        <time>2020-02-22T08:31:43.000Z</time>
      </trkpt>
      <trkpt lat="49.18476" lon="6.68246">
        <ele>222</ele>
        <time>2020-02-22T08:31:53.000Z</time>
      </trkpt>
      <trkpt lat="49.18485" lon="6.68244">
        <ele>222</ele>
        <time>2020-02-22T08:32:03.000Z</time>
      </trkpt>
      <trkpt lat="49.18502" lon="6.68241">
        <ele>223</ele>
        <time>2020-02-22T08:32:13.000Z</time>
      </trkpt>
      <trkpt lat="49.18515" lon="6.68232">
        <ele>222</ele>
        <time>2020-02-22T08:32:23.000Z</time>
      </trkpt>
      <trkpt lat="49.18526" lon="6.68224">
        <ele>221</ele>
        <time>2020-02-22T08:32:33.000Z</time>
      </trkpt>
      <trkpt lat="49.18531" lon="6.68216">
        <ele>221</ele>
        <time>2020-02-22T08:32:43.000Z</time>
      </trkpt>
      <trkpt lat="49.1854" lon="6.68215">
        <ele>221</ele>
        <time>2020-02-22T08:32:53.000Z</time>
      </trkpt>
      <trkpt lat="49.18553" lon="6.68214">
        <ele>221</ele>
        <time>2020-02-22T08:33:03.000Z</time>
      </trkpt>
      <trkpt lat="49.18567" lon="6.68211">
        <ele>220</ele>
        <time>2020-02-22T08:33:13.000Z</time>
      </trkpt>
      <trkpt lat="49.18581" lon="6.68202">
        <ele>220</ele>
        <time>2020-02-22T08:33:23.000Z</time>
      </trkpt>
      <trkpt lat="49.18591" lon="6.68193">
        <ele>219</ele>
        <time>2020-02-22T08:33:33.000Z</time>
      </trkpt>
      <trkpt lat="49.18602" lon="6.68187">
        <ele>219</ele>
        <time>2020-02-22T08:33:43.000Z</time>
      </trkpt>
      <trkpt lat="49.1861" lon="6.6818">
        <ele>219</ele>
        <time>2020-02-22T08:33:53.000Z</time>
      </trkpt>
      <trkpt lat="49.1862" lon="6.68175">
        <ele>220</ele>
        <time>2020-02-22T08:34:03.000Z</time>
      </trkpt>
      <trkpt lat="49.18637" lon="6.68166">
        <ele>217</ele>
        <time>2020-02-22T08:34:13.000Z</time>
      </trkpt>
      <trkpt lat="49.18652" lon="6.68153">
        <ele>218</ele>
        <time>2020-02-22T08:34:23.000Z</time>
      </trkpt>
      <trkpt lat="49.18658" lon="6.68134">
        <ele>217</ele>
        <time>2020-02-22T08:34:33.000Z</time>
      </trkpt>
      <trkpt lat="49.18659" lon="6.68123">
        <ele>216</ele>
        <time>2020-02-22T08:34:43.000Z</time>
      </trkpt>
      <trkpt lat="49.18657" lon="6.68114">
        <ele>216</ele>
        <time>2020-02-22T08:34:53.000Z</time>
      </trkpt>
      <trkpt lat="49.18658" lon="6.68105">
        <ele>216</ele>
        <time>2020-02-22T08:35:03.000Z</time>
      </trkpt>
      <trkpt lat="49.18658" lon="6.68093">
        <ele>216</ele>
        <time>2020-02-22T08:35:13.000Z</time>
      </trkpt>
      <trkpt lat="49.18657" lon="6.68079">
        <ele>215</ele>
        <time>2020-02-22T08:35:23.000Z</time>
      </trkpt>
      <trkpt lat="49.18664" lon="6.68068">
        <ele>216</ele>
        <time>2020-02-22T08:35:33.000Z</time>
      </trkpt>
      <trkpt lat="49.18673" lon="6.68049">
        <ele>216</ele>
        <time>2020-02-22T08:35:43.000Z</time>
      </trkpt>
      <trkpt lat="49.18682" lon="6.6803">
        <ele>216</ele>
        <time>2020-02-22T08:35:53.000Z</time>
      </trkpt>
      <trkpt lat="49.18692" lon="6.68015">
        <ele>216</ele>
        <time>2020-02-22T08:36:03.000Z</time>
      </trkpt>
      <trkpt lat="49.18699" lon="6.68003">
        <ele>216</ele>
        <time>2020-02-22T08:36:13.000Z</time>
      </trkpt>
      <trkpt lat="49.18713" lon="6.67998">
        <ele>217</ele>
        <time>2020-02-22T08:36:23.000Z</time>
      </trkpt>
      <trkpt lat="49.18723" lon="6.67986">
        <ele>217</ele>
        <time>2020-02-22T08:36:33.000Z</time>
      </trkpt>
      <trkpt lat="49.18734" lon="6.67976">
        <ele>217</ele>
        <time>2020-02-22T08:36:43.000Z</time>
      </trkpt>
      <trkpt lat="49.18742" lon="6.67962">
        <ele>217</ele>
        <time>2020-02-22T08:36:53.000Z</time>
      </trkpt>
      <trkpt lat="49.18751" lon="6.67946">
        <ele>217</ele>
        <time>2020-02-22T08:37:03.000Z</time>
      </trkpt>
      <trkpt lat="49.18761" lon="6.67932">
        <ele>217</ele>
        <time>2020-02-22T08:37:13.000Z</time>
      </trkpt>
      <trkpt lat="49.18772" lon="6.67921">
        <ele>217</ele>
        <time>2020-02-22T08:37:23.000Z</time>
      </trkpt>
      <trkpt lat="49.18782" lon="6.67909">
        <ele>216</ele>
        <time>2020-02-22T08:37:33.000Z</time>
      </trkpt>
      <trkpt lat="49.18792" lon="6.67894">
        <ele>215</ele>
        <time>2020-02-22T08:37:43.000Z</time>
      </trkpt>
      <trkpt lat="49.18801" lon="6.67881">
        <ele>215</ele>
        <time>2020-02-22T08:37:53.000Z</time>
      </trkpt>
      <trkpt lat="49.18812" lon="6.67872">
        <ele>215</ele>
        <time>2020-02-22T08:38:03.000Z</time>
      </trkpt>
      <trkpt lat="49.18823" lon="6.67862">
        <ele>214</ele>
        <time>2020-02-22T08:38:13.000Z</time>
      </trkpt>
      <trkpt lat="49.18831" lon="6.67848">
        <ele>214</ele>
        <time>2020-02-22T08:38:23.000Z</time>
      </trkpt>
      <trkpt lat="49.1884" lon="6.67833">
        <ele>213</ele>
        <time>2020-02-22T08:38:33.000Z</time>
      </trkpt>
      <trkpt lat="49.1885" lon="6.67818">
        <ele>213</ele>
        <time>2020-02-22T08:38:43.000Z</time>
      </trkpt>
      <trkpt lat="49.18858" lon="6.67802">
        <ele>213</ele>
        <time>2020-02-22T08:38:53.000Z</time>
      </trkpt>
      <trkpt lat="49.18865" lon="6.67788">
        <ele>213</ele>
        <time>2020-02-22T08:39:03.000Z</time>
      </trkpt>
      <trkpt lat="49.18876" lon="6.67776">
        <ele>213</ele>
        <time>2020-02-22T08:39:13.000Z</time>
      </trkpt>
      <trkpt lat="49.18889" lon="6.67765">
        <ele>213</ele>
        <time>2020-02-22T08:39:23.000Z</time>
      </trkpt>
      <trkpt lat="49.189" lon="6.67763">
        <ele>213</ele>
        <time>2020-02-22T08:39:33.000Z</time>
      </trkpt>
      <trkpt lat="49.18912" lon="6.67761">
        <ele>213</ele>
        <time>2020-02-22T08:39:43.000Z</time>
      </trkpt>
      <trkpt lat="49.18926" lon="6.6776">
        <ele>213</ele>
        <time>2020-02-22T08:39:53.000Z</time>
      </trkpt>
      <trkpt lat="49.18937" lon="6.67759">
        <ele>213</ele>
        <time>2020-02-22T08:40:03.000Z</time>
      </trkpt>
      <trkpt lat="49.18953" lon="6.67767">
        <ele>214</ele>
        <time>2020-02-22T08:40:13.000Z</time>
      </trkpt>
      <trkpt lat="49.18967" lon="6.67769">
        <ele>213</ele>
        <time>2020-02-22T08:40:23.000Z</time>
      </trkpt>
      <trkpt lat="49.18975" lon="6.67769">
        <ele>213</ele>
        <time>2020-02-22T08:40:33.000Z</time>
      </trkpt>
      <trkpt lat="49.18986" lon="6.67772">
        <ele>213</ele>
        <time>2020-02-22T08:40:43.000Z</time>
      </trkpt>
      <trkpt lat="49.19003" lon="6.67779">
        <ele>213</ele>
        <time>2020-02-22T08:40:53.000Z</time>
      </trkpt>
      <trkpt lat="49.19019" lon="6.6779">
        <ele>213</ele>
        <time>2020-02-22T08:41:03.000Z</time>
      </trkpt>
      <trkpt lat="49.19032" lon="6.67794">
        <ele>213</ele>
        <time>2020-02-22T08:41:13.000Z</time>
      </trkpt>
      <trkpt lat="49.19044" lon="6.678">
        <ele>213</ele>
        <time>2020-02-22T08:41:23.000Z</time>
      </trkpt>
      <trkpt lat="49.19059" lon="6.67811">
        <ele>213</ele>
        <time>2020-02-22T08:41:33.000Z</time>
      </trkpt>
      <trkpt lat="49.19072" lon="6.67817">
        <ele>212</ele>
        <time>2020-02-22T08:41:43.000Z</time>
      </trkpt>
      <trkpt lat="49.19083" lon="6.67821">
        <ele>212</ele>
        <time>2020-02-22T08:41:53.000Z</time>
      </trkpt>
      <trkpt lat="49.19097" lon="6.67827">
        <ele>213</ele>
        <time>2020-02-22T08:42:03.000Z</time>
      </trkpt>
      <trkpt lat="49.1911" lon="6.6783">
        <ele>213</ele>
        <time>2020-02-22T08:42:13.000Z</time>
      </trkpt>
      <trkpt lat="49.19123" lon="6.67836">
        <ele>215</ele>
        <time>2020-02-22T08:42:23.000Z</time>
      </trkpt>
      <trkpt lat="49.19135" lon="6.67843">
        <ele>216</ele>
        <time>2020-02-22T08:42:33.000Z</time>
      </trkpt>
      <trkpt lat="49.19148" lon="6.67857">
        <ele>216</ele>
        <time>2020-02-22T08:42:43.000Z</time>
      </trkpt>
      <trkpt lat="49.19161" lon="6.67873">
        <ele>216</ele>
        <time>2020-02-22T08:42:53.000Z</time>
      </trkpt>
      <trkpt lat="49.19173" lon="6.67888">
        <ele>216</ele>
        <time>2020-02-22T08:43:03.000Z</time>
      </trkpt>
      <trkpt lat="49.19184" lon="6.67904">
        <ele>216</ele>
        <time>2020-02-22T08:43:13.000Z</time>
      </trkpt>
      <trkpt lat="49.19196" lon="6.67922">
        <ele>218</ele>
        <time>2020-02-22T08:43:23.000Z</time>
      </trkpt>
      <trkpt lat="49.19206" lon="6.67927">
        <ele>218</ele>
        <time>2020-02-22T08:43:33.000Z</time>
      </trkpt>
      <trkpt lat="49.19212" lon="6.67914">
        <ele>217</ele>
        <time>2020-02-22T08:43:43.000Z</time>
      </trkpt>
      <trkpt lat="49.19216" lon="6.67902">
        <ele>217</ele>
        <time>2020-02-22T08:43:53.000Z</time>
      </trkpt>
      <trkpt lat="49.19222" lon="6.67889">
        <ele>217</ele>
        <time>2020-02-22T08:44:03.000Z</time>
      </trkpt>
      <trkpt lat="49.19229" lon="6.67874">
        <ele>217</ele>
        <time>2020-02-22T08:44:13.000Z</time>
      </trkpt>
      <trkpt lat="49.19236" lon="6.67857">
        <ele>217</ele>
        <time>2020-02-22T08:44:23.000Z</time>
      </trkpt>
      <trkpt lat="49.19243" lon="6.6784">
        <ele>218</ele>
        <time>2020-02-22T08:44:33.000Z</time>
      </trkpt>
      <trkpt lat="49.19249" lon="6.67825">
        <ele>218</ele>
        <time>2020-02-22T08:44:43.000Z</time>
      </trkpt>
      <trkpt lat="49.19254" lon="6.67808">
        <ele>218</ele>
        <time>2020-02-22T08:44:53.000Z</time>
      </trkpt>
      <trkpt lat="49.19262" lon="6.67789">
        <ele>218</ele>
        <time>2020-02-22T08:45:03.000Z</time>
      </trkpt>
      <trkpt lat="49.19269" lon="6.6777">
        <ele>218</ele>
        <time>2020-02-22T08:45:13.000Z</time>
      </trkpt>
      <trkpt lat="49.19277" lon="6.67753">
        <ele>218</ele>
        <time>2020-02-22T08:45:23.000Z</time>
      </trkpt>
      <trkpt lat="49.19285" lon="6.6774">
        <ele>219</ele>
        <time>2020-02-22T08:45:33.000Z</time>
      </trkpt>
      <trkpt lat="49.1929" lon="6.67723">
        <ele>219</ele>
        <time>2020-02-22T08:45:43.000Z</time>
      </trkpt>
      <trkpt lat="49.19293" lon="6.67707">
        <ele>219</ele>
        <time>2020-02-22T08:45:53.000Z</time>
      </trkpt>
      <trkpt lat="49.19295" lon="6.67693">
        <ele>219</ele>
        <time>2020-02-22T08:46:03.000Z</time>
      </trkpt>
      <trkpt lat="49.19306" lon="6.67685">
        <ele>220</ele>
        <time>2020-02-22T08:46:13.000Z</time>
      </trkpt>
      <trkpt lat="49.19317" lon="6.67692">
        <ele>220</ele>
        <time>2020-02-22T08:46:23.000Z</time>
      </trkpt>
      <trkpt lat="49.19323" lon="6.67704">
        <ele>220</ele>
        <time>2020-02-22T08:46:33.000Z</time>
      </trkpt>
      <trkpt lat="49.19331" lon="6.67714">
        <ele>220</ele>
        <time>2020-02-22T08:46:43.000Z</time>
      </trkpt>
      <trkpt lat="49.19338" lon="6.67722">
        <ele>223</ele>
        <time>2020-02-22T08:46:53.000Z</time>
      </trkpt>
      <trkpt lat="49.19349" lon="6.67735">
        <ele>223</ele>
        <time>2020-02-22T08:47:03.000Z</time>
      </trkpt>
      <trkpt lat="49.19362" lon="6.67741">
        <ele>224</ele>
        <time>2020-02-22T08:47:13.000Z</time>
      </trkpt>
      <trkpt lat="49.1937" lon="6.67731">
        <ele>224</ele>
        <time>2020-02-22T08:47:23.000Z</time>
      </trkpt>
      <trkpt lat="49.1938" lon="6.67724">
        <ele>224</ele>
        <time>2020-02-22T08:47:33.000Z</time>
      </trkpt>
      <trkpt lat="49.19383" lon="6.6771">
        <ele>224</ele>
        <time>2020-02-22T08:47:43.000Z</time>
      </trkpt>
      <trkpt lat="49.19385" lon="6.67697">
        <ele>225</ele>
        <time>2020-02-22T08:47:53.000Z</time>
      </trkpt>
      <trkpt lat="49.1939" lon="6.67676">
        <ele>225</ele>
        <time>2020-02-22T08:48:03.000Z</time>
      </trkpt>
      <trkpt lat="49.19396" lon="6.67654">
        <ele>226</ele>
        <time>2020-02-22T08:48:13.000Z</time>
      </trkpt>
      <trkpt lat="49.19402" lon="6.67638">
        <ele>226</ele>
        <time>2020-02-22T08:48:23.000Z</time>
      </trkpt>
      <trkpt lat="49.19411" lon="6.67622">
        <ele>226</ele>
        <time>2020-02-22T08:48:33.000Z</time>
      </trkpt>
      <trkpt lat="49.19419" lon="6.67602">
        <ele>229</ele>
        <time>2020-02-22T08:48:43.000Z</time>
      </trkpt>
      <trkpt lat="49.19425" lon="6.67582">
        <ele>228</ele>
        <time>2020-02-22T08:48:53.000Z</time>
      </trkpt>
      <trkpt lat="49.19431" lon="6.67564">
        <ele>229</ele>
        <time>2020-02-22T08:49:03.000Z</time>
      </trkpt>
      <trkpt lat="49.19437" lon="6.67546">
        <ele>229</ele>
        <time>2020-02-22T08:49:13.000Z</time>
      </trkpt>
      <trkpt lat="49.19445" lon="6.6753">
        <ele>229</ele>
        <time>2020-02-22T08:49:23.000Z</time>
      </trkpt>
      <trkpt lat="49.19451" lon="6.67512">
        <ele>229</ele>
        <time>2020-02-22T08:49:33.000Z</time>
      </trkpt>
      <trkpt lat="49.19459" lon="6.67495">
        <ele>228</ele>
        <time>2020-02-22T08:49:43.000Z</time>
      </trkpt>
      <trkpt lat="49.19467" lon="6.67478">
        <ele>228</ele>
        <time>2020-02-22T08:49:53.000Z</time>
      </trkpt>
      <trkpt lat="49.19475" lon="6.67461">
        <ele>228</ele>
        <time>2020-02-22T08:50:03.000Z</time>
      </trkpt>
      <trkpt lat="49.19482" lon="6.67445">
        <ele>228</ele>
        <time>2020-02-22T08:50:13.000Z</time>
      </trkpt>
      <trkpt lat="49.19487" lon="6.6743">
        <ele>229</ele>
        <time>2020-02-22T08:50:23.000Z</time>
      </trkpt>
      <trkpt lat="49.19491" lon="6.67413">
        <ele>228</ele>
        <time>2020-02-22T08:50:33.000Z</time>
      </trkpt>
      <trkpt lat="49.19498" lon="6.67398">
        <ele>228</ele>
        <time>2020-02-22T08:50:43.000Z</time>
      </trkpt>
      <trkpt lat="49.19506" lon="6.67384">
        <ele>231</ele>
        <time>2020-02-22T08:50:53.000Z</time>
      </trkpt>
      <trkpt lat="49.19514" lon="6.67366">
        <ele>231</ele>
        <time>2020-02-22T08:51:03.000Z</time>
      </trkpt>
      <trkpt lat="49.19518" lon="6.67348">
        <ele>231</ele>
        <time>2020-02-22T08:51:13.000Z</time>
      </trkpt>
      <trkpt lat="49.19521" lon="6.67331">
        <ele>230</ele>
        <time>2020-02-22T08:51:23.000Z</time>
      </trkpt>
      <trkpt lat="49.19522" lon="6.67312">
        <ele>231</ele>
        <time>2020-02-22T08:51:33.000Z</time>
      </trkpt>
      <trkpt lat="49.19524" lon="6.67292">
        <ele>231</ele>
        <time>2020-02-22T08:51:43.000Z</time>
      </trkpt>
      <trkpt lat="49.19526" lon="6.67272">
        <ele>231</ele>
        <time>2020-02-22T08:51:53.000Z</time>
      </trkpt>
      <trkpt lat="49.19532" lon="6.67254">
        <ele>231</ele>
        <time>2020-02-22T08:52:03.000Z</time>
      </trkpt>
      <trkpt lat="49.1954" lon="6.67235">
        <ele>231</ele>
        <time>2020-02-22T08:52:13.000Z</time>
      </trkpt>
      <trkpt lat="49.1955" lon="6.67217">
        <ele>231</ele>
        <time>2020-02-22T08:52:23.000Z</time>
      </trkpt>
      <trkpt lat="49.19561" lon="6.67201">
        <ele>231</ele>
        <time>2020-02-22T08:52:33.000Z</time>
      </trkpt>
      <trkpt lat="49.1957" lon="6.67186">
        <ele>232</ele>
        <time>2020-02-22T08:52:43.000Z</time>
      </trkpt>
      <trkpt lat="49.1958" lon="6.67171">
        <ele>232</ele>
        <time>2020-02-22T08:52:53.000Z</time>
      </trkpt>
      <trkpt lat="49.19589" lon="6.67156">
        <ele>234</ele>
        <time>2020-02-22T08:53:03.000Z</time>
      </trkpt>
      <trkpt lat="49.19599" lon="6.67142">
        <ele>236</ele>
        <time>2020-02-22T08:53:13.000Z</time>
      </trkpt>
      <trkpt lat="49.19608" lon="6.67128">
        <ele>237</ele>
        <time>2020-02-22T08:53:23.000Z</time>
      </trkpt>
      <trkpt lat="49.19618" lon="6.67115">
        <ele>237</ele>
        <time>2020-02-22T08:53:33.000Z</time>
      </trkpt>
      <trkpt lat="49.19626" lon="6.67102">
        <ele>237</ele>
        <time>2020-02-22T08:53:43.000Z</time>
      </trkpt>
      <trkpt lat="49.19636" lon="6.67088">
        <ele>238</ele>
        <time>2020-02-22T08:53:53.000Z</time>
      </trkpt>
      <trkpt lat="49.19647" lon="6.67076">
        <ele>240</ele>
        <time>2020-02-22T08:54:03.000Z</time>
      </trkpt>
      <trkpt lat="49.1966" lon="6.67065">
        <ele>240</ele>
        <time>2020-02-22T08:54:13.000Z</time>
      </trkpt>
      <trkpt lat="49.19672" lon="6.67055">
        <ele>240</ele>
        <time>2020-02-22T08:54:23.000Z</time>
      </trkpt>
      <trkpt lat="49.19683" lon="6.67044">
        <ele>241</ele>
        <time>2020-02-22T08:54:33.000Z</time>
      </trkpt>
      <trkpt lat="49.19694" lon="6.67034">
        <ele>241</ele>
        <time>2020-02-22T08:54:43.000Z</time>
      </trkpt>
      <trkpt lat="49.19704" lon="6.67026">
        <ele>241</ele>
        <time>2020-02-22T08:54:53.000Z</time>
      </trkpt>
      <trkpt lat="49.19713" lon="6.67017">
        <ele>240</ele>
        <time>2020-02-22T08:55:03.000Z</time>
      </trkpt>
      <trkpt lat="49.19723" lon="6.67008">
        <ele>240</ele>
        <time>2020-02-22T08:55:13.000Z</time>
      </trkpt>
      <trkpt lat="49.19734" lon="6.66998">
        <ele>240</ele>
        <time>2020-02-22T08:55:23.000Z</time>
      </trkpt>
      <trkpt lat="49.19744" lon="6.66989">
        <ele>240</ele>
        <time>2020-02-22T08:55:33.000Z</time>
      </trkpt>
      <trkpt lat="49.19753" lon="6.66984">
        <ele>239</ele>
        <time>2020-02-22T08:55:43.000Z</time>
      </trkpt>
      <trkpt lat="49.19766" lon="6.66979">
        <ele>239</ele>
        <time>2020-02-22T08:55:53.000Z</time>
      </trkpt>
      <trkpt lat="49.1978" lon="6.66969">
        <ele>239</ele>
        <time>2020-02-22T08:56:03.000Z</time>
      </trkpt>
      <trkpt lat="49.19794" lon="6.66964">
        <ele>239</ele>
        <time>2020-02-22T08:56:13.000Z</time>
      </trkpt>
      <trkpt lat="49.19804" lon="6.66958">
        <ele>239</ele>
        <time>2020-02-22T08:56:23.000Z</time>
      </trkpt>
      <trkpt lat="49.19814" lon="6.6695">
        <ele>238</ele>
        <time>2020-02-22T08:56:33.000Z</time>
      </trkpt>
      <trkpt lat="49.19832" lon="6.66939">
        <ele>238</ele>
        <time>2020-02-22T08:56:43.000Z</time>
      </trkpt>
      <trkpt lat="49.19846" lon="6.66927">
        <ele>237</ele>
        <time>2020-02-22T08:56:53.000Z</time>
      </trkpt>
      <trkpt lat="49.19859" lon="6.66916">
        <ele>236</ele>
        <time>2020-02-22T08:57:03.000Z</time>
      </trkpt>
      <trkpt lat="49.19872" lon="6.66907">
        <ele>236</ele>
        <time>2020-02-22T08:57:13.000Z</time>
      </trkpt>
      <trkpt lat="49.19884" lon="6.66897">
        <ele>236</ele>
        <time>2020-02-22T08:57:23.000Z</time>
      </trkpt>
      <trkpt lat="49.19897" lon="6.66887">
        <ele>235</ele>
        <time>2020-02-22T08:57:33.000Z</time>
      </trkpt>
      <trkpt lat="49.19907" lon="6.6688">
        <ele>235</ele>
        <time>2020-02-22T08:57:43.000Z</time>
      </trkpt>
      <trkpt lat="49.1991" lon="6.66878">
        <ele>235</ele>
        <time>2020-02-22T08:57:53.000Z</time>
      </trkpt>
      <trkpt lat="49.19916" lon="6.66873">
        <ele>234</ele>
        <time>2020-02-22T08:58:03.000Z</time>
      </trkpt>
      <trkpt lat="49.19918" lon="6.66872">
        <ele>233</ele>
        <time>2020-02-22T08:58:13.000Z</time>
      </trkpt>
      <trkpt lat="49.19919" lon="6.66873">
        <ele>233</ele>
        <time>2020-02-22T08:58:38.000Z</time>
      </trkpt>
      <trkpt lat="49.19927" lon="6.66864">
        <ele>233</ele>
        <time>2020-02-22T08:58:48.000Z</time>
      </trkpt>
      <trkpt lat="49.19934" lon="6.66858">
        <ele>232</ele>
        <time>2020-02-22T08:58:58.000Z</time>
      </trkpt>
      <trkpt lat="49.19936" lon="6.66868">
        <ele>233</ele>
        <time>2020-02-22T09:00:36.000Z</time>
      </trkpt>
      <trkpt lat="49.19951" lon="6.66868">
        <ele>234</ele>
        <time>2020-02-22T09:00:46.000Z</time>
      </trkpt>
      <trkpt lat="49.19965" lon="6.66861">
        <ele>234</ele>
        <time>2020-02-22T09:00:56.000Z</time>
      </trkpt>
      <trkpt lat="49.19978" lon="6.66853">
        <ele>233</ele>
        <time>2020-02-22T09:01:06.000Z</time>
      </trkpt>
      <trkpt lat="49.19993" lon="6.66842">
        <ele>232</ele>
        <time>2020-02-22T09:01:16.000Z</time>
      </trkpt>
      <trkpt lat="49.20008" lon="6.6683">
        <ele>231</ele>
        <time>2020-02-22T09:01:26.000Z</time>
      </trkpt>
      <trkpt lat="49.20021" lon="6.6682">
        <ele>230</ele>
        <time>2020-02-22T09:01:36.000Z</time>
      </trkpt>
      <trkpt lat="49.20034" lon="6.6681">
        <ele>230</ele>
        <time>2020-02-22T09:01:46.000Z</time>
      </trkpt>
      <trkpt lat="49.20046" lon="6.66801">
        <ele>230</ele>
        <time>2020-02-22T09:01:56.000Z</time>
      </trkpt>
      <trkpt lat="49.2006" lon="6.66792">
        <ele>230</ele>
        <time>2020-02-22T09:02:06.000Z</time>
      </trkpt>
      <trkpt lat="49.20074" lon="6.66785">
        <ele>230</ele>
        <time>2020-02-22T09:02:16.000Z</time>
      </trkpt>
      <trkpt lat="49.20087" lon="6.66779">
        <ele>230</ele>
        <time>2020-02-22T09:02:26.000Z</time>
      </trkpt>
      <trkpt lat="49.20101" lon="6.66776">
        <ele>230</ele>
        <time>2020-02-22T09:02:36.000Z</time>
      </trkpt>
      <trkpt lat="49.20114" lon="6.66779">
        <ele>230</ele>
        <time>2020-02-22T09:02:46.000Z</time>
      </trkpt>
      <trkpt lat="49.20128" lon="6.66784">
        <ele>230</ele>
        <time>2020-02-22T09:02:56.000Z</time>
      </trkpt>
      <trkpt lat="49.20142" lon="6.66789">
        <ele>231</ele>
        <time>2020-02-22T09:03:06.000Z</time>
      </trkpt>
      <trkpt lat="49.20156" lon="6.66797">
        <ele>231</ele>
        <time>2020-02-22T09:03:16.000Z</time>
      </trkpt>
      <trkpt lat="49.2017" lon="6.66804">
        <ele>230</ele>
        <time>2020-02-22T09:03:26.000Z</time>
      </trkpt>
      <trkpt lat="49.20177" lon="6.66799">
        <ele>229</ele>
        <time>2020-02-22T09:03:36.000Z</time>
      </trkpt>
      <trkpt lat="49.20176" lon="6.66791">
        <ele>229</ele>
        <time>2020-02-22T09:03:46.000Z</time>
      </trkpt>
      <trkpt lat="49.20175" lon="6.66788">
        <ele>229</ele>
        <time>2020-02-22T09:03:56.000Z</time>
      </trkpt>
      <trkpt lat="49.20176" lon="6.66774">
        <ele>228</ele>
        <time>2020-02-22T09:04:06.000Z</time>
      </trkpt>
      <trkpt lat="49.20178" lon="6.66763">
        <ele>228</ele>
        <time>2020-02-22T09:04:16.000Z</time>
      </trkpt>
      <trkpt lat="49.20176" lon="6.6675">
        <ele>227</ele>
        <time>2020-02-22T09:04:26.000Z</time>
      </trkpt>
      <trkpt lat="49.20183" lon="6.66729">
        <ele>227</ele>
        <time>2020-02-22T09:04:36.000Z</time>
      </trkpt>
      <trkpt lat="49.20197" lon="6.66709">
        <ele>227</ele>
        <time>2020-02-22T09:04:46.000Z</time>
      </trkpt>
      <trkpt lat="49.20212" lon="6.66697">
        <ele>226</ele>
        <time>2020-02-22T09:04:56.000Z</time>
      </trkpt>
      <trkpt lat="49.20226" lon="6.66687">
        <ele>226</ele>
        <time>2020-02-22T09:05:06.000Z</time>
      </trkpt>
      <trkpt lat="49.20239" lon="6.66678">
        <ele>226</ele>
        <time>2020-02-22T09:05:16.000Z</time>
      </trkpt>
      <trkpt lat="49.20251" lon="6.6667">
        <ele>226</ele>
        <time>2020-02-22T09:05:26.000Z</time>
      </trkpt>
      <trkpt lat="49.20263" lon="6.66661">
        <ele>226</ele>
        <time>2020-02-22T09:05:36.000Z</time>
      </trkpt>
      <trkpt lat="49.20275" lon="6.66653">
        <ele>226</ele>
        <time>2020-02-22T09:05:46.000Z</time>
      </trkpt>
      <trkpt lat="49.20287" lon="6.66646">
        <ele>226</ele>
        <time>2020-02-22T09:05:56.000Z</time>
      </trkpt>
      <trkpt lat="49.20301" lon="6.66639">
        <ele>226</ele>
        <time>2020-02-22T09:06:06.000Z</time>
      </trkpt>
      <trkpt lat="49.20315" lon="6.66633">
        <ele>226</ele>
        <time>2020-02-22T09:06:16.000Z</time>
      </trkpt>
      <trkpt lat="49.20328" lon="6.66628">
        <ele>226</ele>
        <time>2020-02-22T09:06:26.000Z</time>
      </trkpt>
      <trkpt lat="49.20341" lon="6.66621">
        <ele>226</ele>
        <time>2020-02-22T09:06:36.000Z</time>
      </trkpt>
      <trkpt lat="49.20353" lon="6.66614">
        <ele>226</ele>
        <time>2020-02-22T09:06:46.000Z</time>
      </trkpt>
      <trkpt lat="49.20363" lon="6.66607">
        <ele>226</ele>
        <time>2020-02-22T09:06:56.000Z</time>
      </trkpt>
      <trkpt lat="49.20376" lon="6.66602">
        <ele>226</ele>
        <time>2020-02-22T09:07:06.000Z</time>
      </trkpt>
      <trkpt lat="49.20391" lon="6.66595">
        <ele>226</ele>
        <time>2020-02-22T09:07:16.000Z</time>
      </trkpt>
      <trkpt lat="49.20405" lon="6.66586">
        <ele>225</ele>
        <time>2020-02-22T09:07:26.000Z</time>
      </trkpt>
      <trkpt lat="49.20418" lon="6.66579">
        <ele>225</ele>
        <time>2020-02-22T09:07:36.000Z</time>
      </trkpt>
      <trkpt lat="49.20429" lon="6.6657">
        <ele>226</ele>
        <time>2020-02-22T09:07:46.000Z</time>
      </trkpt>
      <trkpt lat="49.2044" lon="6.66561">
        <ele>226</ele>
        <time>2020-02-22T09:07:56.000Z</time>
      </trkpt>
      <trkpt lat="49.20452" lon="6.66554">
        <ele>227</ele>
        <time>2020-02-22T09:08:06.000Z</time>
      </trkpt>
      <trkpt lat="49.20463" lon="6.66546">
        <ele>227</ele>
        <time>2020-02-22T09:08:16.000Z</time>
      </trkpt>
      <trkpt lat="49.20474" lon="6.66536">
        <ele>227</ele>
        <time>2020-02-22T09:08:26.000Z</time>
      </trkpt>
      <trkpt lat="49.20487" lon="6.66526">
        <ele>227</ele>
        <time>2020-02-22T09:08:36.000Z</time>
      </trkpt>
      <trkpt lat="49.205" lon="6.66517">
        <ele>228</ele>
        <time>2020-02-22T09:08:46.000Z</time>
      </trkpt>
      <trkpt lat="49.20515" lon="6.66508">
        <ele>228</ele>
        <time>2020-02-22T09:08:56.000Z</time>
      </trkpt>
      <trkpt lat="49.20526" lon="6.66502">
        <ele>228</ele>
        <time>2020-02-22T09:09:06.000Z</time>
      </trkpt>
      <trkpt lat="49.20539" lon="6.66496">
        <ele>227</ele>
        <time>2020-02-22T09:09:16.000Z</time>
      </trkpt>
      <trkpt lat="49.2055" lon="6.66488">
        <ele>228</ele>
        <time>2020-02-22T09:09:26.000Z</time>
      </trkpt>
      <trkpt lat="49.20561" lon="6.66477">
        <ele>228</ele>
        <time>2020-02-22T09:09:36.000Z</time>
      </trkpt>
      <trkpt lat="49.2057" lon="6.66467">
        <ele>228</ele>
        <time>2020-02-22T09:09:46.000Z</time>
      </trkpt>
      <trkpt lat="49.20582" lon="6.66457">
        <ele>228</ele>
        <time>2020-02-22T09:09:56.000Z</time>
      </trkpt>
      <trkpt lat="49.20594" lon="6.66448">
        <ele>230</ele>
        <time>2020-02-22T09:10:06.000Z</time>
      </trkpt>
      <trkpt lat="49.20608" lon="6.66441">
        <ele>231</ele>
        <time>2020-02-22T09:10:16.000Z</time>
      </trkpt>
      <trkpt lat="49.20622" lon="6.66436">
        <ele>231</ele>
        <time>2020-02-22T09:10:26.000Z</time>
      </trkpt>
      <trkpt lat="49.20636" lon="6.6643">
        <ele>232</ele>
        <time>2020-02-22T09:10:36.000Z</time>
      </trkpt>
      <trkpt lat="49.20652" lon="6.66427">
        <ele>232</ele>
        <time>2020-02-22T09:10:46.000Z</time>
      </trkpt>
      <trkpt lat="49.20664" lon="6.66423">
        <ele>233</ele>
        <time>2020-02-22T09:10:56.000Z</time>
      </trkpt>
      <trkpt lat="49.20674" lon="6.66417">
        <ele>233</ele>
        <time>2020-02-22T09:11:06.000Z</time>
      </trkpt>
      <trkpt lat="49.20681" lon="6.6641">
        <ele>234</ele>
        <time>2020-02-22T09:11:16.000Z</time>
      </trkpt>
      <trkpt lat="49.20684" lon="6.66411">
        <ele>234</ele>
        <time>2020-02-22T09:11:26.000Z</time>
      </trkpt>
      <trkpt lat="49.20684" lon="6.66417">
        <ele>234</ele>
        <time>2020-02-22T09:11:38.000Z</time>
      </trkpt>
      <trkpt lat="49.20682" lon="6.6642">
        <ele>234</ele>
        <time>2020-02-22T09:11:48.000Z</time>
      </trkpt>
      <trkpt lat="49.20681" lon="6.6641">
        <ele>234</ele>
        <time>2020-02-22T09:11:58.000Z</time>
      </trkpt>
      <trkpt lat="49.20677" lon="6.66393">
        <ele>234</ele>
        <time>2020-02-22T09:12:08.000Z</time>
      </trkpt>
      <trkpt lat="49.20671" lon="6.66371">
        <ele>235</ele>
        <time>2020-02-22T09:12:18.000Z</time>
      </trkpt>
      <trkpt lat="49.20664" lon="6.66357">
        <ele>235</ele>
        <time>2020-02-22T09:12:28.000Z</time>
      </trkpt>
      <trkpt lat="49.20656" lon="6.66345">
        <ele>235</ele>
        <time>2020-02-22T09:12:38.000Z</time>
      </trkpt>
      <trkpt lat="49.20647" lon="6.66334">
        <ele>235</ele>
        <time>2020-02-22T09:12:48.000Z</time>
      </trkpt>
      <trkpt lat="49.20637" lon="6.66325">
        <ele>238</ele>
        <time>2020-02-22T09:12:58.000Z</time>
      </trkpt>
      <trkpt lat="49.20632" lon="6.66311">
        <ele>238</ele>
        <time>2020-02-22T09:13:08.000Z</time>
      </trkpt>
      <trkpt lat="49.20624" lon="6.66293">
        <ele>239</ele>
        <time>2020-02-22T09:13:18.000Z</time>
      </trkpt>
      <trkpt lat="49.20615" lon="6.66275">
        <ele>239</ele>
        <time>2020-02-22T09:13:28.000Z</time>
      </trkpt>
      <trkpt lat="49.20609" lon="6.66255">
        <ele>239</ele>
        <time>2020-02-22T09:13:38.000Z</time>
      </trkpt>
      <trkpt lat="49.20602" lon="6.6624">
        <ele>241</ele>
        <time>2020-02-22T09:13:48.000Z</time>
      </trkpt>
      <trkpt lat="49.20595" lon="6.66225">
        <ele>242</ele>
        <time>2020-02-22T09:13:58.000Z</time>
      </trkpt>
      <trkpt lat="49.20588" lon="6.66206">
        <ele>243</ele>
        <time>2020-02-22T09:14:08.000Z</time>
      </trkpt>
      <trkpt lat="49.20579" lon="6.66191">
        <ele>238</ele>
        <time>2020-02-22T09:14:18.000Z</time>
      </trkpt>
      <trkpt lat="49.20573" lon="6.66172">
        <ele>240</ele>
        <time>2020-02-22T09:14:28.000Z</time>
      </trkpt>
      <trkpt lat="49.20564" lon="6.6615">
        <ele>241</ele>
        <time>2020-02-22T09:14:38.000Z</time>
      </trkpt>
      <trkpt lat="49.20556" lon="6.66131">
        <ele>241</ele>
        <time>2020-02-22T09:14:48.000Z</time>
      </trkpt>
      <trkpt lat="49.20548" lon="6.66114">
        <ele>241</ele>
        <time>2020-02-22T09:14:58.000Z</time>
      </trkpt>
      <trkpt lat="49.20542" lon="6.66099">
        <ele>241</ele>
        <time>2020-02-22T09:15:08.000Z</time>
      </trkpt>
      <trkpt lat="49.20534" lon="6.66085">
        <ele>240</ele>
        <time>2020-02-22T09:15:18.000Z</time>
      </trkpt>
      <trkpt lat="49.20527" lon="6.66068">
        <ele>243</ele>
        <time>2020-02-22T09:15:28.000Z</time>
      </trkpt>
      <trkpt lat="49.20519" lon="6.66048">
        <ele>244</ele>
        <time>2020-02-22T09:15:38.000Z</time>
      </trkpt>
      <trkpt lat="49.20511" lon="6.66031">
        <ele>244</ele>
        <time>2020-02-22T09:15:48.000Z</time>
      </trkpt>
      <trkpt lat="49.20506" lon="6.66014">
        <ele>244</ele>
        <time>2020-02-22T09:15:58.000Z</time>
      </trkpt>
      <trkpt lat="49.20498" lon="6.65998">
        <ele>243</ele>
        <time>2020-02-22T09:16:08.000Z</time>
      </trkpt>
      <trkpt lat="49.2049" lon="6.65982">
        <ele>242</ele>
        <time>2020-02-22T09:16:18.000Z</time>
      </trkpt>
      <trkpt lat="49.2048" lon="6.65963">
        <ele>242</ele>
        <time>2020-02-22T09:16:28.000Z</time>
      </trkpt>
      <trkpt lat="49.2047" lon="6.65948">
        <ele>242</ele>
        <time>2020-02-22T09:16:38.000Z</time>
      </trkpt>
      <trkpt lat="49.20462" lon="6.65936">
        <ele>242</ele>
        <time>2020-02-22T09:16:48.000Z</time>
      </trkpt>
      <trkpt lat="49.20461" lon="6.65925">
        <ele>242</ele>
        <time>2020-02-22T09:16:58.000Z</time>
      </trkpt>
      <trkpt lat="49.20455" lon="6.65909">
        <ele>245</ele>
        <time>2020-02-22T09:17:08.000Z</time>
      </trkpt>
      <trkpt lat="49.20447" lon="6.65878">
        <ele>246</ele>
        <time>2020-02-22T09:17:18.000Z</time>
      </trkpt>
      <trkpt lat="49.20439" lon="6.6586">
        <ele>247</ele>
        <time>2020-02-22T09:17:28.000Z</time>
      </trkpt>
      <trkpt lat="49.2043" lon="6.65854">
        <ele>248</ele>
        <time>2020-02-22T09:17:38.000Z</time>
      </trkpt>
      <trkpt lat="49.20424" lon="6.65852">
        <ele>248</ele>
        <time>2020-02-22T09:17:48.000Z</time>
      </trkpt>
      <trkpt lat="49.20413" lon="6.6584">
        <ele>251</ele>
        <time>2020-02-22T09:17:58.000Z</time>
      </trkpt>
      <trkpt lat="49.20402" lon="6.65827">
        <ele>254</ele>
        <time>2020-02-22T09:18:08.000Z</time>
      </trkpt>
      <trkpt lat="49.2039" lon="6.65813">
        <ele>255</ele>
        <time>2020-02-22T09:18:18.000Z</time>
      </trkpt>
      <trkpt lat="49.20381" lon="6.65799">
        <ele>255</ele>
        <time>2020-02-22T09:18:28.000Z</time>
      </trkpt>
      <trkpt lat="49.20372" lon="6.65781">
        <ele>256</ele>
        <time>2020-02-22T09:18:38.000Z</time>
      </trkpt>
      <trkpt lat="49.20366" lon="6.65761">
        <ele>257</ele>
        <time>2020-02-22T09:18:48.000Z</time>
      </trkpt>
      <trkpt lat="49.20363" lon="6.65742">
        <ele>261</ele>
        <time>2020-02-22T09:18:58.000Z</time>
      </trkpt>
      <trkpt lat="49.20362" lon="6.65721">
        <ele>262</ele>
        <time>2020-02-22T09:19:08.000Z</time>
      </trkpt>
      <trkpt lat="49.20361" lon="6.65697">
        <ele>262</ele>
        <time>2020-02-22T09:19:18.000Z</time>
      </trkpt>
      <trkpt lat="49.20364" lon="6.65669">
        <ele>263</ele>
        <time>2020-02-22T09:19:28.000Z</time>
      </trkpt>
      <trkpt lat="49.20367" lon="6.65643">
        <ele>265</ele>
        <time>2020-02-22T09:19:38.000Z</time>
      </trkpt>
      <trkpt lat="49.2037" lon="6.6562">
        <ele>266</ele>
        <time>2020-02-22T09:19:48.000Z</time>
      </trkpt>
      <trkpt lat="49.20374" lon="6.65602">
        <ele>266</ele>
        <time>2020-02-22T09:19:58.000Z</time>
      </trkpt>
      <trkpt lat="49.20376" lon="6.65584">
        <ele>266</ele>
        <time>2020-02-22T09:20:08.000Z</time>
      </trkpt>
      <trkpt lat="49.20374" lon="6.65575">
        <ele>266</ele>
        <time>2020-02-22T09:20:18.000Z</time>
      </trkpt>
      <trkpt lat="49.20373" lon="6.6557">
        <ele>266</ele>
        <time>2020-02-22T09:20:28.000Z</time>
      </trkpt>
      <trkpt lat="49.20375" lon="6.65574">
        <ele>266</ele>
        <time>2020-02-22T09:20:38.000Z</time>
      </trkpt>
      <trkpt lat="49.20377" lon="6.65578">
        <ele>266</ele>
        <time>2020-02-22T09:20:48.000Z</time>
      </trkpt>
      <trkpt lat="49.20393" lon="6.65576">
        <ele>268</ele>
        <time>2020-02-22T09:22:17.000Z</time>
      </trkpt>
      <trkpt lat="49.20394" lon="6.65575">
        <ele>268</ele>
        <time>2020-02-22T09:22:27.000Z</time>
      </trkpt>
      <trkpt lat="49.20392" lon="6.65571">
        <ele>268</ele>
        <time>2020-02-22T09:25:43.000Z</time>
      </trkpt>
      <trkpt lat="49.20391" lon="6.65571">
        <ele>268</ele>
        <time>2020-02-22T09:27:38.000Z</time>
      </trkpt>
      <trkpt lat="49.2039" lon="6.65569">
        <ele>268</ele>
        <time>2020-02-22T09:28:37.000Z</time>
      </trkpt>
      <trkpt lat="49.2039" lon="6.65567">
        <ele>267</ele>
        <time>2020-02-22T09:28:47.000Z</time>
      </trkpt>
      <trkpt lat="49.20389" lon="6.65545">
        <ele>267</ele>
        <time>2020-02-22T09:28:58.000Z</time>
      </trkpt>
      <trkpt lat="49.20389" lon="6.65542">
        <ele>267</ele>
        <time>2020-02-22T09:29:08.000Z</time>
      </trkpt>
      <trkpt lat="49.20392" lon="6.65548">
        <ele>267</ele>
        <time>2020-02-22T09:33:05.000Z</time>
      </trkpt>
      <trkpt lat="49.20394" lon="6.65544">
        <ele>268</ele>
        <time>2020-02-22T09:33:15.000Z</time>
      </trkpt>
      <trkpt lat="49.20394" lon="6.65538">
        <ele>268</ele>
        <time>2020-02-22T09:33:25.000Z</time>
      </trkpt>
      <trkpt lat="49.20394" lon="6.65533">
        <ele>268</ele>
        <time>2020-02-22T09:33:35.000Z</time>
      </trkpt>
      <trkpt lat="49.20396" lon="6.65523">
        <ele>268</ele>
        <time>2020-02-22T09:33:45.000Z</time>
      </trkpt>
      <trkpt lat="49.20398" lon="6.65507">
        <ele>269</ele>
        <time>2020-02-22T09:33:55.000Z</time>
      </trkpt>
      <trkpt lat="49.20401" lon="6.65484">
        <ele>268</ele>
        <time>2020-02-22T09:34:05.000Z</time>
      </trkpt>
      <trkpt lat="49.20406" lon="6.65464">
        <ele>267</ele>
        <time>2020-02-22T09:34:15.000Z</time>
      </trkpt>
      <trkpt lat="49.20412" lon="6.65441">
        <ele>267</ele>
        <time>2020-02-22T09:34:25.000Z</time>
      </trkpt>
      <trkpt lat="49.20418" lon="6.65419">
        <ele>270</ele>
        <time>2020-02-22T09:34:35.000Z</time>
      </trkpt>
      <trkpt lat="49.20424" lon="6.65401">
        <ele>271</ele>
        <time>2020-02-22T09:34:45.000Z</time>
      </trkpt>
      <trkpt lat="49.20431" lon="6.65384">
        <ele>271</ele>
        <time>2020-02-22T09:34:55.000Z</time>
      </trkpt>
      <trkpt lat="49.20437" lon="6.65367">
        <ele>271</ele>
        <time>2020-02-22T09:35:05.000Z</time>
      </trkpt>
      <trkpt lat="49.20442" lon="6.6535">
        <ele>271</ele>
        <time>2020-02-22T09:35:15.000Z</time>
      </trkpt>
      <trkpt lat="49.20444" lon="6.65338">
        <ele>271</ele>
        <time>2020-02-22T09:35:25.000Z</time>
      </trkpt>
      <trkpt lat="49.20449" lon="6.65338">
        <ele>271</ele>
        <time>2020-02-22T09:35:35.000Z</time>
      </trkpt>
      <trkpt lat="49.20459" lon="6.65328">
        <ele>274</ele>
        <time>2020-02-22T09:36:59.000Z</time>
      </trkpt>
      <trkpt lat="49.20463" lon="6.65321">
        <ele>275</ele>
        <time>2020-02-22T09:37:09.000Z</time>
      </trkpt>
      <trkpt lat="49.2046" lon="6.653">
        <ele>275</ele>
        <time>2020-02-22T09:37:19.000Z</time>
      </trkpt>
      <trkpt lat="49.20465" lon="6.65284">
        <ele>276</ele>
        <time>2020-02-22T09:37:29.000Z</time>
      </trkpt>
      <trkpt lat="49.20473" lon="6.65263">
        <ele>276</ele>
        <time>2020-02-22T09:37:39.000Z</time>
      </trkpt>
      <trkpt lat="49.20479" lon="6.65243">
        <ele>279</ele>
        <time>2020-02-22T09:37:49.000Z</time>
      </trkpt>
      <trkpt lat="49.20484" lon="6.65226">
        <ele>280</ele>
        <time>2020-02-22T09:37:59.000Z</time>
      </trkpt>
      <trkpt lat="49.2049" lon="6.65209">
        <ele>280</ele>
        <time>2020-02-22T09:38:09.000Z</time>
      </trkpt>
      <trkpt lat="49.20496" lon="6.65189">
        <ele>279</ele>
        <time>2020-02-22T09:38:19.000Z</time>
      </trkpt>
      <trkpt lat="49.20504" lon="6.65165">
        <ele>276</ele>
        <time>2020-02-22T09:38:29.000Z</time>
      </trkpt>
      <trkpt lat="49.2051" lon="6.65145">
        <ele>276</ele>
        <time>2020-02-22T09:38:39.000Z</time>
      </trkpt>
      <trkpt lat="49.20516" lon="6.65123">
        <ele>277</ele>
        <time>2020-02-22T09:38:49.000Z</time>
      </trkpt>
      <trkpt lat="49.20524" lon="6.65113">
        <ele>277</ele>
        <time>2020-02-22T09:38:59.000Z</time>
      </trkpt>
      <trkpt lat="49.20533" lon="6.65098">
        <ele>277</ele>
        <time>2020-02-22T09:39:09.000Z</time>
      </trkpt>
      <trkpt lat="49.20539" lon="6.65078">
        <ele>280</ele>
        <time>2020-02-22T09:39:19.000Z</time>
      </trkpt>
      <trkpt lat="49.20541" lon="6.65065">
        <ele>280</ele>
        <time>2020-02-22T09:39:29.000Z</time>
      </trkpt>
      <trkpt lat="49.2054" lon="6.65052">
        <ele>280</ele>
        <time>2020-02-22T09:39:39.000Z</time>
      </trkpt>
      <trkpt lat="49.2054" lon="6.65035">
        <ele>281</ele>
        <time>2020-02-22T09:39:49.000Z</time>
      </trkpt>
      <trkpt lat="49.2054" lon="6.65032">
        <ele>281</ele>
        <time>2020-02-22T09:39:59.000Z</time>
      </trkpt>
      <trkpt lat="49.20542" lon="6.65028">
        <ele>281</ele>
        <time>2020-02-22T09:40:09.000Z</time>
      </trkpt>
      <trkpt lat="49.20544" lon="6.65027">
        <ele>281</ele>
        <time>2020-02-22T09:40:19.000Z</time>
      </trkpt>
      <trkpt lat="49.20543" lon="6.65034">
        <ele>281</ele>
        <time>2020-02-22T09:40:29.000Z</time>
      </trkpt>
      <trkpt lat="49.20541" lon="6.65045">
        <ele>280</ele>
        <time>2020-02-22T09:40:39.000Z</time>
      </trkpt>
      <trkpt lat="49.20539" lon="6.65058">
        <ele>280</ele>
        <time>2020-02-22T09:40:49.000Z</time>
      </trkpt>
      <trkpt lat="49.20536" lon="6.6507">
        <ele>280</ele>
        <time>2020-02-22T09:40:59.000Z</time>
      </trkpt>
      <trkpt lat="49.20534" lon="6.65072">
        <ele>280</ele>
        <time>2020-02-22T09:41:09.000Z</time>
      </trkpt>
      <trkpt lat="49.20524" lon="6.6508">
        <ele>280</ele>
        <time>2020-02-22T09:41:19.000Z</time>
      </trkpt>
      <trkpt lat="49.20512" lon="6.65086">
        <ele>278</ele>
        <time>2020-02-22T09:41:29.000Z</time>
      </trkpt>
      <trkpt lat="49.20504" lon="6.65095">
        <ele>278</ele>
        <time>2020-02-22T09:41:39.000Z</time>
      </trkpt>
      <trkpt lat="49.20496" lon="6.65111">
        <ele>286</ele>
        <time>2020-02-22T09:41:49.000Z</time>
      </trkpt>
      <trkpt lat="49.20488" lon="6.6513">
        <ele>286</ele>
        <time>2020-02-22T09:41:59.000Z</time>
      </trkpt>
      <trkpt lat="49.20491" lon="6.65134">
        <ele>286</ele>
        <time>2020-02-22T09:42:09.000Z</time>
      </trkpt>
      <trkpt lat="49.20483" lon="6.65143">
        <ele>286</ele>
        <time>2020-02-22T09:42:19.000Z</time>
      </trkpt>
      <trkpt lat="49.20471" lon="6.65161">
        <ele>286</ele>
        <time>2020-02-22T09:42:29.000Z</time>
      </trkpt>
      <trkpt lat="49.20463" lon="6.65175">
        <ele>283</ele>
        <time>2020-02-22T09:42:39.000Z</time>
      </trkpt>
      <trkpt lat="49.20454" lon="6.65186">
        <ele>283</ele>
        <time>2020-02-22T09:42:49.000Z</time>
      </trkpt>
      <trkpt lat="49.20444" lon="6.65195">
        <ele>284</ele>
        <time>2020-02-22T09:42:59.000Z</time>
      </trkpt>
      <trkpt lat="49.20433" lon="6.65204">
        <ele>284</ele>
        <time>2020-02-22T09:43:09.000Z</time>
      </trkpt>
      <trkpt lat="49.20421" lon="6.65214">
        <ele>284</ele>
        <time>2020-02-22T09:43:19.000Z</time>
      </trkpt>
      <trkpt lat="49.2041" lon="6.65226">
        <ele>289</ele>
        <time>2020-02-22T09:43:29.000Z</time>
      </trkpt>
      <trkpt lat="49.20398" lon="6.65234">
        <ele>289</ele>
        <time>2020-02-22T09:43:39.000Z</time>
      </trkpt>
      <trkpt lat="49.20387" lon="6.65227">
        <ele>292</ele>
        <time>2020-02-22T09:43:49.000Z</time>
      </trkpt>
      <trkpt lat="49.20385" lon="6.65228">
        <ele>292</ele>
        <time>2020-02-22T09:43:59.000Z</time>
      </trkpt>
      <trkpt lat="49.20383" lon="6.65226">
        <ele>292</ele>
        <time>2020-02-22T09:44:09.000Z</time>
      </trkpt>
      <trkpt lat="49.20385" lon="6.65231">
        <ele>291</ele>
        <time>2020-02-22T09:44:19.000Z</time>
      </trkpt>
      <trkpt lat="49.20384" lon="6.65223">
        <ele>292</ele>
        <time>2020-02-22T09:44:59.000Z</time>
      </trkpt>
      <trkpt lat="49.20386" lon="6.65219">
        <ele>292</ele>
        <time>2020-02-22T09:45:09.000Z</time>
      </trkpt>
      <trkpt lat="49.20388" lon="6.65207">
        <ele>293</ele>
        <time>2020-02-22T09:45:19.000Z</time>
      </trkpt>
      <trkpt lat="49.2039" lon="6.65192">
        <ele>295</ele>
        <time>2020-02-22T09:45:29.000Z</time>
      </trkpt>
      <trkpt lat="49.20392" lon="6.65182">
        <ele>295</ele>
        <time>2020-02-22T09:45:39.000Z</time>
      </trkpt>
      <trkpt lat="49.20394" lon="6.65163">
        <ele>303</ele>
        <time>2020-02-22T09:45:49.000Z</time>
      </trkpt>
      <trkpt lat="49.20395" lon="6.65148">
        <ele>305</ele>
        <time>2020-02-22T09:45:59.000Z</time>
      </trkpt>
      <trkpt lat="49.20397" lon="6.65138">
        <ele>306</ele>
        <time>2020-02-22T09:46:09.000Z</time>
      </trkpt>
      <trkpt lat="49.20394" lon="6.65128">
        <ele>307</ele>
        <time>2020-02-22T09:46:19.000Z</time>
      </trkpt>
      <trkpt lat="49.20388" lon="6.65122">
        <ele>308</ele>
        <time>2020-02-22T09:46:29.000Z</time>
      </trkpt>
      <trkpt lat="49.20384" lon="6.65122">
        <ele>308</ele>
        <time>2020-02-22T09:46:39.000Z</time>
      </trkpt>
      <trkpt lat="49.20382" lon="6.65127">
        <ele>308</ele>
        <time>2020-02-22T09:46:49.000Z</time>
      </trkpt>
      <trkpt lat="49.20379" lon="6.65129">
        <ele>308</ele>
        <time>2020-02-22T09:46:59.000Z</time>
      </trkpt>
      <trkpt lat="49.20373" lon="6.65136">
        <ele>308</ele>
        <time>2020-02-22T09:47:09.000Z</time>
      </trkpt>
      <trkpt lat="49.20363" lon="6.65144">
        <ele>308</ele>
        <time>2020-02-22T09:47:19.000Z</time>
      </trkpt>
      <trkpt lat="49.20353" lon="6.65152">
        <ele>308</ele>
        <time>2020-02-22T09:47:29.000Z</time>
      </trkpt>
      <trkpt lat="49.20352" lon="6.65153">
        <ele>308</ele>
        <time>2020-02-22T09:47:39.000Z</time>
      </trkpt>
      <trkpt lat="49.2035" lon="6.65149">
        <ele>309</ele>
        <time>2020-02-22T09:48:00.000Z</time>
      </trkpt>
      <trkpt lat="49.20351" lon="6.65141">
        <ele>309</ele>
        <time>2020-02-22T09:48:10.000Z</time>
      </trkpt>
      <trkpt lat="49.20349" lon="6.6514">
        <ele>309</ele>
        <time>2020-02-22T09:48:20.000Z</time>
      </trkpt>
      <trkpt lat="49.20347" lon="6.65144">
        <ele>309</ele>
        <time>2020-02-22T09:48:30.000Z</time>
      </trkpt>
      <trkpt lat="49.20347" lon="6.65145">
        <ele>309</ele>
        <time>2020-02-22T09:49:17.000Z</time>
      </trkpt>
      <trkpt lat="49.20348" lon="6.65143">
        <ele>309</ele>
        <time>2020-02-22T09:52:04.000Z</time>
      </trkpt>
      <trkpt lat="49.20353" lon="6.6513">
        <ele>310</ele>
        <time>2020-02-22T09:52:14.000Z</time>
      </trkpt>
      <trkpt lat="49.20356" lon="6.65114">
        <ele>311</ele>
        <time>2020-02-22T09:52:24.000Z</time>
      </trkpt>
      <trkpt lat="49.20358" lon="6.65098">
        <ele>312</ele>
        <time>2020-02-22T09:52:34.000Z</time>
      </trkpt>
      <trkpt lat="49.20361" lon="6.65083">
        <ele>318</ele>
        <time>2020-02-22T09:52:44.000Z</time>
      </trkpt>
      <trkpt lat="49.20368" lon="6.65064">
        <ele>318</ele>
        <time>2020-02-22T09:52:54.000Z</time>
      </trkpt>
      <trkpt lat="49.20374" lon="6.6505">
        <ele>318</ele>
        <time>2020-02-22T09:53:04.000Z</time>
      </trkpt>
      <trkpt lat="49.2038" lon="6.65035">
        <ele>318</ele>
        <time>2020-02-22T09:53:14.000Z</time>
      </trkpt>
      <trkpt lat="49.20394" lon="6.65029">
        <ele>318</ele>
        <time>2020-02-22T09:53:24.000Z</time>
      </trkpt>
      <trkpt lat="49.20404" lon="6.65019">
        <ele>318</ele>
        <time>2020-02-22T09:53:34.000Z</time>
      </trkpt>
      <trkpt lat="49.20411" lon="6.65007">
        <ele>319</ele>
        <time>2020-02-22T09:53:44.000Z</time>
      </trkpt>
      <trkpt lat="49.20416" lon="6.64995">
        <ele>319</ele>
        <time>2020-02-22T09:53:54.000Z</time>
      </trkpt>
      <trkpt lat="49.20417" lon="6.64995">
        <ele>316</ele>
        <time>2020-02-22T09:54:06.000Z</time>
      </trkpt>
      <trkpt lat="49.20418" lon="6.64997">
        <ele>317</ele>
        <time>2020-02-22T09:54:16.000Z</time>
      </trkpt>
      <trkpt lat="49.20418" lon="6.64996">
        <ele>316</ele>
        <time>2020-02-22T09:55:54.000Z</time>
      </trkpt>
      <trkpt lat="49.20417" lon="6.64992">
        <ele>315</ele>
        <time>2020-02-22T09:56:04.000Z</time>
      </trkpt>
      <trkpt lat="49.20418" lon="6.64973">
        <ele>310</ele>
        <time>2020-02-22T09:56:14.000Z</time>
      </trkpt>
      <trkpt lat="49.20422" lon="6.64953">
        <ele>309</ele>
        <time>2020-02-22T09:56:24.000Z</time>
      </trkpt>
      <trkpt lat="49.2042" lon="6.64934">
        <ele>312</ele>
        <time>2020-02-22T09:56:34.000Z</time>
      </trkpt>
      <trkpt lat="49.20418" lon="6.64926">
        <ele>314</ele>
        <time>2020-02-22T09:56:44.000Z</time>
      </trkpt>
      <trkpt lat="49.20417" lon="6.64916">
        <ele>319</ele>
        <time>2020-02-22T09:56:54.000Z</time>
      </trkpt>
      <trkpt lat="49.20413" lon="6.64905">
        <ele>316</ele>
        <time>2020-02-22T09:57:04.000Z</time>
      </trkpt>
      <trkpt lat="49.20409" lon="6.64892">
        <ele>314</ele>
        <time>2020-02-22T09:57:14.000Z</time>
      </trkpt>
      <trkpt lat="49.204" lon="6.64883">
        <ele>312</ele>
        <time>2020-02-22T09:57:24.000Z</time>
      </trkpt>
      <trkpt lat="49.2039" lon="6.64867">
        <ele>311</ele>
        <time>2020-02-22T09:57:34.000Z</time>
      </trkpt>
      <trkpt lat="49.20382" lon="6.64855">
        <ele>310</ele>
        <time>2020-02-22T09:57:44.000Z</time>
      </trkpt>
      <trkpt lat="49.20377" lon="6.64845">
        <ele>309</ele>
        <time>2020-02-22T09:57:54.000Z</time>
      </trkpt>
      <trkpt lat="49.20374" lon="6.64846">
        <ele>309</ele>
        <time>2020-02-22T09:58:04.000Z</time>
      </trkpt>
      <trkpt lat="49.20371" lon="6.64841">
        <ele>308</ele>
        <time>2020-02-22T09:58:14.000Z</time>
      </trkpt>
      <trkpt lat="49.20364" lon="6.6484">
        <ele>308</ele>
        <time>2020-02-22T09:58:24.000Z</time>
      </trkpt>
      <trkpt lat="49.20363" lon="6.6484">
        <ele>308</ele>
        <time>2020-02-22T09:58:34.000Z</time>
      </trkpt>
      <trkpt lat="49.20365" lon="6.64839">
        <ele>308</ele>
        <time>2020-02-22T09:59:32.000Z</time>
      </trkpt>
      <trkpt lat="49.20368" lon="6.64837">
        <ele>308</ele>
        <time>2020-02-22T09:59:42.000Z</time>
      </trkpt>
      <trkpt lat="49.20369" lon="6.64837">
        <ele>308</ele>
        <time>2020-02-22T10:00:27.000Z</time>
      </trkpt>
      <trkpt lat="49.20377" lon="6.64841">
        <ele>309</ele>
        <time>2020-02-22T10:00:37.000Z</time>
      </trkpt>
      <trkpt lat="49.20387" lon="6.64845">
        <ele>310</ele>
        <time>2020-02-22T10:00:47.000Z</time>
      </trkpt>
      <trkpt lat="49.20395" lon="6.64849">
        <ele>310</ele>
        <time>2020-02-22T10:00:57.000Z</time>
      </trkpt>
      <trkpt lat="49.20401" lon="6.64856">
        <ele>310</ele>
        <time>2020-02-22T10:01:07.000Z</time>
      </trkpt>
      <trkpt lat="49.20408" lon="6.64868">
        <ele>311</ele>
        <time>2020-02-22T10:01:17.000Z</time>
      </trkpt>
      <trkpt lat="49.20415" lon="6.64881">
        <ele>313</ele>
        <time>2020-02-22T10:01:27.000Z</time>
      </trkpt>
      <trkpt lat="49.20423" lon="6.64885">
        <ele>307</ele>
        <time>2020-02-22T10:01:37.000Z</time>
      </trkpt>
      <trkpt lat="49.20425" lon="6.64883">
        <ele>306</ele>
        <time>2020-02-22T10:01:47.000Z</time>
      </trkpt>
      <trkpt lat="49.20428" lon="6.64879">
        <ele>305</ele>
        <time>2020-02-22T10:01:57.000Z</time>
      </trkpt>
      <trkpt lat="49.20428" lon="6.64872">
        <ele>305</ele>
        <time>2020-02-22T10:02:07.000Z</time>
      </trkpt>
      <trkpt lat="49.20427" lon="6.64868">
        <ele>305</ele>
        <time>2020-02-22T10:02:17.000Z</time>
      </trkpt>
      <trkpt lat="49.20426" lon="6.64866">
        <ele>305</ele>
        <time>2020-02-22T10:02:27.000Z</time>
      </trkpt>
      <trkpt lat="49.20425" lon="6.64864">
        <ele>305</ele>
        <time>2020-02-22T10:04:34.000Z</time>
      </trkpt>
      <trkpt lat="49.20422" lon="6.64851">
        <ele>305</ele>
        <time>2020-02-22T10:04:44.000Z</time>
      </trkpt>
      <trkpt lat="49.20421" lon="6.64843">
        <ele>306</ele>
        <time>2020-02-22T10:04:54.000Z</time>
      </trkpt>
      <trkpt lat="49.2042" lon="6.64838">
        <ele>307</ele>
        <time>2020-02-22T10:05:04.000Z</time>
      </trkpt>
      <trkpt lat="49.20419" lon="6.64833">
        <ele>307</ele>
        <time>2020-02-22T10:05:14.000Z</time>
      </trkpt>
      <trkpt lat="49.20417" lon="6.64824">
        <ele>304</ele>
        <time>2020-02-22T10:05:24.000Z</time>
      </trkpt>
      <trkpt lat="49.20416" lon="6.64822">
        <ele>305</ele>
        <time>2020-02-22T10:05:59.000Z</time>
      </trkpt>
      <trkpt lat="49.20415" lon="6.64821">
        <ele>304</ele>
        <time>2020-02-22T10:06:55.000Z</time>
      </trkpt>
      <trkpt lat="49.20415" lon="6.64816">
        <ele>303</ele>
        <time>2020-02-22T10:07:05.000Z</time>
      </trkpt>
      <trkpt lat="49.20415" lon="6.64815">
        <ele>303</ele>
        <time>2020-02-22T10:07:31.000Z</time>
      </trkpt>
      <trkpt lat="49.20415" lon="6.64807">
        <ele>301</ele>
        <time>2020-02-22T10:07:41.000Z</time>
      </trkpt>
      <trkpt lat="49.20415" lon="6.64805">
        <ele>301</ele>
        <time>2020-02-22T10:07:51.000Z</time>
      </trkpt>
      <trkpt lat="49.20415" lon="6.64788">
        <ele>298</ele>
        <time>2020-02-22T10:08:01.000Z</time>
      </trkpt>
      <trkpt lat="49.2042" lon="6.64776">
        <ele>294</ele>
        <time>2020-02-22T10:08:11.000Z</time>
      </trkpt>
      <trkpt lat="49.20424" lon="6.6477">
        <ele>293</ele>
        <time>2020-02-22T10:08:21.000Z</time>
      </trkpt>
      <trkpt lat="49.20429" lon="6.64764">
        <ele>292</ele>
        <time>2020-02-22T10:08:31.000Z</time>
      </trkpt>
      <trkpt lat="49.20436" lon="6.6476">
        <ele>292</ele>
        <time>2020-02-22T10:08:41.000Z</time>
      </trkpt>
      <trkpt lat="49.20441" lon="6.64758">
        <ele>292</ele>
        <time>2020-02-22T10:08:51.000Z</time>
      </trkpt>
      <trkpt lat="49.20442" lon="6.64758">
        <ele>292</ele>
        <time>2020-02-22T10:09:01.000Z</time>
      </trkpt>
      <trkpt lat="49.20443" lon="6.64758">
        <ele>292</ele>
        <time>2020-02-22T10:09:20.000Z</time>
      </trkpt>
      <trkpt lat="49.20457" lon="6.64756">
        <ele>291</ele>
        <time>2020-02-22T10:09:30.000Z</time>
      </trkpt>
      <trkpt lat="49.20466" lon="6.64758">
        <ele>291</ele>
        <time>2020-02-22T10:09:40.000Z</time>
      </trkpt>
      <trkpt lat="49.20472" lon="6.64757">
        <ele>290</ele>
        <time>2020-02-22T10:09:50.000Z</time>
      </trkpt>
      <trkpt lat="49.20474" lon="6.64755">
        <ele>290</ele>
        <time>2020-02-22T10:10:00.000Z</time>
      </trkpt>
      <trkpt lat="49.20475" lon="6.64756">
        <ele>290</ele>
        <time>2020-02-22T10:10:10.000Z</time>
      </trkpt>
      <trkpt lat="49.20478" lon="6.64759">
        <ele>290</ele>
        <time>2020-02-22T10:10:20.000Z</time>
      </trkpt>
      <trkpt lat="49.20488" lon="6.64766">
        <ele>289</ele>
        <time>2020-02-22T10:10:30.000Z</time>
      </trkpt>
      <trkpt lat="49.20498" lon="6.64773">
        <ele>290</ele>
        <time>2020-02-22T10:10:40.000Z</time>
      </trkpt>
      <trkpt lat="49.20509" lon="6.6478">
        <ele>287</ele>
        <time>2020-02-22T10:10:50.000Z</time>
      </trkpt>
      <trkpt lat="49.20518" lon="6.64789">
        <ele>287</ele>
        <time>2020-02-22T10:11:00.000Z</time>
      </trkpt>
      <trkpt lat="49.20516" lon="6.6478">
        <ele>287</ele>
        <time>2020-02-22T10:11:10.000Z</time>
      </trkpt>
      <trkpt lat="49.20518" lon="6.64777">
        <ele>287</ele>
        <time>2020-02-22T10:11:20.000Z</time>
      </trkpt>
      <trkpt lat="49.20528" lon="6.64774">
        <ele>287</ele>
        <time>2020-02-22T10:11:30.000Z</time>
      </trkpt>
      <trkpt lat="49.20534" lon="6.64783">
        <ele>287</ele>
        <time>2020-02-22T10:11:40.000Z</time>
      </trkpt>
      <trkpt lat="49.20535" lon="6.64777">
        <ele>287</ele>
        <time>2020-02-22T10:11:50.000Z</time>
      </trkpt>
      <trkpt lat="49.20535" lon="6.64773">
        <ele>287</ele>
        <time>2020-02-22T10:12:00.000Z</time>
      </trkpt>
      <trkpt lat="49.20534" lon="6.64778">
        <ele>287</ele>
        <time>2020-02-22T10:12:23.000Z</time>
      </trkpt>
      <trkpt lat="49.20532" lon="6.6478">
        <ele>287</ele>
        <time>2020-02-22T10:12:33.000Z</time>
      </trkpt>
      <trkpt lat="49.20532" lon="6.64782">
        <ele>287</ele>
        <time>2020-02-22T10:12:43.000Z</time>
      </trkpt>
      <trkpt lat="49.2054" lon="6.64794">
        <ele>287</ele>
        <time>2020-02-22T10:12:53.000Z</time>
      </trkpt>
      <trkpt lat="49.20548" lon="6.64806">
        <ele>287</ele>
        <time>2020-02-22T10:13:03.000Z</time>
      </trkpt>
      <trkpt lat="49.20556" lon="6.64826">
        <ele>286</ele>
        <time>2020-02-22T10:13:13.000Z</time>
      </trkpt>
      <trkpt lat="49.20566" lon="6.64847">
        <ele>285</ele>
        <time>2020-02-22T10:13:23.000Z</time>
      </trkpt>
      <trkpt lat="49.20571" lon="6.64859">
        <ele>285</ele>
        <time>2020-02-22T10:13:33.000Z</time>
      </trkpt>
      <trkpt lat="49.20572" lon="6.64872">
        <ele>285</ele>
        <time>2020-02-22T10:13:43.000Z</time>
      </trkpt>
      <trkpt lat="49.20573" lon="6.64887">
        <ele>285</ele>
        <time>2020-02-22T10:13:53.000Z</time>
      </trkpt>
      <trkpt lat="49.20573" lon="6.64899">
        <ele>285</ele>
        <time>2020-02-22T10:14:03.000Z</time>
      </trkpt>
      <trkpt lat="49.20579" lon="6.64902">
        <ele>284</ele>
        <time>2020-02-22T10:14:13.000Z</time>
      </trkpt>
      <trkpt lat="49.20576" lon="6.64902">
        <ele>284</ele>
        <time>2020-02-22T10:14:23.000Z</time>
      </trkpt>
      <trkpt lat="49.20573" lon="6.64904">
        <ele>284</ele>
        <time>2020-02-22T10:14:33.000Z</time>
      </trkpt>
      <trkpt lat="49.2057" lon="6.64904">
        <ele>285</ele>
        <time>2020-02-22T10:14:50.000Z</time>
      </trkpt>
      <trkpt lat="49.2057" lon="6.64904">
        <ele>285</ele>
        <time>2020-02-22T10:15:02.000Z</time>
      </trkpt>
      <trkpt lat="49.20572" lon="6.64896">
        <ele>285</ele>
        <time>2020-02-22T10:15:12.000Z</time>
      </trkpt>
      <trkpt lat="49.20573" lon="6.64888">
        <ele>285</ele>
        <time>2020-02-22T10:15:22.000Z</time>
      </trkpt>
      <trkpt lat="49.20575" lon="6.64874">
        <ele>285</ele>
        <time>2020-02-22T10:15:32.000Z</time>
      </trkpt>
      <trkpt lat="49.20577" lon="6.64856">
        <ele>285</ele>
        <time>2020-02-22T10:15:42.000Z</time>
      </trkpt>
      <trkpt lat="49.20583" lon="6.64837">
        <ele>285</ele>
        <time>2020-02-22T10:15:52.000Z</time>
      </trkpt>
      <trkpt lat="49.20591" lon="6.64826">
        <ele>286</ele>
        <time>2020-02-22T10:16:02.000Z</time>
      </trkpt>
      <trkpt lat="49.20602" lon="6.6481">
        <ele>288</ele>
        <time>2020-02-22T10:16:12.000Z</time>
      </trkpt>
      <trkpt lat="49.20614" lon="6.64801">
        <ele>288</ele>
        <time>2020-02-22T10:16:22.000Z</time>
      </trkpt>
      <trkpt lat="49.20627" lon="6.64789">
        <ele>289</ele>
        <time>2020-02-22T10:16:32.000Z</time>
      </trkpt>
      <trkpt lat="49.20637" lon="6.64778">
        <ele>290</ele>
        <time>2020-02-22T10:16:42.000Z</time>
      </trkpt>
      <trkpt lat="49.20651" lon="6.64768">
        <ele>291</ele>
        <time>2020-02-22T10:16:52.000Z</time>
      </trkpt>
      <trkpt lat="49.20664" lon="6.6476">
        <ele>294</ele>
        <time>2020-02-22T10:17:02.000Z</time>
      </trkpt>
      <trkpt lat="49.20676" lon="6.64749">
        <ele>295</ele>
        <time>2020-02-22T10:17:12.000Z</time>
      </trkpt>
      <trkpt lat="49.20686" lon="6.64738">
        <ele>294</ele>
        <time>2020-02-22T10:17:22.000Z</time>
      </trkpt>
      <trkpt lat="49.20696" lon="6.64726">
        <ele>293</ele>
        <time>2020-02-22T10:17:32.000Z</time>
      </trkpt>
      <trkpt lat="49.20705" lon="6.64714">
        <ele>293</ele>
        <time>2020-02-22T10:17:42.000Z</time>
      </trkpt>
      <trkpt lat="49.20716" lon="6.64703">
        <ele>292</ele>
        <time>2020-02-22T10:17:52.000Z</time>
      </trkpt>
      <trkpt lat="49.20727" lon="6.64691">
        <ele>292</ele>
        <time>2020-02-22T10:18:02.000Z</time>
      </trkpt>
      <trkpt lat="49.20736" lon="6.64678">
        <ele>291</ele>
        <time>2020-02-22T10:18:12.000Z</time>
      </trkpt>
      <trkpt lat="49.20744" lon="6.64664">
        <ele>292</ele>
        <time>2020-02-22T10:18:22.000Z</time>
      </trkpt>
      <trkpt lat="49.20751" lon="6.6465">
        <ele>288</ele>
        <time>2020-02-22T10:18:32.000Z</time>
      </trkpt>
      <trkpt lat="49.20756" lon="6.64634">
        <ele>287</ele>
        <time>2020-02-22T10:18:42.000Z</time>
      </trkpt>
      <trkpt lat="49.2076" lon="6.64619">
        <ele>288</ele>
        <time>2020-02-22T10:18:52.000Z</time>
      </trkpt>
      <trkpt lat="49.20764" lon="6.64603">
        <ele>289</ele>
        <time>2020-02-22T10:19:02.000Z</time>
      </trkpt>
      <trkpt lat="49.20769" lon="6.64586">
        <ele>289</ele>
        <time>2020-02-22T10:19:12.000Z</time>
      </trkpt>
      <trkpt lat="49.20772" lon="6.64569">
        <ele>290</ele>
        <time>2020-02-22T10:19:22.000Z</time>
      </trkpt>
      <trkpt lat="49.20775" lon="6.64549">
        <ele>290</ele>
        <time>2020-02-22T10:19:32.000Z</time>
      </trkpt>
      <trkpt lat="49.20779" lon="6.64531">
        <ele>289</ele>
        <time>2020-02-22T10:19:42.000Z</time>
      </trkpt>
      <trkpt lat="49.20786" lon="6.64512">
        <ele>289</ele>
        <time>2020-02-22T10:19:52.000Z</time>
      </trkpt>
      <trkpt lat="49.20796" lon="6.64491">
        <ele>290</ele>
        <time>2020-02-22T10:20:02.000Z</time>
      </trkpt>
      <trkpt lat="49.20805" lon="6.64473">
        <ele>290</ele>
        <time>2020-02-22T10:20:12.000Z</time>
      </trkpt>
      <trkpt lat="49.20816" lon="6.64456">
        <ele>291</ele>
        <time>2020-02-22T10:20:22.000Z</time>
      </trkpt>
      <trkpt lat="49.20828" lon="6.64442">
        <ele>291</ele>
        <time>2020-02-22T10:20:32.000Z</time>
      </trkpt>
      <trkpt lat="49.20839" lon="6.6443">
        <ele>288</ele>
        <time>2020-02-22T10:20:42.000Z</time>
      </trkpt>
      <trkpt lat="49.2085" lon="6.64415">
        <ele>292</ele>
        <time>2020-02-22T10:20:52.000Z</time>
      </trkpt>
      <trkpt lat="49.20857" lon="6.64401">
        <ele>291</ele>
        <time>2020-02-22T10:21:02.000Z</time>
      </trkpt>
      <trkpt lat="49.20862" lon="6.64386">
        <ele>291</ele>
        <time>2020-02-22T10:21:12.000Z</time>
      </trkpt>
      <trkpt lat="49.2087" lon="6.64369">
        <ele>292</ele>
        <time>2020-02-22T10:21:22.000Z</time>
      </trkpt>
      <trkpt lat="49.20879" lon="6.64353">
        <ele>292</ele>
        <time>2020-02-22T10:21:32.000Z</time>
      </trkpt>
      <trkpt lat="49.20888" lon="6.64336">
        <ele>291</ele>
        <time>2020-02-22T10:21:42.000Z</time>
      </trkpt>
      <trkpt lat="49.20898" lon="6.6432">
        <ele>295</ele>
        <time>2020-02-22T10:21:52.000Z</time>
      </trkpt>
      <trkpt lat="49.20906" lon="6.64305">
        <ele>296</ele>
        <time>2020-02-22T10:22:02.000Z</time>
      </trkpt>
      <trkpt lat="49.20914" lon="6.64289">
        <ele>297</ele>
        <time>2020-02-22T10:22:12.000Z</time>
      </trkpt>
      <trkpt lat="49.20922" lon="6.64273">
        <ele>289</ele>
        <time>2020-02-22T10:22:22.000Z</time>
      </trkpt>
      <trkpt lat="49.2093" lon="6.64264">
        <ele>289</ele>
        <time>2020-02-22T10:22:32.000Z</time>
      </trkpt>
      <trkpt lat="49.20934" lon="6.64258">
        <ele>289</ele>
        <time>2020-02-22T10:22:42.000Z</time>
      </trkpt>
      <trkpt lat="49.20939" lon="6.64246">
        <ele>293</ele>
        <time>2020-02-22T10:22:52.000Z</time>
      </trkpt>
      <trkpt lat="49.20945" lon="6.6423">
        <ele>291</ele>
        <time>2020-02-22T10:23:02.000Z</time>
      </trkpt>
      <trkpt lat="49.20951" lon="6.64203">
        <ele>291</ele>
        <time>2020-02-22T10:23:12.000Z</time>
      </trkpt>
      <trkpt lat="49.20957" lon="6.64188">
        <ele>291</ele>
        <time>2020-02-22T10:23:22.000Z</time>
      </trkpt>
      <trkpt lat="49.20962" lon="6.64175">
        <ele>290</ele>
        <time>2020-02-22T10:23:32.000Z</time>
      </trkpt>
      <trkpt lat="49.20965" lon="6.64163">
        <ele>294</ele>
        <time>2020-02-22T10:23:42.000Z</time>
      </trkpt>
      <trkpt lat="49.20966" lon="6.64162">
        <ele>294</ele>
        <time>2020-02-22T10:23:54.000Z</time>
      </trkpt>
      <trkpt lat="49.20969" lon="6.64148">
        <ele>294</ele>
        <time>2020-02-22T10:24:04.000Z</time>
      </trkpt>
      <trkpt lat="49.20974" lon="6.64129">
        <ele>294</ele>
        <time>2020-02-22T10:24:14.000Z</time>
      </trkpt>
      <trkpt lat="49.20982" lon="6.64111">
        <ele>294</ele>
        <time>2020-02-22T10:24:24.000Z</time>
      </trkpt>
      <trkpt lat="49.2099" lon="6.64094">
        <ele>293</ele>
        <time>2020-02-22T10:24:34.000Z</time>
      </trkpt>
      <trkpt lat="49.20997" lon="6.64081">
        <ele>293</ele>
        <time>2020-02-22T10:24:44.000Z</time>
      </trkpt>
      <trkpt lat="49.21" lon="6.64082">
        <ele>292</ele>
        <time>2020-02-22T10:24:54.000Z</time>
      </trkpt>
      <trkpt lat="49.21015" lon="6.64085">
        <ele>286</ele>
        <time>2020-02-22T10:25:04.000Z</time>
      </trkpt>
      <trkpt lat="49.21026" lon="6.64091">
        <ele>283</ele>
        <time>2020-02-22T10:25:14.000Z</time>
      </trkpt>
      <trkpt lat="49.21039" lon="6.64101">
        <ele>281</ele>
        <time>2020-02-22T10:25:24.000Z</time>
      </trkpt>
      <trkpt lat="49.2105" lon="6.64112">
        <ele>280</ele>
        <time>2020-02-22T10:25:34.000Z</time>
      </trkpt>
      <trkpt lat="49.2106" lon="6.64126">
        <ele>278</ele>
        <time>2020-02-22T10:25:44.000Z</time>
      </trkpt>
      <trkpt lat="49.21067" lon="6.64132">
        <ele>277</ele>
        <time>2020-02-22T10:25:54.000Z</time>
      </trkpt>
      <trkpt lat="49.21073" lon="6.64139">
        <ele>276</ele>
        <time>2020-02-22T10:26:04.000Z</time>
      </trkpt>
      <trkpt lat="49.21075" lon="6.64143">
        <ele>276</ele>
        <time>2020-02-22T10:26:14.000Z</time>
      </trkpt>
      <trkpt lat="49.21079" lon="6.64148">
        <ele>275</ele>
        <time>2020-02-22T10:26:24.000Z</time>
      </trkpt>
      <trkpt lat="49.21084" lon="6.64159">
        <ele>267</ele>
        <time>2020-02-22T10:26:34.000Z</time>
      </trkpt>
      <trkpt lat="49.21088" lon="6.64172">
        <ele>266</ele>
        <time>2020-02-22T10:26:44.000Z</time>
      </trkpt>
      <trkpt lat="49.21093" lon="6.64183">
        <ele>262</ele>
        <time>2020-02-22T10:26:54.000Z</time>
      </trkpt>
      <trkpt lat="49.21093" lon="6.64194">
        <ele>261</ele>
        <time>2020-02-22T10:27:04.000Z</time>
      </trkpt>
      <trkpt lat="49.21094" lon="6.64196">
        <ele>261</ele>
        <time>2020-02-22T10:27:14.000Z</time>
      </trkpt>
      <trkpt lat="49.21093" lon="6.64197">
        <ele>261</ele>
        <time>2020-02-22T10:28:36.000Z</time>
      </trkpt>
      <trkpt lat="49.21092" lon="6.64202">
        <ele>260</ele>
        <time>2020-02-22T10:28:46.000Z</time>
      </trkpt>
      <trkpt lat="49.21091" lon="6.64208">
        <ele>260</ele>
        <time>2020-02-22T10:28:56.000Z</time>
      </trkpt>
      <trkpt lat="49.21093" lon="6.64208">
        <ele>260</ele>
        <time>2020-02-22T10:29:45.000Z</time>
      </trkpt>
      <trkpt lat="49.21097" lon="6.64204">
        <ele>260</ele>
        <time>2020-02-22T10:29:55.000Z</time>
      </trkpt>
      <trkpt lat="49.21098" lon="6.64203">
        <ele>260</ele>
        <time>2020-02-22T10:30:13.000Z</time>
      </trkpt>
      <trkpt lat="49.211" lon="6.64204">
        <ele>259</ele>
        <time>2020-02-22T10:30:23.000Z</time>
      </trkpt>
      <trkpt lat="49.21103" lon="6.64206">
        <ele>259</ele>
        <time>2020-02-22T10:30:33.000Z</time>
      </trkpt>
      <trkpt lat="49.2111" lon="6.64216">
        <ele>258</ele>
        <time>2020-02-22T10:30:43.000Z</time>
      </trkpt>
      <trkpt lat="49.21109" lon="6.6422">
        <ele>258</ele>
        <time>2020-02-22T10:30:53.000Z</time>
      </trkpt>
      <trkpt lat="49.21109" lon="6.64221">
        <ele>258</ele>
        <time>2020-02-22T10:31:03.000Z</time>
      </trkpt>
      <trkpt lat="49.21111" lon="6.6423">
        <ele>258</ele>
        <time>2020-02-22T10:31:13.000Z</time>
      </trkpt>
      <trkpt lat="49.21112" lon="6.64235">
        <ele>258</ele>
        <time>2020-02-22T10:31:23.000Z</time>
      </trkpt>
      <trkpt lat="49.21112" lon="6.64236">
        <ele>258</ele>
        <time>2020-02-22T10:31:35.000Z</time>
      </trkpt>
      <trkpt lat="49.21113" lon="6.64237">
        <ele>258</ele>
        <time>2020-02-22T10:33:02.000Z</time>
      </trkpt>
      <trkpt lat="49.21115" lon="6.64242">
        <ele>258</ele>
        <time>2020-02-22T10:33:12.000Z</time>
      </trkpt>
      <trkpt lat="49.21114" lon="6.64241">
        <ele>258</ele>
        <time>2020-02-22T10:33:27.000Z</time>
      </trkpt>
      <trkpt lat="49.21111" lon="6.64236">
        <ele>258</ele>
        <time>2020-02-22T10:33:37.000Z</time>
      </trkpt>
      <trkpt lat="49.2111" lon="6.64233">
        <ele>258</ele>
        <time>2020-02-22T10:33:47.000Z</time>
      </trkpt>
      <trkpt lat="49.21109" lon="6.64228">
        <ele>258</ele>
        <time>2020-02-22T10:33:57.000Z</time>
      </trkpt>
      <trkpt lat="49.21106" lon="6.64221">
        <ele>259</ele>
        <time>2020-02-22T10:34:07.000Z</time>
      </trkpt>
      <trkpt lat="49.21105" lon="6.64217">
        <ele>259</ele>
        <time>2020-02-22T10:34:17.000Z</time>
      </trkpt>
      <trkpt lat="49.21101" lon="6.64203">
        <ele>260</ele>
        <time>2020-02-22T10:34:27.000Z</time>
      </trkpt>
      <trkpt lat="49.21097" lon="6.64189">
        <ele>261</ele>
        <time>2020-02-22T10:34:37.000Z</time>
      </trkpt>
      <trkpt lat="49.21094" lon="6.64172">
        <ele>264</ele>
        <time>2020-02-22T10:34:47.000Z</time>
      </trkpt>
      <trkpt lat="49.21092" lon="6.64155">
        <ele>265</ele>
        <time>2020-02-22T10:34:57.000Z</time>
      </trkpt>
      <trkpt lat="49.21092" lon="6.64137">
        <ele>264</ele>
        <time>2020-02-22T10:35:07.000Z</time>
      </trkpt>
      <trkpt lat="49.21092" lon="6.64118">
        <ele>265</ele>
        <time>2020-02-22T10:35:17.000Z</time>
      </trkpt>
      <trkpt lat="49.21095" lon="6.64092">
        <ele>269</ele>
        <time>2020-02-22T10:35:27.000Z</time>
      </trkpt>
      <trkpt lat="49.21094" lon="6.64076">
        <ele>272</ele>
        <time>2020-02-22T10:35:37.000Z</time>
      </trkpt>
      <trkpt lat="49.21089" lon="6.64064">
        <ele>271</ele>
        <time>2020-02-22T10:35:47.000Z</time>
      </trkpt>
      <trkpt lat="49.21084" lon="6.64052">
        <ele>271</ele>
        <time>2020-02-22T10:35:57.000Z</time>
      </trkpt>
      <trkpt lat="49.21079" lon="6.6404">
        <ele>282</ele>
        <time>2020-02-22T10:36:07.000Z</time>
      </trkpt>
      <trkpt lat="49.2107" lon="6.64029">
        <ele>282</ele>
        <time>2020-02-22T10:36:17.000Z</time>
      </trkpt>
      <trkpt lat="49.21065" lon="6.64018">
        <ele>282</ele>
        <time>2020-02-22T10:36:27.000Z</time>
      </trkpt>
      <trkpt lat="49.21064" lon="6.64003">
        <ele>281</ele>
        <time>2020-02-22T10:36:37.000Z</time>
      </trkpt>
      <trkpt lat="49.21063" lon="6.63985">
        <ele>285</ele>
        <time>2020-02-22T10:36:47.000Z</time>
      </trkpt>
      <trkpt lat="49.21063" lon="6.63968">
        <ele>287</ele>
        <time>2020-02-22T10:36:57.000Z</time>
      </trkpt>
      <trkpt lat="49.21062" lon="6.63955">
        <ele>288</ele>
        <time>2020-02-22T10:37:07.000Z</time>
      </trkpt>
      <trkpt lat="49.21056" lon="6.63961">
        <ele>288</ele>
        <time>2020-02-22T10:37:17.000Z</time>
      </trkpt>
      <trkpt lat="49.21053" lon="6.63962">
        <ele>288</ele>
        <time>2020-02-22T10:37:27.000Z</time>
      </trkpt>
      <trkpt lat="49.21052" lon="6.6396">
        <ele>288</ele>
        <time>2020-02-22T10:37:37.000Z</time>
      </trkpt>
      <trkpt lat="49.21049" lon="6.63954">
        <ele>289</ele>
        <time>2020-02-22T10:37:47.000Z</time>
      </trkpt>
      <trkpt lat="49.21044" lon="6.63952">
        <ele>290</ele>
        <time>2020-02-22T10:37:57.000Z</time>
      </trkpt>
      <trkpt lat="49.21043" lon="6.63951">
        <ele>290</ele>
        <time>2020-02-22T10:38:08.000Z</time>
      </trkpt>
      <trkpt lat="49.21043" lon="6.63947">
        <ele>290</ele>
        <time>2020-02-22T10:38:18.000Z</time>
      </trkpt>
      <trkpt lat="49.21045" lon="6.63944">
        <ele>290</ele>
        <time>2020-02-22T10:38:33.000Z</time>
      </trkpt>
      <trkpt lat="49.21046" lon="6.63943">
        <ele>290</ele>
        <time>2020-02-22T10:38:43.000Z</time>
      </trkpt>
      <trkpt lat="49.21046" lon="6.63941">
        <ele>290</ele>
        <time>2020-02-22T10:38:53.000Z</time>
      </trkpt>
      <trkpt lat="49.21045" lon="6.63938">
        <ele>290</ele>
        <time>2020-02-22T10:40:13.000Z</time>
      </trkpt>
      <trkpt lat="49.21038" lon="6.63936">
        <ele>291</ele>
        <time>2020-02-22T10:40:23.000Z</time>
      </trkpt>
      <trkpt lat="49.2104" lon="6.63936">
        <ele>290</ele>
        <time>2020-02-22T10:41:15.000Z</time>
      </trkpt>
      <trkpt lat="49.21037" lon="6.63941">
        <ele>291</ele>
        <time>2020-02-22T10:41:25.000Z</time>
      </trkpt>
      <trkpt lat="49.21034" lon="6.63948">
        <ele>291</ele>
        <time>2020-02-22T10:41:35.000Z</time>
      </trkpt>
      <trkpt lat="49.21022" lon="6.63957">
        <ele>292</ele>
        <time>2020-02-22T10:41:45.000Z</time>
      </trkpt>
      <trkpt lat="49.2101" lon="6.63961">
        <ele>293</ele>
        <time>2020-02-22T10:41:55.000Z</time>
      </trkpt>
      <trkpt lat="49.21003" lon="6.63961">
        <ele>293</ele>
        <time>2020-02-22T10:42:05.000Z</time>
      </trkpt>
      <trkpt lat="49.20996" lon="6.6396">
        <ele>304</ele>
        <time>2020-02-22T10:42:15.000Z</time>
      </trkpt>
      <trkpt lat="49.20993" lon="6.63957">
        <ele>304</ele>
        <time>2020-02-22T10:42:25.000Z</time>
      </trkpt>
      <trkpt lat="49.20992" lon="6.63954">
        <ele>304</ele>
        <time>2020-02-22T10:43:03.000Z</time>
      </trkpt>
      <trkpt lat="49.20988" lon="6.63948">
        <ele>304</ele>
        <time>2020-02-22T10:43:13.000Z</time>
      </trkpt>
      <trkpt lat="49.20983" lon="6.63943">
        <ele>305</ele>
        <time>2020-02-22T10:43:23.000Z</time>
      </trkpt>
      <trkpt lat="49.20976" lon="6.63938">
        <ele>305</ele>
        <time>2020-02-22T10:43:33.000Z</time>
      </trkpt>
      <trkpt lat="49.2097" lon="6.63932">
        <ele>306</ele>
        <time>2020-02-22T10:43:43.000Z</time>
      </trkpt>
      <trkpt lat="49.20961" lon="6.63924">
        <ele>307</ele>
        <time>2020-02-22T10:43:53.000Z</time>
      </trkpt>
      <trkpt lat="49.20956" lon="6.63919">
        <ele>307</ele>
        <time>2020-02-22T10:44:03.000Z</time>
      </trkpt>
      <trkpt lat="49.20955" lon="6.63918">
        <ele>308</ele>
        <time>2020-02-22T10:44:13.000Z</time>
      </trkpt>
      <trkpt lat="49.20954" lon="6.63916">
        <ele>309</ele>
        <time>2020-02-22T10:44:31.000Z</time>
      </trkpt>
      <trkpt lat="49.20953" lon="6.63904">
        <ele>309</ele>
        <time>2020-02-22T10:44:41.000Z</time>
      </trkpt>
      <trkpt lat="49.20952" lon="6.63899">
        <ele>310</ele>
        <time>2020-02-22T10:44:51.000Z</time>
      </trkpt>
      <trkpt lat="49.20951" lon="6.63894">
        <ele>310</ele>
        <time>2020-02-22T10:45:01.000Z</time>
      </trkpt>
      <trkpt lat="49.20951" lon="6.63893">
        <ele>310</ele>
        <time>2020-02-22T10:45:13.000Z</time>
      </trkpt>
      <trkpt lat="49.20946" lon="6.63888">
        <ele>310</ele>
        <time>2020-02-22T10:45:45.000Z</time>
      </trkpt>
      <trkpt lat="49.20937" lon="6.63888">
        <ele>311</ele>
        <time>2020-02-22T10:45:55.000Z</time>
      </trkpt>
      <trkpt lat="49.20933" lon="6.6389">
        <ele>311</ele>
        <time>2020-02-22T10:46:05.000Z</time>
      </trkpt>
      <trkpt lat="49.20931" lon="6.6389">
        <ele>311</ele>
        <time>2020-02-22T10:46:35.000Z</time>
      </trkpt>
      <trkpt lat="49.2093" lon="6.63889">
        <ele>311</ele>
        <time>2020-02-22T10:46:47.000Z</time>
      </trkpt>
      <trkpt lat="49.2093" lon="6.63888">
        <ele>311</ele>
        <time>2020-02-22T10:47:24.000Z</time>
      </trkpt>
      <trkpt lat="49.2093" lon="6.63887">
        <ele>311</ele>
        <time>2020-02-22T10:47:39.000Z</time>
      </trkpt>
      <trkpt lat="49.2093" lon="6.63885">
        <ele>311</ele>
        <time>2020-02-22T10:48:13.000Z</time>
      </trkpt>
      <trkpt lat="49.2093" lon="6.6388">
        <ele>311</ele>
        <time>2020-02-22T10:48:23.000Z</time>
      </trkpt>
      <trkpt lat="49.20931" lon="6.63878">
        <ele>311</ele>
        <time>2020-02-22T10:48:55.000Z</time>
      </trkpt>
      <trkpt lat="49.20931" lon="6.63869">
        <ele>311</ele>
        <time>2020-02-22T10:49:05.000Z</time>
      </trkpt>
      <trkpt lat="49.2093" lon="6.63867">
        <ele>311</ele>
        <time>2020-02-22T10:49:15.000Z</time>
      </trkpt>
      <trkpt lat="49.20929" lon="6.63865">
        <ele>311</ele>
        <time>2020-02-22T10:49:40.000Z</time>
      </trkpt>
      <trkpt lat="49.20931" lon="6.63864">
        <ele>311</ele>
        <time>2020-02-22T10:49:50.000Z</time>
      </trkpt>
      <trkpt lat="49.20932" lon="6.63865">
        <ele>311</ele>
        <time>2020-02-22T10:50:03.000Z</time>
      </trkpt>
      <trkpt lat="49.20937" lon="6.63864">
        <ele>311</ele>
        <time>2020-02-22T10:50:13.000Z</time>
      </trkpt>
      <trkpt lat="49.20945" lon="6.63864">
        <ele>310</ele>
        <time>2020-02-22T10:50:23.000Z</time>
      </trkpt>
      <trkpt lat="49.20947" lon="6.63863">
        <ele>310</ele>
        <time>2020-02-22T10:50:33.000Z</time>
      </trkpt>
      <trkpt lat="49.20948" lon="6.6386">
        <ele>310</ele>
        <time>2020-02-22T10:50:43.000Z</time>
      </trkpt>
      <trkpt lat="49.20949" lon="6.63858">
        <ele>310</ele>
        <time>2020-02-22T10:50:53.000Z</time>
      </trkpt>
      <trkpt lat="49.20954" lon="6.63849">
        <ele>310</ele>
        <time>2020-02-22T10:51:03.000Z</time>
      </trkpt>
      <trkpt lat="49.20965" lon="6.63837">
        <ele>309</ele>
        <time>2020-02-22T10:51:13.000Z</time>
      </trkpt>
      <trkpt lat="49.20974" lon="6.63828">
        <ele>312</ele>
        <time>2020-02-22T10:51:23.000Z</time>
      </trkpt>
      <trkpt lat="49.20984" lon="6.6382">
        <ele>311</ele>
        <time>2020-02-22T10:51:33.000Z</time>
      </trkpt>
      <trkpt lat="49.20995" lon="6.63813">
        <ele>311</ele>
        <time>2020-02-22T10:51:43.000Z</time>
      </trkpt>
      <trkpt lat="49.21001" lon="6.63811">
        <ele>307</ele>
        <time>2020-02-22T10:51:53.000Z</time>
      </trkpt>
      <trkpt lat="49.21003" lon="6.6381">
        <ele>306</ele>
        <time>2020-02-22T10:52:03.000Z</time>
      </trkpt>
      <trkpt lat="49.21014" lon="6.63813">
        <ele>306</ele>
        <time>2020-02-22T10:52:13.000Z</time>
      </trkpt>
      <trkpt lat="49.21018" lon="6.63814">
        <ele>306</ele>
        <time>2020-02-22T10:52:23.000Z</time>
      </trkpt>
      <trkpt lat="49.21026" lon="6.63814">
        <ele>305</ele>
        <time>2020-02-22T10:52:33.000Z</time>
      </trkpt>
      <trkpt lat="49.21028" lon="6.63814">
        <ele>305</ele>
        <time>2020-02-22T10:54:12.000Z</time>
      </trkpt>
      <trkpt lat="49.21044" lon="6.63816">
        <ele>303</ele>
        <time>2020-02-22T10:54:22.000Z</time>
      </trkpt>
      <trkpt lat="49.21053" lon="6.6381">
        <ele>303</ele>
        <time>2020-02-22T10:54:32.000Z</time>
      </trkpt>
      <trkpt lat="49.21059" lon="6.63801">
        <ele>303</ele>
        <time>2020-02-22T10:54:42.000Z</time>
      </trkpt>
      <trkpt lat="49.21065" lon="6.63786">
        <ele>303</ele>
        <time>2020-02-22T10:54:52.000Z</time>
      </trkpt>
      <trkpt lat="49.21071" lon="6.63772">
        <ele>303</ele>
        <time>2020-02-22T10:55:02.000Z</time>
      </trkpt>
      <trkpt lat="49.21078" lon="6.63764">
        <ele>302</ele>
        <time>2020-02-22T10:55:12.000Z</time>
      </trkpt>
      <trkpt lat="49.2109" lon="6.63753">
        <ele>297</ele>
        <time>2020-02-22T10:55:22.000Z</time>
      </trkpt>
      <trkpt lat="49.21099" lon="6.6374">
        <ele>299</ele>
        <time>2020-02-22T10:55:32.000Z</time>
      </trkpt>
      <trkpt lat="49.21109" lon="6.6372">
        <ele>298</ele>
        <time>2020-02-22T10:55:42.000Z</time>
      </trkpt>
      <trkpt lat="49.21117" lon="6.63704">
        <ele>299</ele>
        <time>2020-02-22T10:55:52.000Z</time>
      </trkpt>
      <trkpt lat="49.21123" lon="6.63686">
        <ele>299</ele>
        <time>2020-02-22T10:56:02.000Z</time>
      </trkpt>
      <trkpt lat="49.2113" lon="6.63668">
        <ele>299</ele>
        <time>2020-02-22T10:56:12.000Z</time>
      </trkpt>
      <trkpt lat="49.21138" lon="6.63652">
        <ele>305</ele>
        <time>2020-02-22T10:56:22.000Z</time>
      </trkpt>
      <trkpt lat="49.21152" lon="6.6364">
        <ele>305</ele>
        <time>2020-02-22T10:56:32.000Z</time>
      </trkpt>
      <trkpt lat="49.21166" lon="6.63635">
        <ele>305</ele>
        <time>2020-02-22T10:56:42.000Z</time>
      </trkpt>
      <trkpt lat="49.21183" lon="6.6363">
        <ele>299</ele>
        <time>2020-02-22T10:56:52.000Z</time>
      </trkpt>
      <trkpt lat="49.21192" lon="6.63627">
        <ele>299</ele>
        <time>2020-02-22T10:57:02.000Z</time>
      </trkpt>
      <trkpt lat="49.21201" lon="6.63624">
        <ele>299</ele>
        <time>2020-02-22T10:57:12.000Z</time>
      </trkpt>
      <trkpt lat="49.21209" lon="6.63624">
        <ele>298</ele>
        <time>2020-02-22T10:57:22.000Z</time>
      </trkpt>
      <trkpt lat="49.21225" lon="6.63626">
        <ele>297</ele>
        <time>2020-02-22T10:57:32.000Z</time>
      </trkpt>
      <trkpt lat="49.21257" lon="6.63639">
        <ele>288</ele>
        <time>2020-02-22T10:57:42.000Z</time>
      </trkpt>
      <trkpt lat="49.21279" lon="6.63652">
        <ele>287</ele>
        <time>2020-02-22T10:57:52.000Z</time>
      </trkpt>
      <trkpt lat="49.21294" lon="6.63659">
        <ele>286</ele>
        <time>2020-02-22T10:58:02.000Z</time>
      </trkpt>
      <trkpt lat="49.21304" lon="6.63664">
        <ele>284</ele>
        <time>2020-02-22T10:58:12.000Z</time>
      </trkpt>
      <trkpt lat="49.21303" lon="6.63668">
        <ele>278</ele>
        <time>2020-02-22T10:58:22.000Z</time>
      </trkpt>
      <trkpt lat="49.21307" lon="6.63693">
        <ele>277</ele>
        <time>2020-02-22T10:58:32.000Z</time>
      </trkpt>
      <trkpt lat="49.21318" lon="6.63716">
        <ele>276</ele>
        <time>2020-02-22T10:58:42.000Z</time>
      </trkpt>
      <trkpt lat="49.2133" lon="6.63727">
        <ele>275</ele>
        <time>2020-02-22T10:58:52.000Z</time>
      </trkpt>
      <trkpt lat="49.2134" lon="6.63732">
        <ele>272</ele>
        <time>2020-02-22T10:59:02.000Z</time>
      </trkpt>
      <trkpt lat="49.21344" lon="6.63735">
        <ele>272</ele>
        <time>2020-02-22T10:59:12.000Z</time>
      </trkpt>
      <trkpt lat="49.21346" lon="6.63737">
        <ele>272</ele>
        <time>2020-02-22T10:59:22.000Z</time>
      </trkpt>
      <trkpt lat="49.21357" lon="6.63754">
        <ele>270</ele>
        <time>2020-02-22T10:59:32.000Z</time>
      </trkpt>
      <trkpt lat="49.21364" lon="6.63753">
        <ele>270</ele>
        <time>2020-02-22T10:59:42.000Z</time>
      </trkpt>
      <trkpt lat="49.21375" lon="6.6375">
        <ele>271</ele>
        <time>2020-02-22T10:59:52.000Z</time>
      </trkpt>
      <trkpt lat="49.2138" lon="6.6375">
        <ele>271</ele>
        <time>2020-02-22T11:00:02.000Z</time>
      </trkpt>
      <trkpt lat="49.21396" lon="6.6375">
        <ele>271</ele>
        <time>2020-02-22T11:00:12.000Z</time>
      </trkpt>
      <trkpt lat="49.21414" lon="6.63751">
        <ele>269</ele>
        <time>2020-02-22T11:00:22.000Z</time>
      </trkpt>
      <trkpt lat="49.21429" lon="6.63747">
        <ele>269</ele>
        <time>2020-02-22T11:00:32.000Z</time>
      </trkpt>
      <trkpt lat="49.21445" lon="6.63742">
        <ele>269</ele>
        <time>2020-02-22T11:00:42.000Z</time>
      </trkpt>
      <trkpt lat="49.21456" lon="6.63733">
        <ele>269</ele>
        <time>2020-02-22T11:00:52.000Z</time>
      </trkpt>
      <trkpt lat="49.21466" lon="6.63725">
        <ele>269</ele>
        <time>2020-02-22T11:01:02.000Z</time>
      </trkpt>
      <trkpt lat="49.2147" lon="6.63725">
        <ele>269</ele>
        <time>2020-02-22T11:01:12.000Z</time>
      </trkpt>
      <trkpt lat="49.21473" lon="6.63723">
        <ele>269</ele>
        <time>2020-02-22T11:01:26.000Z</time>
      </trkpt>
      <trkpt lat="49.21472" lon="6.63722">
        <ele>269</ele>
        <time>2020-02-22T11:01:37.000Z</time>
      </trkpt>
      <trkpt lat="49.21472" lon="6.63725">
        <ele>269</ele>
        <time>2020-02-22T11:02:00.000Z</time>
      </trkpt>
      <trkpt lat="49.21471" lon="6.63728">
        <ele>269</ele>
        <time>2020-02-22T11:02:10.000Z</time>
      </trkpt>
      <trkpt lat="49.21471" lon="6.6373">
        <ele>269</ele>
        <time>2020-02-22T11:02:53.000Z</time>
      </trkpt>
      <trkpt lat="49.21464" lon="6.63745">
        <ele>269</ele>
        <time>2020-02-22T11:03:03.000Z</time>
      </trkpt>
      <trkpt lat="49.21462" lon="6.63758">
        <ele>266</ele>
        <time>2020-02-22T11:03:13.000Z</time>
      </trkpt>
      <trkpt lat="49.21456" lon="6.63775">
        <ele>266</ele>
        <time>2020-02-22T11:03:23.000Z</time>
      </trkpt>
      <trkpt lat="49.2145" lon="6.63789">
        <ele>266</ele>
        <time>2020-02-22T11:03:33.000Z</time>
      </trkpt>
      <trkpt lat="49.21435" lon="6.63809">
        <ele>266</ele>
        <time>2020-02-22T11:03:43.000Z</time>
      </trkpt>
      <trkpt lat="49.21424" lon="6.63822">
        <ele>266</ele>
        <time>2020-02-22T11:03:53.000Z</time>
      </trkpt>
      <trkpt lat="49.21416" lon="6.6383">
        <ele>267</ele>
        <time>2020-02-22T11:04:03.000Z</time>
      </trkpt>
      <trkpt lat="49.21397" lon="6.63838">
        <ele>267</ele>
        <time>2020-02-22T11:04:13.000Z</time>
      </trkpt>
      <trkpt lat="49.21381" lon="6.6384">
        <ele>267</ele>
        <time>2020-02-22T11:04:23.000Z</time>
      </trkpt>
      <trkpt lat="49.21366" lon="6.63839">
        <ele>267</ele>
        <time>2020-02-22T11:04:33.000Z</time>
      </trkpt>
      <trkpt lat="49.21351" lon="6.63835">
        <ele>268</ele>
        <time>2020-02-22T11:04:43.000Z</time>
      </trkpt>
      <trkpt lat="49.21337" lon="6.6383">
        <ele>269</ele>
        <time>2020-02-22T11:04:53.000Z</time>
      </trkpt>
      <trkpt lat="49.21322" lon="6.63824">
        <ele>270</ele>
        <time>2020-02-22T11:05:03.000Z</time>
      </trkpt>
      <trkpt lat="49.21308" lon="6.63819">
        <ele>270</ele>
        <time>2020-02-22T11:05:13.000Z</time>
      </trkpt>
      <trkpt lat="49.21295" lon="6.63815">
        <ele>271</ele>
        <time>2020-02-22T11:05:23.000Z</time>
      </trkpt>
      <trkpt lat="49.21282" lon="6.63811">
        <ele>271</ele>
        <time>2020-02-22T11:05:33.000Z</time>
      </trkpt>
      <trkpt lat="49.21272" lon="6.63812">
        <ele>270</ele>
        <time>2020-02-22T11:05:43.000Z</time>
      </trkpt>
      <trkpt lat="49.21265" lon="6.63816">
        <ele>270</ele>
        <time>2020-02-22T11:05:53.000Z</time>
      </trkpt>
      <trkpt lat="49.21266" lon="6.63818">
        <ele>270</ele>
        <time>2020-02-22T11:06:03.000Z</time>
      </trkpt>
      <trkpt lat="49.21266" lon="6.63812">
        <ele>270</ele>
        <time>2020-02-22T11:06:13.000Z</time>
      </trkpt>
      <trkpt lat="49.21267" lon="6.63804">
        <ele>271</ele>
        <time>2020-02-22T11:06:32.000Z</time>
      </trkpt>
      <trkpt lat="49.21267" lon="6.63803">
        <ele>271</ele>
        <time>2020-02-22T11:07:07.000Z</time>
      </trkpt>
      <trkpt lat="49.21273" lon="6.63805">
        <ele>271</ele>
        <time>2020-02-22T11:07:17.000Z</time>
      </trkpt>
      <trkpt lat="49.21278" lon="6.6381">
        <ele>271</ele>
        <time>2020-02-22T11:07:27.000Z</time>
      </trkpt>
      <trkpt lat="49.21293" lon="6.63826">
        <ele>270</ele>
        <time>2020-02-22T11:07:37.000Z</time>
      </trkpt>
      <trkpt lat="49.21319" lon="6.63847">
        <ele>269</ele>
        <time>2020-02-22T11:07:47.000Z</time>
      </trkpt>
      <trkpt lat="49.21331" lon="6.63856">
        <ele>269</ele>
        <time>2020-02-22T11:07:57.000Z</time>
      </trkpt>
      <trkpt lat="49.21347" lon="6.63864">
        <ele>267</ele>
        <time>2020-02-22T11:08:07.000Z</time>
      </trkpt>
      <trkpt lat="49.21358" lon="6.6387">
        <ele>267</ele>
        <time>2020-02-22T11:08:17.000Z</time>
      </trkpt>
      <trkpt lat="49.21379" lon="6.63879">
        <ele>266</ele>
        <time>2020-02-22T11:08:27.000Z</time>
      </trkpt>
      <trkpt lat="49.21396" lon="6.63884">
        <ele>266</ele>
        <time>2020-02-22T11:08:37.000Z</time>
      </trkpt>
      <trkpt lat="49.21409" lon="6.63887">
        <ele>265</ele>
        <time>2020-02-22T11:08:47.000Z</time>
      </trkpt>
      <trkpt lat="49.21419" lon="6.63889">
        <ele>261</ele>
        <time>2020-02-22T11:08:57.000Z</time>
      </trkpt>
      <trkpt lat="49.2143" lon="6.63886">
        <ele>260</ele>
        <time>2020-02-22T11:09:07.000Z</time>
      </trkpt>
      <trkpt lat="49.21443" lon="6.63884">
        <ele>260</ele>
        <time>2020-02-22T11:09:17.000Z</time>
      </trkpt>
      <trkpt lat="49.21459" lon="6.63881">
        <ele>259</ele>
        <time>2020-02-22T11:09:27.000Z</time>
      </trkpt>
      <trkpt lat="49.21473" lon="6.6388">
        <ele>258</ele>
        <time>2020-02-22T11:09:37.000Z</time>
      </trkpt>
      <trkpt lat="49.21487" lon="6.6388">
        <ele>257</ele>
        <time>2020-02-22T11:09:47.000Z</time>
      </trkpt>
      <trkpt lat="49.21501" lon="6.6388">
        <ele>251</ele>
        <time>2020-02-22T11:09:57.000Z</time>
      </trkpt>
      <trkpt lat="49.21515" lon="6.63875">
        <ele>251</ele>
        <time>2020-02-22T11:10:07.000Z</time>
      </trkpt>
      <trkpt lat="49.21524" lon="6.6387">
        <ele>251</ele>
        <time>2020-02-22T11:10:17.000Z</time>
      </trkpt>
      <trkpt lat="49.21534" lon="6.63869">
        <ele>251</ele>
        <time>2020-02-22T11:10:27.000Z</time>
      </trkpt>
      <trkpt lat="49.21542" lon="6.63877">
        <ele>250</ele>
        <time>2020-02-22T11:10:37.000Z</time>
      </trkpt>
      <trkpt lat="49.21547" lon="6.63879">
        <ele>249</ele>
        <time>2020-02-22T11:10:47.000Z</time>
      </trkpt>
      <trkpt lat="49.21561" lon="6.63882">
        <ele>248</ele>
        <time>2020-02-22T11:10:57.000Z</time>
      </trkpt>
      <trkpt lat="49.21571" lon="6.6388">
        <ele>248</ele>
        <time>2020-02-22T11:11:07.000Z</time>
      </trkpt>
      <trkpt lat="49.21582" lon="6.63875">
        <ele>249</ele>
        <time>2020-02-22T11:11:17.000Z</time>
      </trkpt>
      <trkpt lat="49.21592" lon="6.6387">
        <ele>244</ele>
        <time>2020-02-22T11:11:27.000Z</time>
      </trkpt>
      <trkpt lat="49.21616" lon="6.63863">
        <ele>244</ele>
        <time>2020-02-22T11:11:37.000Z</time>
      </trkpt>
      <trkpt lat="49.21624" lon="6.63861">
        <ele>244</ele>
        <time>2020-02-22T11:11:47.000Z</time>
      </trkpt>
      <trkpt lat="49.21636" lon="6.63858">
        <ele>243</ele>
        <time>2020-02-22T11:11:57.000Z</time>
      </trkpt>
      <trkpt lat="49.2164" lon="6.63858">
        <ele>243</ele>
        <time>2020-02-22T11:12:07.000Z</time>
      </trkpt>
      <trkpt lat="49.2165" lon="6.63856">
        <ele>243</ele>
        <time>2020-02-22T11:12:17.000Z</time>
      </trkpt>
      <trkpt lat="49.21656" lon="6.63853">
        <ele>243</ele>
        <time>2020-02-22T11:12:27.000Z</time>
      </trkpt>
      <trkpt lat="49.21666" lon="6.63834">
        <ele>244</ele>
        <time>2020-02-22T11:12:37.000Z</time>
      </trkpt>
      <trkpt lat="49.21676" lon="6.63823">
        <ele>244</ele>
        <time>2020-02-22T11:12:47.000Z</time>
      </trkpt>
      <trkpt lat="49.21685" lon="6.6382">
        <ele>244</ele>
        <time>2020-02-22T11:12:57.000Z</time>
      </trkpt>
      <trkpt lat="49.2169" lon="6.63819">
        <ele>244</ele>
        <time>2020-02-22T11:13:07.000Z</time>
      </trkpt>
      <trkpt lat="49.21696" lon="6.63818">
        <ele>243</ele>
        <time>2020-02-22T11:13:17.000Z</time>
      </trkpt>
      <trkpt lat="49.21703" lon="6.63817">
        <ele>243</ele>
        <time>2020-02-22T11:13:27.000Z</time>
      </trkpt>
      <trkpt lat="49.2172" lon="6.63816">
        <ele>242</ele>
        <time>2020-02-22T11:13:37.000Z</time>
      </trkpt>
      <trkpt lat="49.21729" lon="6.63815">
        <ele>242</ele>
        <time>2020-02-22T11:13:47.000Z</time>
      </trkpt>
      <trkpt lat="49.2173" lon="6.63815">
        <ele>242</ele>
        <time>2020-02-22T11:13:57.000Z</time>
      </trkpt>
      <trkpt lat="49.21733" lon="6.63816">
        <ele>241</ele>
        <time>2020-02-22T11:14:34.000Z</time>
      </trkpt>
      <trkpt lat="49.21735" lon="6.63817">
        <ele>241</ele>
        <time>2020-02-22T11:14:44.000Z</time>
      </trkpt>
      <trkpt lat="49.21744" lon="6.63821">
        <ele>240</ele>
        <time>2020-02-22T11:14:54.000Z</time>
      </trkpt>
      <trkpt lat="49.2176" lon="6.63818">
        <ele>238</ele>
        <time>2020-02-22T11:15:04.000Z</time>
      </trkpt>
      <trkpt lat="49.21766" lon="6.63817">
        <ele>238</ele>
        <time>2020-02-22T11:15:14.000Z</time>
      </trkpt>
      <trkpt lat="49.21781" lon="6.63823">
        <ele>238</ele>
        <time>2020-02-22T11:15:24.000Z</time>
      </trkpt>
      <trkpt lat="49.21806" lon="6.63833">
        <ele>238</ele>
        <time>2020-02-22T11:15:34.000Z</time>
      </trkpt>
      <trkpt lat="49.2182" lon="6.63829">
        <ele>238</ele>
        <time>2020-02-22T11:15:44.000Z</time>
      </trkpt>
      <trkpt lat="49.21831" lon="6.63826">
        <ele>237</ele>
        <time>2020-02-22T11:15:54.000Z</time>
      </trkpt>
      <trkpt lat="49.21836" lon="6.63827">
        <ele>236</ele>
        <time>2020-02-22T11:16:04.000Z</time>
      </trkpt>
      <trkpt lat="49.21837" lon="6.63827">
        <ele>236</ele>
        <time>2020-02-22T11:16:14.000Z</time>
      </trkpt>
      <trkpt lat="49.21837" lon="6.63828">
        <ele>236</ele>
        <time>2020-02-22T11:17:09.000Z</time>
      </trkpt>
      <trkpt lat="49.21835" lon="6.63829">
        <ele>236</ele>
        <time>2020-02-22T11:17:19.000Z</time>
      </trkpt>
      <trkpt lat="49.21838" lon="6.6384">
        <ele>235</ele>
        <time>2020-02-22T11:17:29.000Z</time>
      </trkpt>
      <trkpt lat="49.21853" lon="6.63849">
        <ele>233</ele>
        <time>2020-02-22T11:17:39.000Z</time>
      </trkpt>
      <trkpt lat="49.21863" lon="6.63839">
        <ele>232</ele>
        <time>2020-02-22T11:17:49.000Z</time>
      </trkpt>
      <trkpt lat="49.21864" lon="6.63836">
        <ele>232</ele>
        <time>2020-02-22T11:18:00.000Z</time>
      </trkpt>
      <trkpt lat="49.21863" lon="6.63838">
        <ele>232</ele>
        <time>2020-02-22T11:18:20.000Z</time>
      </trkpt>
      <trkpt lat="49.21855" lon="6.63846">
        <ele>233</ele>
        <time>2020-02-22T11:18:30.000Z</time>
      </trkpt>
      <trkpt lat="49.21849" lon="6.63853">
        <ele>233</ele>
        <time>2020-02-22T11:18:40.000Z</time>
      </trkpt>
      <trkpt lat="49.21843" lon="6.6386">
        <ele>233</ele>
        <time>2020-02-22T11:18:50.000Z</time>
      </trkpt>
      <trkpt lat="49.21842" lon="6.63861">
        <ele>233</ele>
        <time>2020-02-22T11:19:00.000Z</time>
      </trkpt>
      <trkpt lat="49.21854" lon="6.63822">
        <ele>234</ele>
        <time>2020-02-22T11:58:23.000Z</time>
      </trkpt>
      <trkpt lat="49.21853" lon="6.63822">
        <ele>235</ele>
        <time>2020-02-22T12:00:09.000Z</time>
      </trkpt>
      <trkpt lat="49.21831" lon="6.63841">
        <ele>237</ele>
        <time>2020-02-22T12:00:19.000Z</time>
      </trkpt>
      <trkpt lat="49.21816" lon="6.63851">
        <ele>236</ele>
        <time>2020-02-22T12:00:29.000Z</time>
      </trkpt>
      <trkpt lat="49.21804" lon="6.63855">
        <ele>236</ele>
        <time>2020-02-22T12:00:39.000Z</time>
      </trkpt>
      <trkpt lat="49.21793" lon="6.63857">
        <ele>236</ele>
        <time>2020-02-22T12:00:49.000Z</time>
      </trkpt>
      <trkpt lat="49.21782" lon="6.63859">
        <ele>236</ele>
        <time>2020-02-22T12:00:59.000Z</time>
      </trkpt>
      <trkpt lat="49.21768" lon="6.63863">
        <ele>236</ele>
        <time>2020-02-22T12:01:09.000Z</time>
      </trkpt>
      <trkpt lat="49.21756" lon="6.63864">
        <ele>236</ele>
        <time>2020-02-22T12:01:19.000Z</time>
      </trkpt>
      <trkpt lat="49.21744" lon="6.63863">
        <ele>237</ele>
        <time>2020-02-22T12:01:29.000Z</time>
      </trkpt>
      <trkpt lat="49.21733" lon="6.63862">
        <ele>237</ele>
        <time>2020-02-22T12:01:39.000Z</time>
      </trkpt>
      <trkpt lat="49.2172" lon="6.63862">
        <ele>238</ele>
        <time>2020-02-22T12:01:49.000Z</time>
      </trkpt>
      <trkpt lat="49.21709" lon="6.63864">
        <ele>238</ele>
        <time>2020-02-22T12:01:59.000Z</time>
      </trkpt>
      <trkpt lat="49.21699" lon="6.63867">
        <ele>238</ele>
        <time>2020-02-22T12:02:09.000Z</time>
      </trkpt>
      <trkpt lat="49.21686" lon="6.63866">
        <ele>239</ele>
        <time>2020-02-22T12:02:19.000Z</time>
      </trkpt>
      <trkpt lat="49.21673" lon="6.63867">
        <ele>239</ele>
        <time>2020-02-22T12:02:29.000Z</time>
      </trkpt>
      <trkpt lat="49.21661" lon="6.6387">
        <ele>242</ele>
        <time>2020-02-22T12:02:39.000Z</time>
      </trkpt>
      <trkpt lat="49.21648" lon="6.63869">
        <ele>242</ele>
        <time>2020-02-22T12:02:49.000Z</time>
      </trkpt>
      <trkpt lat="49.21635" lon="6.63856">
        <ele>243</ele>
        <time>2020-02-22T12:02:59.000Z</time>
      </trkpt>
      <trkpt lat="49.21625" lon="6.63846">
        <ele>245</ele>
        <time>2020-02-22T12:03:09.000Z</time>
      </trkpt>
      <trkpt lat="49.21615" lon="6.63837">
        <ele>246</ele>
        <time>2020-02-22T12:03:19.000Z</time>
      </trkpt>
      <trkpt lat="49.21606" lon="6.6383">
        <ele>252</ele>
        <time>2020-02-22T12:03:29.000Z</time>
      </trkpt>
      <trkpt lat="49.21598" lon="6.63824">
        <ele>252</ele>
        <time>2020-02-22T12:03:39.000Z</time>
      </trkpt>
      <trkpt lat="49.2159" lon="6.63816">
        <ele>253</ele>
        <time>2020-02-22T12:03:49.000Z</time>
      </trkpt>
      <trkpt lat="49.21582" lon="6.63809">
        <ele>257</ele>
        <time>2020-02-22T12:03:59.000Z</time>
      </trkpt>
      <trkpt lat="49.21573" lon="6.63797">
        <ele>258</ele>
        <time>2020-02-22T12:04:09.000Z</time>
      </trkpt>
      <trkpt lat="49.21561" lon="6.63783">
        <ele>259</ele>
        <time>2020-02-22T12:04:19.000Z</time>
      </trkpt>
      <trkpt lat="49.2155" lon="6.63773">
        <ele>260</ele>
        <time>2020-02-22T12:04:29.000Z</time>
      </trkpt>
      <trkpt lat="49.2154" lon="6.63762">
        <ele>261</ele>
        <time>2020-02-22T12:04:39.000Z</time>
      </trkpt>
      <trkpt lat="49.21537" lon="6.63749">
        <ele>265</ele>
        <time>2020-02-22T12:04:49.000Z</time>
      </trkpt>
      <trkpt lat="49.21536" lon="6.63747">
        <ele>266</ele>
        <time>2020-02-22T12:05:14.000Z</time>
      </trkpt>
      <trkpt lat="49.21527" lon="6.63739">
        <ele>266</ele>
        <time>2020-02-22T12:05:24.000Z</time>
      </trkpt>
      <trkpt lat="49.21518" lon="6.63731">
        <ele>267</ele>
        <time>2020-02-22T12:05:34.000Z</time>
      </trkpt>
      <trkpt lat="49.21509" lon="6.63729">
        <ele>267</ele>
        <time>2020-02-22T12:05:44.000Z</time>
      </trkpt>
      <trkpt lat="49.21504" lon="6.63729">
        <ele>267</ele>
        <time>2020-02-22T12:05:54.000Z</time>
      </trkpt>
      <trkpt lat="49.21499" lon="6.63725">
        <ele>269</ele>
        <time>2020-02-22T12:06:04.000Z</time>
      </trkpt>
      <trkpt lat="49.21488" lon="6.63729">
        <ele>269</ele>
        <time>2020-02-22T12:06:14.000Z</time>
      </trkpt>
      <trkpt lat="49.21481" lon="6.63729">
        <ele>269</ele>
        <time>2020-02-22T12:06:24.000Z</time>
      </trkpt>
      <trkpt lat="49.21474" lon="6.6373">
        <ele>269</ele>
        <time>2020-02-22T12:06:34.000Z</time>
      </trkpt>
      <trkpt lat="49.21464" lon="6.63727">
        <ele>269</ele>
        <time>2020-02-22T12:06:44.000Z</time>
      </trkpt>
      <trkpt lat="49.21456" lon="6.6372">
        <ele>269</ele>
        <time>2020-02-22T12:06:54.000Z</time>
      </trkpt>
      <trkpt lat="49.21446" lon="6.63715">
        <ele>269</ele>
        <time>2020-02-22T12:07:04.000Z</time>
      </trkpt>
      <trkpt lat="49.21442" lon="6.63712">
        <ele>270</ele>
        <time>2020-02-22T12:07:14.000Z</time>
      </trkpt>
      <trkpt lat="49.2144" lon="6.6371">
        <ele>270</ele>
        <time>2020-02-22T12:07:24.000Z</time>
      </trkpt>
      <trkpt lat="49.21438" lon="6.63708">
        <ele>270</ele>
        <time>2020-02-22T12:07:49.000Z</time>
      </trkpt>
      <trkpt lat="49.2143" lon="6.637">
        <ele>270</ele>
        <time>2020-02-22T12:07:59.000Z</time>
      </trkpt>
      <trkpt lat="49.21423" lon="6.63693">
        <ele>270</ele>
        <time>2020-02-22T12:08:09.000Z</time>
      </trkpt>
      <trkpt lat="49.21421" lon="6.6369">
        <ele>270</ele>
        <time>2020-02-22T12:08:19.000Z</time>
      </trkpt>
      <trkpt lat="49.21419" lon="6.63687">
        <ele>270</ele>
        <time>2020-02-22T12:08:29.000Z</time>
      </trkpt>
      <trkpt lat="49.21417" lon="6.63684">
        <ele>270</ele>
        <time>2020-02-22T12:08:39.000Z</time>
      </trkpt>
      <trkpt lat="49.2141" lon="6.63676">
        <ele>271</ele>
        <time>2020-02-22T12:08:49.000Z</time>
      </trkpt>
      <trkpt lat="49.21408" lon="6.63673">
        <ele>271</ele>
        <time>2020-02-22T12:08:59.000Z</time>
      </trkpt>
      <trkpt lat="49.21402" lon="6.6366">
        <ele>276</ele>
        <time>2020-02-22T12:09:09.000Z</time>
      </trkpt>
      <trkpt lat="49.21401" lon="6.63656">
        <ele>277</ele>
        <time>2020-02-22T12:09:19.000Z</time>
      </trkpt>
      <trkpt lat="49.21396" lon="6.63651">
        <ele>278</ele>
        <time>2020-02-22T12:09:29.000Z</time>
      </trkpt>
      <trkpt lat="49.21392" lon="6.63645">
        <ele>279</ele>
        <time>2020-02-22T12:09:39.000Z</time>
      </trkpt>
      <trkpt lat="49.21391" lon="6.63644">
        <ele>280</ele>
        <time>2020-02-22T12:09:49.000Z</time>
      </trkpt>
      <trkpt lat="49.21391" lon="6.63642">
        <ele>280</ele>
        <time>2020-02-22T12:10:02.000Z</time>
      </trkpt>
      <trkpt lat="49.21392" lon="6.6363">
        <ele>281</ele>
        <time>2020-02-22T12:10:12.000Z</time>
      </trkpt>
      <trkpt lat="49.21392" lon="6.63607">
        <ele>284</ele>
        <time>2020-02-22T12:10:22.000Z</time>
      </trkpt>
      <trkpt lat="49.21393" lon="6.63596">
        <ele>285</ele>
        <time>2020-02-22T12:10:32.000Z</time>
      </trkpt>
      <trkpt lat="49.21392" lon="6.63594">
        <ele>285</ele>
        <time>2020-02-22T12:10:42.000Z</time>
      </trkpt>
      <trkpt lat="49.21391" lon="6.63592">
        <ele>285</ele>
        <time>2020-02-22T12:11:16.000Z</time>
      </trkpt>
      <trkpt lat="49.21384" lon="6.63585">
        <ele>286</ele>
        <time>2020-02-22T12:11:26.000Z</time>
      </trkpt>
      <trkpt lat="49.21383" lon="6.63582">
        <ele>297</ele>
        <time>2020-02-22T12:11:36.000Z</time>
      </trkpt>
      <trkpt lat="49.2138" lon="6.63586">
        <ele>286</ele>
        <time>2020-02-22T12:11:55.000Z</time>
      </trkpt>
      <trkpt lat="49.2138" lon="6.63607">
        <ele>284</ele>
        <time>2020-02-22T12:13:06.000Z</time>
      </trkpt>
      <trkpt lat="49.2138" lon="6.6361">
        <ele>284</ele>
        <time>2020-02-22T12:13:16.000Z</time>
      </trkpt>
      <trkpt lat="49.21381" lon="6.63604">
        <ele>284</ele>
        <time>2020-02-22T12:13:31.000Z</time>
      </trkpt>
      <trkpt lat="49.21384" lon="6.63598">
        <ele>285</ele>
        <time>2020-02-22T12:13:41.000Z</time>
      </trkpt>
      <trkpt lat="49.21384" lon="6.63597">
        <ele>285</ele>
        <time>2020-02-22T12:14:57.000Z</time>
      </trkpt>
      <trkpt lat="49.21383" lon="6.63597">
        <ele>285</ele>
        <time>2020-02-22T12:15:45.000Z</time>
      </trkpt>
      <trkpt lat="49.21366" lon="6.63596">
        <ele>286</ele>
        <time>2020-02-22T12:15:55.000Z</time>
      </trkpt>
      <trkpt lat="49.21357" lon="6.63594">
        <ele>287</ele>
        <time>2020-02-22T12:16:05.000Z</time>
      </trkpt>
      <trkpt lat="49.21352" lon="6.6359">
        <ele>288</ele>
        <time>2020-02-22T12:16:15.000Z</time>
      </trkpt>
      <trkpt lat="49.21346" lon="6.63583">
        <ele>297</ele>
        <time>2020-02-22T12:16:25.000Z</time>
      </trkpt>
      <trkpt lat="49.21344" lon="6.6358">
        <ele>297</ele>
        <time>2020-02-22T12:16:35.000Z</time>
      </trkpt>
      <trkpt lat="49.21337" lon="6.63567">
        <ele>298</ele>
        <time>2020-02-22T12:16:45.000Z</time>
      </trkpt>
      <trkpt lat="49.21333" lon="6.63559">
        <ele>301</ele>
        <time>2020-02-22T12:16:55.000Z</time>
      </trkpt>
      <trkpt lat="49.21332" lon="6.63555">
        <ele>302</ele>
        <time>2020-02-22T12:17:05.000Z</time>
      </trkpt>
      <trkpt lat="49.21331" lon="6.63552">
        <ele>303</ele>
        <time>2020-02-22T12:17:15.000Z</time>
      </trkpt>
      <trkpt lat="49.21328" lon="6.63539">
        <ele>305</ele>
        <time>2020-02-22T12:17:25.000Z</time>
      </trkpt>
      <trkpt lat="49.21331" lon="6.63518">
        <ele>308</ele>
        <time>2020-02-22T12:17:35.000Z</time>
      </trkpt>
      <trkpt lat="49.21332" lon="6.63515">
        <ele>308</ele>
        <time>2020-02-22T12:17:45.000Z</time>
      </trkpt>
      <trkpt lat="49.21332" lon="6.63513">
        <ele>309</ele>
        <time>2020-02-22T12:17:55.000Z</time>
      </trkpt>
      <trkpt lat="49.21332" lon="6.63511">
        <ele>309</ele>
        <time>2020-02-22T12:18:05.000Z</time>
      </trkpt>
      <trkpt lat="49.21329" lon="6.63508">
        <ele>310</ele>
        <time>2020-02-22T12:18:15.000Z</time>
      </trkpt>
      <trkpt lat="49.21326" lon="6.63506">
        <ele>310</ele>
        <time>2020-02-22T12:18:25.000Z</time>
      </trkpt>
      <trkpt lat="49.21316" lon="6.63494">
        <ele>314</ele>
        <time>2020-02-22T12:18:35.000Z</time>
      </trkpt>
      <trkpt lat="49.21311" lon="6.63489">
        <ele>314</ele>
        <time>2020-02-22T12:18:45.000Z</time>
      </trkpt>
      <trkpt lat="49.21308" lon="6.63489">
        <ele>314</ele>
        <time>2020-02-22T12:18:55.000Z</time>
      </trkpt>
      <trkpt lat="49.21306" lon="6.63489">
        <ele>314</ele>
        <time>2020-02-22T12:19:05.000Z</time>
      </trkpt>
      <trkpt lat="49.21305" lon="6.63489">
        <ele>314</ele>
        <time>2020-02-22T12:19:18.000Z</time>
      </trkpt>
      <trkpt lat="49.21301" lon="6.63486">
        <ele>314</ele>
        <time>2020-02-22T12:19:28.000Z</time>
      </trkpt>
      <trkpt lat="49.213" lon="6.63486">
        <ele>314</ele>
        <time>2020-02-22T12:19:38.000Z</time>
      </trkpt>
      <trkpt lat="49.21297" lon="6.63478">
        <ele>315</ele>
        <time>2020-02-22T12:20:08.000Z</time>
      </trkpt>
      <trkpt lat="49.21296" lon="6.63473">
        <ele>315</ele>
        <time>2020-02-22T12:20:18.000Z</time>
      </trkpt>
      <trkpt lat="49.21296" lon="6.63471">
        <ele>315</ele>
        <time>2020-02-22T12:20:28.000Z</time>
      </trkpt>
      <trkpt lat="49.21295" lon="6.63472">
        <ele>315</ele>
        <time>2020-02-22T12:22:45.000Z</time>
      </trkpt>
      <trkpt lat="49.21293" lon="6.63473">
        <ele>315</ele>
        <time>2020-02-22T12:22:57.000Z</time>
      </trkpt>
      <trkpt lat="49.21293" lon="6.63475">
        <ele>315</ele>
        <time>2020-02-22T12:23:42.000Z</time>
      </trkpt>
      <trkpt lat="49.21291" lon="6.63479">
        <ele>315</ele>
        <time>2020-02-22T12:24:28.000Z</time>
      </trkpt>
      <trkpt lat="49.2129" lon="6.63483">
        <ele>315</ele>
        <time>2020-02-22T12:24:38.000Z</time>
      </trkpt>
      <trkpt lat="49.2129" lon="6.63484">
        <ele>315</ele>
        <time>2020-02-22T12:24:56.000Z</time>
      </trkpt>
      <trkpt lat="49.21289" lon="6.63484">
        <ele>315</ele>
        <time>2020-02-22T12:25:12.000Z</time>
      </trkpt>
      <trkpt lat="49.21281" lon="6.63483">
        <ele>315</ele>
        <time>2020-02-22T12:25:22.000Z</time>
      </trkpt>
      <trkpt lat="49.21278" lon="6.63476">
        <ele>315</ele>
        <time>2020-02-22T12:25:32.000Z</time>
      </trkpt>
      <trkpt lat="49.21276" lon="6.63469">
        <ele>315</ele>
        <time>2020-02-22T12:25:42.000Z</time>
      </trkpt>
      <trkpt lat="49.21277" lon="6.63465">
        <ele>315</ele>
        <time>2020-02-22T12:25:52.000Z</time>
      </trkpt>
      <trkpt lat="49.21277" lon="6.63462">
        <ele>315</ele>
        <time>2020-02-22T12:26:08.000Z</time>
      </trkpt>
      <trkpt lat="49.21276" lon="6.6346">
        <ele>315</ele>
        <time>2020-02-22T12:26:18.000Z</time>
      </trkpt>
      <trkpt lat="49.21272" lon="6.63456">
        <ele>315</ele>
        <time>2020-02-22T12:26:28.000Z</time>
      </trkpt>
      <trkpt lat="49.21267" lon="6.63451">
        <ele>316</ele>
        <time>2020-02-22T12:26:38.000Z</time>
      </trkpt>
      <trkpt lat="49.21263" lon="6.63446">
        <ele>316</ele>
        <time>2020-02-22T12:26:48.000Z</time>
      </trkpt>
      <trkpt lat="49.21262" lon="6.63445">
        <ele>316</ele>
        <time>2020-02-22T12:26:59.000Z</time>
      </trkpt>
      <trkpt lat="49.21252" lon="6.63432">
        <ele>317</ele>
        <time>2020-02-22T12:27:09.000Z</time>
      </trkpt>
      <trkpt lat="49.21245" lon="6.63427">
        <ele>316</ele>
        <time>2020-02-22T12:27:19.000Z</time>
      </trkpt>
      <trkpt lat="49.21241" lon="6.63424">
        <ele>316</ele>
        <time>2020-02-22T12:27:29.000Z</time>
      </trkpt>
      <trkpt lat="49.21234" lon="6.63418">
        <ele>316</ele>
        <time>2020-02-22T12:27:39.000Z</time>
      </trkpt>
      <trkpt lat="49.21228" lon="6.63411">
        <ele>314</ele>
        <time>2020-02-22T12:27:49.000Z</time>
      </trkpt>
      <trkpt lat="49.21218" lon="6.63401">
        <ele>313</ele>
        <time>2020-02-22T12:27:59.000Z</time>
      </trkpt>
      <trkpt lat="49.21205" lon="6.63385">
        <ele>311</ele>
        <time>2020-02-22T12:28:09.000Z</time>
      </trkpt>
      <trkpt lat="49.21197" lon="6.63368">
        <ele>311</ele>
        <time>2020-02-22T12:28:19.000Z</time>
      </trkpt>
      <trkpt lat="49.21188" lon="6.63358">
        <ele>310</ele>
        <time>2020-02-22T12:28:29.000Z</time>
      </trkpt>
      <trkpt lat="49.21181" lon="6.6335">
        <ele>310</ele>
        <time>2020-02-22T12:28:39.000Z</time>
      </trkpt>
      <trkpt lat="49.21178" lon="6.63344">
        <ele>309</ele>
        <time>2020-02-22T12:28:49.000Z</time>
      </trkpt>
      <trkpt lat="49.21171" lon="6.63335">
        <ele>308</ele>
        <time>2020-02-22T12:28:59.000Z</time>
      </trkpt>
      <trkpt lat="49.21161" lon="6.63322">
        <ele>310</ele>
        <time>2020-02-22T12:29:09.000Z</time>
      </trkpt>
      <trkpt lat="49.21152" lon="6.6331">
        <ele>311</ele>
        <time>2020-02-22T12:29:19.000Z</time>
      </trkpt>
      <trkpt lat="49.21143" lon="6.63303">
        <ele>312</ele>
        <time>2020-02-22T12:29:29.000Z</time>
      </trkpt>
      <trkpt lat="49.21136" lon="6.63299">
        <ele>313</ele>
        <time>2020-02-22T12:29:39.000Z</time>
      </trkpt>
      <trkpt lat="49.21131" lon="6.63291">
        <ele>313</ele>
        <time>2020-02-22T12:29:49.000Z</time>
      </trkpt>
      <trkpt lat="49.21126" lon="6.63287">
        <ele>314</ele>
        <time>2020-02-22T12:29:59.000Z</time>
      </trkpt>
      <trkpt lat="49.2111" lon="6.63278">
        <ele>315</ele>
        <time>2020-02-22T12:30:09.000Z</time>
      </trkpt>
      <trkpt lat="49.21099" lon="6.63272">
        <ele>316</ele>
        <time>2020-02-22T12:30:19.000Z</time>
      </trkpt>
      <trkpt lat="49.21094" lon="6.63258">
        <ele>318</ele>
        <time>2020-02-22T12:30:29.000Z</time>
      </trkpt>
      <trkpt lat="49.21088" lon="6.63248">
        <ele>321</ele>
        <time>2020-02-22T12:30:39.000Z</time>
      </trkpt>
      <trkpt lat="49.21079" lon="6.63236">
        <ele>324</ele>
        <time>2020-02-22T12:30:49.000Z</time>
      </trkpt>
      <trkpt lat="49.21069" lon="6.6323">
        <ele>325</ele>
        <time>2020-02-22T12:30:59.000Z</time>
      </trkpt>
      <trkpt lat="49.21062" lon="6.63217">
        <ele>326</ele>
        <time>2020-02-22T12:31:09.000Z</time>
      </trkpt>
      <trkpt lat="49.21053" lon="6.63201">
        <ele>326</ele>
        <time>2020-02-22T12:31:19.000Z</time>
      </trkpt>
      <trkpt lat="49.21043" lon="6.63199">
        <ele>327</ele>
        <time>2020-02-22T12:31:29.000Z</time>
      </trkpt>
      <trkpt lat="49.2103" lon="6.63193">
        <ele>328</ele>
        <time>2020-02-22T12:31:39.000Z</time>
      </trkpt>
      <trkpt lat="49.21024" lon="6.63184">
        <ele>328</ele>
        <time>2020-02-22T12:31:49.000Z</time>
      </trkpt>
      <trkpt lat="49.21015" lon="6.63173">
        <ele>329</ele>
        <time>2020-02-22T12:31:59.000Z</time>
      </trkpt>
      <trkpt lat="49.21001" lon="6.63159">
        <ele>330</ele>
        <time>2020-02-22T12:32:09.000Z</time>
      </trkpt>
      <trkpt lat="49.2099" lon="6.63151">
        <ele>332</ele>
        <time>2020-02-22T12:32:19.000Z</time>
      </trkpt>
      <trkpt lat="49.20985" lon="6.63154">
        <ele>332</ele>
        <time>2020-02-22T12:32:29.000Z</time>
      </trkpt>
      <trkpt lat="49.20982" lon="6.63153">
        <ele>332</ele>
        <time>2020-02-22T12:32:39.000Z</time>
      </trkpt>
      <trkpt lat="49.20977" lon="6.63155">
        <ele>332</ele>
        <time>2020-02-22T12:32:49.000Z</time>
      </trkpt>
      <trkpt lat="49.20967" lon="6.63157">
        <ele>332</ele>
        <time>2020-02-22T12:32:59.000Z</time>
      </trkpt>
      <trkpt lat="49.20955" lon="6.63162">
        <ele>333</ele>
        <time>2020-02-22T12:33:09.000Z</time>
      </trkpt>
      <trkpt lat="49.2094" lon="6.63165">
        <ele>333</ele>
        <time>2020-02-22T12:33:19.000Z</time>
      </trkpt>
      <trkpt lat="49.20927" lon="6.63163">
        <ele>334</ele>
        <time>2020-02-22T12:33:29.000Z</time>
      </trkpt>
      <trkpt lat="49.20911" lon="6.6316">
        <ele>335</ele>
        <time>2020-02-22T12:33:39.000Z</time>
      </trkpt>
      <trkpt lat="49.209" lon="6.63158">
        <ele>334</ele>
        <time>2020-02-22T12:33:49.000Z</time>
      </trkpt>
      <trkpt lat="49.20891" lon="6.63157">
        <ele>334</ele>
        <time>2020-02-22T12:33:59.000Z</time>
      </trkpt>
      <trkpt lat="49.20886" lon="6.63158">
        <ele>334</ele>
        <time>2020-02-22T12:34:09.000Z</time>
      </trkpt>
      <trkpt lat="49.20881" lon="6.63154">
        <ele>334</ele>
        <time>2020-02-22T12:34:19.000Z</time>
      </trkpt>
      <trkpt lat="49.20873" lon="6.63151">
        <ele>334</ele>
        <time>2020-02-22T12:34:29.000Z</time>
      </trkpt>
      <trkpt lat="49.20854" lon="6.63146">
        <ele>334</ele>
        <time>2020-02-22T12:34:39.000Z</time>
      </trkpt>
      <trkpt lat="49.20837" lon="6.63134">
        <ele>334</ele>
        <time>2020-02-22T12:34:49.000Z</time>
      </trkpt>
      <trkpt lat="49.20822" lon="6.63129">
        <ele>332</ele>
        <time>2020-02-22T12:34:59.000Z</time>
      </trkpt>
      <trkpt lat="49.20811" lon="6.63129">
        <ele>332</ele>
        <time>2020-02-22T12:35:09.000Z</time>
      </trkpt>
      <trkpt lat="49.20804" lon="6.6313">
        <ele>332</ele>
        <time>2020-02-22T12:35:19.000Z</time>
      </trkpt>
      <trkpt lat="49.20799" lon="6.63132">
        <ele>332</ele>
        <time>2020-02-22T12:35:29.000Z</time>
      </trkpt>
      <trkpt lat="49.20799" lon="6.63133">
        <ele>332</ele>
        <time>2020-02-22T12:35:39.000Z</time>
      </trkpt>
      <trkpt lat="49.20796" lon="6.63131">
        <ele>332</ele>
        <time>2020-02-22T12:35:49.000Z</time>
      </trkpt>
      <trkpt lat="49.20777" lon="6.63136">
        <ele>331</ele>
        <time>2020-02-22T12:35:59.000Z</time>
      </trkpt>
      <trkpt lat="49.20758" lon="6.63136">
        <ele>331</ele>
        <time>2020-02-22T12:36:09.000Z</time>
      </trkpt>
      <trkpt lat="49.20751" lon="6.63138">
        <ele>331</ele>
        <time>2020-02-22T12:36:19.000Z</time>
      </trkpt>
      <trkpt lat="49.20742" lon="6.63139">
        <ele>328</ele>
        <time>2020-02-22T12:36:29.000Z</time>
      </trkpt>
      <trkpt lat="49.20732" lon="6.63143">
        <ele>328</ele>
        <time>2020-02-22T12:36:39.000Z</time>
      </trkpt>
      <trkpt lat="49.20718" lon="6.63144">
        <ele>327</ele>
        <time>2020-02-22T12:36:49.000Z</time>
      </trkpt>
      <trkpt lat="49.20701" lon="6.63146">
        <ele>326</ele>
        <time>2020-02-22T12:36:59.000Z</time>
      </trkpt>
      <trkpt lat="49.20693" lon="6.63145">
        <ele>326</ele>
        <time>2020-02-22T12:37:09.000Z</time>
      </trkpt>
      <trkpt lat="49.20691" lon="6.63143">
        <ele>325</ele>
        <time>2020-02-22T12:37:19.000Z</time>
      </trkpt>
      <trkpt lat="49.20689" lon="6.63142">
        <ele>325</ele>
        <time>2020-02-22T12:37:30.000Z</time>
      </trkpt>
      <trkpt lat="49.20674" lon="6.6314">
        <ele>325</ele>
        <time>2020-02-22T12:37:40.000Z</time>
      </trkpt>
      <trkpt lat="49.20655" lon="6.63135">
        <ele>320</ele>
        <time>2020-02-22T12:37:50.000Z</time>
      </trkpt>
      <trkpt lat="49.20638" lon="6.63126">
        <ele>319</ele>
        <time>2020-02-22T12:38:00.000Z</time>
      </trkpt>
      <trkpt lat="49.20624" lon="6.63115">
        <ele>318</ele>
        <time>2020-02-22T12:38:10.000Z</time>
      </trkpt>
      <trkpt lat="49.20611" lon="6.63105">
        <ele>318</ele>
        <time>2020-02-22T12:38:20.000Z</time>
      </trkpt>
      <trkpt lat="49.206" lon="6.63093">
        <ele>317</ele>
        <time>2020-02-22T12:38:30.000Z</time>
      </trkpt>
      <trkpt lat="49.20589" lon="6.63082">
        <ele>317</ele>
        <time>2020-02-22T12:38:40.000Z</time>
      </trkpt>
      <trkpt lat="49.20578" lon="6.63075">
        <ele>316</ele>
        <time>2020-02-22T12:38:50.000Z</time>
      </trkpt>
      <trkpt lat="49.20566" lon="6.63068">
        <ele>316</ele>
        <time>2020-02-22T12:39:00.000Z</time>
      </trkpt>
      <trkpt lat="49.20556" lon="6.6306">
        <ele>316</ele>
        <time>2020-02-22T12:39:10.000Z</time>
      </trkpt>
      <trkpt lat="49.20545" lon="6.63051">
        <ele>315</ele>
        <time>2020-02-22T12:39:20.000Z</time>
      </trkpt>
      <trkpt lat="49.20533" lon="6.63043">
        <ele>315</ele>
        <time>2020-02-22T12:39:30.000Z</time>
      </trkpt>
      <trkpt lat="49.2052" lon="6.63033">
        <ele>315</ele>
        <time>2020-02-22T12:39:40.000Z</time>
      </trkpt>
      <trkpt lat="49.20507" lon="6.63024">
        <ele>315</ele>
        <time>2020-02-22T12:39:50.000Z</time>
      </trkpt>
      <trkpt lat="49.20496" lon="6.63015">
        <ele>314</ele>
        <time>2020-02-22T12:40:00.000Z</time>
      </trkpt>
      <trkpt lat="49.20483" lon="6.63005">
        <ele>314</ele>
        <time>2020-02-22T12:40:10.000Z</time>
      </trkpt>
      <trkpt lat="49.20472" lon="6.62997">
        <ele>315</ele>
        <time>2020-02-22T12:40:20.000Z</time>
      </trkpt>
      <trkpt lat="49.2046" lon="6.62988">
        <ele>315</ele>
        <time>2020-02-22T12:40:30.000Z</time>
      </trkpt>
      <trkpt lat="49.20448" lon="6.6298">
        <ele>315</ele>
        <time>2020-02-22T12:40:40.000Z</time>
      </trkpt>
      <trkpt lat="49.20437" lon="6.62973">
        <ele>315</ele>
        <time>2020-02-22T12:40:50.000Z</time>
      </trkpt>
      <trkpt lat="49.20427" lon="6.62963">
        <ele>315</ele>
        <time>2020-02-22T12:41:00.000Z</time>
      </trkpt>
      <trkpt lat="49.20416" lon="6.62953">
        <ele>317</ele>
        <time>2020-02-22T12:41:10.000Z</time>
      </trkpt>
      <trkpt lat="49.20404" lon="6.62945">
        <ele>317</ele>
        <time>2020-02-22T12:41:20.000Z</time>
      </trkpt>
      <trkpt lat="49.20393" lon="6.62937">
        <ele>317</ele>
        <time>2020-02-22T12:41:30.000Z</time>
      </trkpt>
      <trkpt lat="49.20382" lon="6.62928">
        <ele>317</ele>
        <time>2020-02-22T12:41:40.000Z</time>
      </trkpt>
      <trkpt lat="49.2037" lon="6.62921">
        <ele>318</ele>
        <time>2020-02-22T12:41:50.000Z</time>
      </trkpt>
      <trkpt lat="49.20356" lon="6.62914">
        <ele>318</ele>
        <time>2020-02-22T12:42:00.000Z</time>
      </trkpt>
      <trkpt lat="49.2034" lon="6.62905">
        <ele>318</ele>
        <time>2020-02-22T12:42:10.000Z</time>
      </trkpt>
      <trkpt lat="49.20327" lon="6.62892">
        <ele>320</ele>
        <time>2020-02-22T12:42:20.000Z</time>
      </trkpt>
      <trkpt lat="49.20316" lon="6.6288">
        <ele>320</ele>
        <time>2020-02-22T12:42:30.000Z</time>
      </trkpt>
      <trkpt lat="49.20304" lon="6.6287">
        <ele>320</ele>
        <time>2020-02-22T12:42:40.000Z</time>
      </trkpt>
      <trkpt lat="49.20291" lon="6.62863">
        <ele>320</ele>
        <time>2020-02-22T12:42:50.000Z</time>
      </trkpt>
      <trkpt lat="49.20279" lon="6.62857">
        <ele>320</ele>
        <time>2020-02-22T12:43:00.000Z</time>
      </trkpt>
      <trkpt lat="49.20267" lon="6.62849">
        <ele>320</ele>
        <time>2020-02-22T12:43:10.000Z</time>
      </trkpt>
      <trkpt lat="49.20257" lon="6.62839">
        <ele>320</ele>
        <time>2020-02-22T12:43:20.000Z</time>
      </trkpt>
      <trkpt lat="49.20247" lon="6.62829">
        <ele>321</ele>
        <time>2020-02-22T12:43:30.000Z</time>
      </trkpt>
      <trkpt lat="49.20235" lon="6.6282">
        <ele>324</ele>
        <time>2020-02-22T12:43:40.000Z</time>
      </trkpt>
      <trkpt lat="49.20223" lon="6.62811">
        <ele>326</ele>
        <time>2020-02-22T12:43:50.000Z</time>
      </trkpt>
      <trkpt lat="49.20213" lon="6.62802">
        <ele>327</ele>
        <time>2020-02-22T12:44:00.000Z</time>
      </trkpt>
      <trkpt lat="49.20202" lon="6.62792">
        <ele>328</ele>
        <time>2020-02-22T12:44:10.000Z</time>
      </trkpt>
      <trkpt lat="49.20192" lon="6.62783">
        <ele>328</ele>
        <time>2020-02-22T12:44:20.000Z</time>
      </trkpt>
      <trkpt lat="49.20182" lon="6.62773">
        <ele>329</ele>
        <time>2020-02-22T12:44:30.000Z</time>
      </trkpt>
      <trkpt lat="49.20171" lon="6.62764">
        <ele>329</ele>
        <time>2020-02-22T12:44:40.000Z</time>
      </trkpt>
      <trkpt lat="49.20162" lon="6.62755">
        <ele>332</ele>
        <time>2020-02-22T12:44:50.000Z</time>
      </trkpt>
      <trkpt lat="49.2015" lon="6.62745">
        <ele>330</ele>
        <time>2020-02-22T12:45:00.000Z</time>
      </trkpt>
      <trkpt lat="49.20138" lon="6.62737">
        <ele>330</ele>
        <time>2020-02-22T12:45:10.000Z</time>
      </trkpt>
      <trkpt lat="49.20123" lon="6.62727">
        <ele>330</ele>
        <time>2020-02-22T12:45:20.000Z</time>
      </trkpt>
      <trkpt lat="49.20113" lon="6.62718">
        <ele>330</ele>
        <time>2020-02-22T12:45:30.000Z</time>
      </trkpt>
      <trkpt lat="49.20102" lon="6.62708">
        <ele>330</ele>
        <time>2020-02-22T12:45:40.000Z</time>
      </trkpt>
      <trkpt lat="49.20089" lon="6.62697">
        <ele>329</ele>
        <time>2020-02-22T12:45:50.000Z</time>
      </trkpt>
      <trkpt lat="49.20077" lon="6.62688">
        <ele>332</ele>
        <time>2020-02-22T12:46:00.000Z</time>
      </trkpt>
      <trkpt lat="49.20066" lon="6.6268">
        <ele>332</ele>
        <time>2020-02-22T12:46:10.000Z</time>
      </trkpt>
      <trkpt lat="49.20056" lon="6.62669">
        <ele>333</ele>
        <time>2020-02-22T12:46:20.000Z</time>
      </trkpt>
      <trkpt lat="49.20044" lon="6.62656">
        <ele>329</ele>
        <time>2020-02-22T12:46:30.000Z</time>
      </trkpt>
      <trkpt lat="49.20032" lon="6.62644">
        <ele>330</ele>
        <time>2020-02-22T12:46:40.000Z</time>
      </trkpt>
      <trkpt lat="49.2002" lon="6.62634">
        <ele>330</ele>
        <time>2020-02-22T12:46:50.000Z</time>
      </trkpt>
      <trkpt lat="49.20009" lon="6.62625">
        <ele>329</ele>
        <time>2020-02-22T12:47:00.000Z</time>
      </trkpt>
      <trkpt lat="49.19996" lon="6.62617">
        <ele>333</ele>
        <time>2020-02-22T12:47:10.000Z</time>
      </trkpt>
      <trkpt lat="49.19985" lon="6.62609">
        <ele>332</ele>
        <time>2020-02-22T12:47:20.000Z</time>
      </trkpt>
      <trkpt lat="49.19973" lon="6.62599">
        <ele>332</ele>
        <time>2020-02-22T12:47:30.000Z</time>
      </trkpt>
      <trkpt lat="49.1996" lon="6.6259">
        <ele>333</ele>
        <time>2020-02-22T12:47:40.000Z</time>
      </trkpt>
      <trkpt lat="49.19949" lon="6.62581">
        <ele>331</ele>
        <time>2020-02-22T12:47:50.000Z</time>
      </trkpt>
      <trkpt lat="49.19938" lon="6.62571">
        <ele>331</ele>
        <time>2020-02-22T12:48:00.000Z</time>
      </trkpt>
      <trkpt lat="49.19927" lon="6.62561">
        <ele>332</ele>
        <time>2020-02-22T12:48:10.000Z</time>
      </trkpt>
      <trkpt lat="49.19914" lon="6.6255">
        <ele>331</ele>
        <time>2020-02-22T12:48:20.000Z</time>
      </trkpt>
      <trkpt lat="49.19902" lon="6.62538">
        <ele>330</ele>
        <time>2020-02-22T12:48:30.000Z</time>
      </trkpt>
      <trkpt lat="49.1989" lon="6.6253">
        <ele>329</ele>
        <time>2020-02-22T12:48:40.000Z</time>
      </trkpt>
      <trkpt lat="49.19882" lon="6.62531">
        <ele>329</ele>
        <time>2020-02-22T12:48:50.000Z</time>
      </trkpt>
      <trkpt lat="49.19879" lon="6.62525">
        <ele>329</ele>
        <time>2020-02-22T12:49:00.000Z</time>
      </trkpt>
      <trkpt lat="49.19867" lon="6.62515">
        <ele>329</ele>
        <time>2020-02-22T12:49:10.000Z</time>
      </trkpt>
      <trkpt lat="49.19854" lon="6.62507">
        <ele>328</ele>
        <time>2020-02-22T12:49:20.000Z</time>
      </trkpt>
      <trkpt lat="49.1984" lon="6.62502">
        <ele>327</ele>
        <time>2020-02-22T12:49:30.000Z</time>
      </trkpt>
      <trkpt lat="49.19827" lon="6.62496">
        <ele>325</ele>
        <time>2020-02-22T12:49:40.000Z</time>
      </trkpt>
      <trkpt lat="49.19813" lon="6.62491">
        <ele>324</ele>
        <time>2020-02-22T12:49:50.000Z</time>
      </trkpt>
      <trkpt lat="49.198" lon="6.62487">
        <ele>324</ele>
        <time>2020-02-22T12:50:00.000Z</time>
      </trkpt>
      <trkpt lat="49.1979" lon="6.62484">
        <ele>323</ele>
        <time>2020-02-22T12:50:10.000Z</time>
      </trkpt>
      <trkpt lat="49.19779" lon="6.62479">
        <ele>323</ele>
        <time>2020-02-22T12:50:20.000Z</time>
      </trkpt>
      <trkpt lat="49.19768" lon="6.62476">
        <ele>323</ele>
        <time>2020-02-22T12:50:30.000Z</time>
      </trkpt>
      <trkpt lat="49.19756" lon="6.62473">
        <ele>323</ele>
        <time>2020-02-22T12:50:40.000Z</time>
      </trkpt>
      <trkpt lat="49.19744" lon="6.62472">
        <ele>324</ele>
        <time>2020-02-22T12:50:50.000Z</time>
      </trkpt>
      <trkpt lat="49.19733" lon="6.62471">
        <ele>324</ele>
        <time>2020-02-22T12:51:00.000Z</time>
      </trkpt>
      <trkpt lat="49.19718" lon="6.62464">
        <ele>325</ele>
        <time>2020-02-22T12:51:10.000Z</time>
      </trkpt>
      <trkpt lat="49.19704" lon="6.62458">
        <ele>325</ele>
        <time>2020-02-22T12:51:20.000Z</time>
      </trkpt>
      <trkpt lat="49.19689" lon="6.62455">
        <ele>325</ele>
        <time>2020-02-22T12:51:30.000Z</time>
      </trkpt>
      <trkpt lat="49.19673" lon="6.62453">
        <ele>325</ele>
        <time>2020-02-22T12:51:40.000Z</time>
      </trkpt>
      <trkpt lat="49.19663" lon="6.62451">
        <ele>327</ele>
        <time>2020-02-22T12:51:50.000Z</time>
      </trkpt>
      <trkpt lat="49.19647" lon="6.62443">
        <ele>327</ele>
        <time>2020-02-22T12:52:00.000Z</time>
      </trkpt>
      <trkpt lat="49.19635" lon="6.62436">
        <ele>327</ele>
        <time>2020-02-22T12:52:10.000Z</time>
      </trkpt>
      <trkpt lat="49.1962" lon="6.6243">
        <ele>327</ele>
        <time>2020-02-22T12:52:20.000Z</time>
      </trkpt>
      <trkpt lat="49.19606" lon="6.62425">
        <ele>327</ele>
        <time>2020-02-22T12:52:30.000Z</time>
      </trkpt>
      <trkpt lat="49.19593" lon="6.62424">
        <ele>327</ele>
        <time>2020-02-22T12:52:40.000Z</time>
      </trkpt>
      <trkpt lat="49.19583" lon="6.62417">
        <ele>327</ele>
        <time>2020-02-22T12:52:50.000Z</time>
      </trkpt>
      <trkpt lat="49.19577" lon="6.6242">
        <ele>328</ele>
        <time>2020-02-22T12:53:00.000Z</time>
      </trkpt>
      <trkpt lat="49.19574" lon="6.62412">
        <ele>326</ele>
        <time>2020-02-22T12:53:10.000Z</time>
      </trkpt>
      <trkpt lat="49.19562" lon="6.62406">
        <ele>326</ele>
        <time>2020-02-22T12:53:20.000Z</time>
      </trkpt>
      <trkpt lat="49.19551" lon="6.62406">
        <ele>326</ele>
        <time>2020-02-22T12:53:30.000Z</time>
      </trkpt>
      <trkpt lat="49.19539" lon="6.62406">
        <ele>326</ele>
        <time>2020-02-22T12:53:40.000Z</time>
      </trkpt>
      <trkpt lat="49.19529" lon="6.62412">
        <ele>326</ele>
        <time>2020-02-22T12:53:50.000Z</time>
      </trkpt>
      <trkpt lat="49.19527" lon="6.62403">
        <ele>326</ele>
        <time>2020-02-22T12:54:00.000Z</time>
      </trkpt>
      <trkpt lat="49.19521" lon="6.62395">
        <ele>326</ele>
        <time>2020-02-22T12:54:10.000Z</time>
      </trkpt>
      <trkpt lat="49.19514" lon="6.62391">
        <ele>326</ele>
        <time>2020-02-22T12:54:20.000Z</time>
      </trkpt>
      <trkpt lat="49.19512" lon="6.6239">
        <ele>326</ele>
        <time>2020-02-22T12:54:41.000Z</time>
      </trkpt>
      <trkpt lat="49.19496" lon="6.62392">
        <ele>326</ele>
        <time>2020-02-22T12:54:51.000Z</time>
      </trkpt>
      <trkpt lat="49.19485" lon="6.62394">
        <ele>325</ele>
        <time>2020-02-22T12:55:01.000Z</time>
      </trkpt>
      <trkpt lat="49.19472" lon="6.62394">
        <ele>325</ele>
        <time>2020-02-22T12:55:11.000Z</time>
      </trkpt>
      <trkpt lat="49.19462" lon="6.62396">
        <ele>325</ele>
        <time>2020-02-22T12:55:21.000Z</time>
      </trkpt>
      <trkpt lat="49.19449" lon="6.62395">
        <ele>324</ele>
        <time>2020-02-22T12:55:31.000Z</time>
      </trkpt>
      <trkpt lat="49.1944" lon="6.62393">
        <ele>324</ele>
        <time>2020-02-22T12:55:41.000Z</time>
      </trkpt>
      <trkpt lat="49.19434" lon="6.62389">
        <ele>324</ele>
        <time>2020-02-22T12:55:51.000Z</time>
      </trkpt>
      <trkpt lat="49.19427" lon="6.62388">
        <ele>324</ele>
        <time>2020-02-22T12:56:01.000Z</time>
      </trkpt>
      <trkpt lat="49.19421" lon="6.62385">
        <ele>324</ele>
        <time>2020-02-22T12:56:11.000Z</time>
      </trkpt>
      <trkpt lat="49.19419" lon="6.62385">
        <ele>324</ele>
        <time>2020-02-22T12:56:21.000Z</time>
      </trkpt>
      <trkpt lat="49.19411" lon="6.62388">
        <ele>321</ele>
        <time>2020-02-22T12:56:31.000Z</time>
      </trkpt>
      <trkpt lat="49.19406" lon="6.62389">
        <ele>321</ele>
        <time>2020-02-22T12:56:41.000Z</time>
      </trkpt>
      <trkpt lat="49.19401" lon="6.62388">
        <ele>321</ele>
        <time>2020-02-22T12:57:51.000Z</time>
      </trkpt>
      <trkpt lat="49.19379" lon="6.62361">
        <ele>319</ele>
        <time>2020-02-22T12:58:01.000Z</time>
      </trkpt>
      <trkpt lat="49.19378" lon="6.62361">
        <ele>319</ele>
        <time>2020-02-22T12:58:36.000Z</time>
      </trkpt>
      <trkpt lat="49.19375" lon="6.62361">
        <ele>319</ele>
        <time>2020-02-22T12:58:46.000Z</time>
      </trkpt>
      <trkpt lat="49.19368" lon="6.62362">
        <ele>319</ele>
        <time>2020-02-22T12:58:56.000Z</time>
      </trkpt>
      <trkpt lat="49.19362" lon="6.62366">
        <ele>318</ele>
        <time>2020-02-22T12:59:06.000Z</time>
      </trkpt>
      <trkpt lat="49.19362" lon="6.62373">
        <ele>319</ele>
        <time>2020-02-22T12:59:16.000Z</time>
      </trkpt>
      <trkpt lat="49.1936" lon="6.62383">
        <ele>319</ele>
        <time>2020-02-22T12:59:26.000Z</time>
      </trkpt>
      <trkpt lat="49.19352" lon="6.62388">
        <ele>319</ele>
        <time>2020-02-22T12:59:36.000Z</time>
      </trkpt>
      <trkpt lat="49.19339" lon="6.62392">
        <ele>318</ele>
        <time>2020-02-22T12:59:46.000Z</time>
      </trkpt>
      <trkpt lat="49.19325" lon="6.62389">
        <ele>318</ele>
        <time>2020-02-22T12:59:56.000Z</time>
      </trkpt>
      <trkpt lat="49.19305" lon="6.62382">
        <ele>319</ele>
        <time>2020-02-22T13:00:06.000Z</time>
      </trkpt>
      <trkpt lat="49.19291" lon="6.62373">
        <ele>319</ele>
        <time>2020-02-22T13:00:16.000Z</time>
      </trkpt>
      <trkpt lat="49.19285" lon="6.62363">
        <ele>319</ele>
        <time>2020-02-22T13:00:26.000Z</time>
      </trkpt>
      <trkpt lat="49.19278" lon="6.62347">
        <ele>319</ele>
        <time>2020-02-22T13:00:36.000Z</time>
      </trkpt>
      <trkpt lat="49.19271" lon="6.62336">
        <ele>319</ele>
        <time>2020-02-22T13:00:46.000Z</time>
      </trkpt>
      <trkpt lat="49.19263" lon="6.62323">
        <ele>316</ele>
        <time>2020-02-22T13:00:56.000Z</time>
      </trkpt>
      <trkpt lat="49.19257" lon="6.62312">
        <ele>315</ele>
        <time>2020-02-22T13:01:06.000Z</time>
      </trkpt>
      <trkpt lat="49.19254" lon="6.62294">
        <ele>313</ele>
        <time>2020-02-22T13:01:16.000Z</time>
      </trkpt>
      <trkpt lat="49.19251" lon="6.62281">
        <ele>312</ele>
        <time>2020-02-22T13:01:26.000Z</time>
      </trkpt>
      <trkpt lat="49.1925" lon="6.62266">
        <ele>311</ele>
        <time>2020-02-22T13:01:36.000Z</time>
      </trkpt>
      <trkpt lat="49.19249" lon="6.62246">
        <ele>310</ele>
        <time>2020-02-22T13:01:46.000Z</time>
      </trkpt>
      <trkpt lat="49.19248" lon="6.62235">
        <ele>309</ele>
        <time>2020-02-22T13:01:56.000Z</time>
      </trkpt>
      <trkpt lat="49.19247" lon="6.62228">
        <ele>308</ele>
        <time>2020-02-22T13:02:06.000Z</time>
      </trkpt>
      <trkpt lat="49.19247" lon="6.62222">
        <ele>308</ele>
        <time>2020-02-22T13:02:16.000Z</time>
      </trkpt>
      <trkpt lat="49.19235" lon="6.62211">
        <ele>307</ele>
        <time>2020-02-22T13:02:26.000Z</time>
      </trkpt>
      <trkpt lat="49.19228" lon="6.62201">
        <ele>307</ele>
        <time>2020-02-22T13:02:36.000Z</time>
      </trkpt>
      <trkpt lat="49.19223" lon="6.62188">
        <ele>306</ele>
        <time>2020-02-22T13:02:46.000Z</time>
      </trkpt>
      <trkpt lat="49.1922" lon="6.6218">
        <ele>305</ele>
        <time>2020-02-22T13:02:56.000Z</time>
      </trkpt>
      <trkpt lat="49.19219" lon="6.62177">
        <ele>305</ele>
        <time>2020-02-22T13:03:06.000Z</time>
      </trkpt>
      <trkpt lat="49.19219" lon="6.62176">
        <ele>305</ele>
        <time>2020-02-22T13:03:27.000Z</time>
      </trkpt>
      <trkpt lat="49.19215" lon="6.62158">
        <ele>298</ele>
        <time>2020-02-22T13:03:37.000Z</time>
      </trkpt>
      <trkpt lat="49.19205" lon="6.62146">
        <ele>298</ele>
        <time>2020-02-22T13:03:47.000Z</time>
      </trkpt>
      <trkpt lat="49.19195" lon="6.62139">
        <ele>298</ele>
        <time>2020-02-22T13:03:57.000Z</time>
      </trkpt>
      <trkpt lat="49.19189" lon="6.62136">
        <ele>299</ele>
        <time>2020-02-22T13:04:07.000Z</time>
      </trkpt>
      <trkpt lat="49.19185" lon="6.62134">
        <ele>299</ele>
        <time>2020-02-22T13:04:17.000Z</time>
      </trkpt>
      <trkpt lat="49.19179" lon="6.62119">
        <ele>298</ele>
        <time>2020-02-22T13:04:27.000Z</time>
      </trkpt>
      <trkpt lat="49.1917" lon="6.62105">
        <ele>297</ele>
        <time>2020-02-22T13:04:37.000Z</time>
      </trkpt>
      <trkpt lat="49.1916" lon="6.62095">
        <ele>295</ele>
        <time>2020-02-22T13:04:47.000Z</time>
      </trkpt>
      <trkpt lat="49.19153" lon="6.62084">
        <ele>295</ele>
        <time>2020-02-22T13:04:57.000Z</time>
      </trkpt>
      <trkpt lat="49.19144" lon="6.62065">
        <ele>284</ele>
        <time>2020-02-22T13:05:07.000Z</time>
      </trkpt>
      <trkpt lat="49.19136" lon="6.62052">
        <ele>282</ele>
        <time>2020-02-22T13:05:17.000Z</time>
      </trkpt>
      <trkpt lat="49.1913" lon="6.62041">
        <ele>280</ele>
        <time>2020-02-22T13:05:27.000Z</time>
      </trkpt>
      <trkpt lat="49.19123" lon="6.62033">
        <ele>278</ele>
        <time>2020-02-22T13:05:37.000Z</time>
      </trkpt>
      <trkpt lat="49.19122" lon="6.62031">
        <ele>278</ele>
        <time>2020-02-22T13:05:47.000Z</time>
      </trkpt>
      <trkpt lat="49.19117" lon="6.62034">
        <ele>278</ele>
        <time>2020-02-22T13:05:57.000Z</time>
      </trkpt>
      <trkpt lat="49.1911" lon="6.6204">
        <ele>278</ele>
        <time>2020-02-22T13:06:07.000Z</time>
      </trkpt>
      <trkpt lat="49.19106" lon="6.62045">
        <ele>278</ele>
        <time>2020-02-22T13:06:17.000Z</time>
      </trkpt>
      <trkpt lat="49.191" lon="6.62057">
        <ele>278</ele>
        <time>2020-02-22T13:06:27.000Z</time>
      </trkpt>
      <trkpt lat="49.19095" lon="6.62063">
        <ele>278</ele>
        <time>2020-02-22T13:06:37.000Z</time>
      </trkpt>
      <trkpt lat="49.19089" lon="6.62077">
        <ele>278</ele>
        <time>2020-02-22T13:06:47.000Z</time>
      </trkpt>
      <trkpt lat="49.19088" lon="6.62082">
        <ele>277</ele>
        <time>2020-02-22T13:06:57.000Z</time>
      </trkpt>
      <trkpt lat="49.19088" lon="6.62083">
        <ele>280</ele>
        <time>2020-02-22T13:07:07.000Z</time>
      </trkpt>
      <trkpt lat="49.19087" lon="6.62083">
        <ele>277</ele>
        <time>2020-02-22T13:08:06.000Z</time>
      </trkpt>
      <trkpt lat="49.19076" lon="6.62097">
        <ele>274</ele>
        <time>2020-02-22T13:08:16.000Z</time>
      </trkpt>
      <trkpt lat="49.19069" lon="6.62108">
        <ele>273</ele>
        <time>2020-02-22T13:08:26.000Z</time>
      </trkpt>
      <trkpt lat="49.19068" lon="6.6211">
        <ele>273</ele>
        <time>2020-02-22T13:08:36.000Z</time>
      </trkpt>
      <trkpt lat="49.19069" lon="6.62109">
        <ele>274</ele>
        <time>2020-02-22T13:09:40.000Z</time>
      </trkpt>
      <trkpt lat="49.19068" lon="6.6211">
        <ele>273</ele>
        <time>2020-02-22T13:10:07.000Z</time>
      </trkpt>
      <trkpt lat="49.19068" lon="6.62106">
        <ele>273</ele>
        <time>2020-02-22T13:10:17.000Z</time>
      </trkpt>
      <trkpt lat="49.19068" lon="6.62107">
        <ele>273</ele>
        <time>2020-02-22T13:10:58.000Z</time>
      </trkpt>
      <trkpt lat="49.19069" lon="6.62118">
        <ele>274</ele>
        <time>2020-02-22T13:11:08.000Z</time>
      </trkpt>
      <trkpt lat="49.19066" lon="6.62136">
        <ele>276</ele>
        <time>2020-02-22T13:11:18.000Z</time>
      </trkpt>
      <trkpt lat="49.19058" lon="6.62153">
        <ele>277</ele>
        <time>2020-02-22T13:11:28.000Z</time>
      </trkpt>
      <trkpt lat="49.19052" lon="6.62165">
        <ele>276</ele>
        <time>2020-02-22T13:11:38.000Z</time>
      </trkpt>
      <trkpt lat="49.19033" lon="6.62193">
        <ele>279</ele>
        <time>2020-02-22T13:11:48.000Z</time>
      </trkpt>
      <trkpt lat="49.19027" lon="6.62211">
        <ele>279</ele>
        <time>2020-02-22T13:11:58.000Z</time>
      </trkpt>
      <trkpt lat="49.19028" lon="6.62231">
        <ele>279</ele>
        <time>2020-02-22T13:12:08.000Z</time>
      </trkpt>
      <trkpt lat="49.19025" lon="6.62249">
        <ele>278</ele>
        <time>2020-02-22T13:12:18.000Z</time>
      </trkpt>
      <trkpt lat="49.19023" lon="6.62274">
        <ele>285</ele>
        <time>2020-02-22T13:12:28.000Z</time>
      </trkpt>
      <trkpt lat="49.19021" lon="6.62296">
        <ele>287</ele>
        <time>2020-02-22T13:12:38.000Z</time>
      </trkpt>
      <trkpt lat="49.19017" lon="6.62312">
        <ele>286</ele>
        <time>2020-02-22T13:12:48.000Z</time>
      </trkpt>
      <trkpt lat="49.19015" lon="6.62328">
        <ele>284</ele>
        <time>2020-02-22T13:12:58.000Z</time>
      </trkpt>
      <trkpt lat="49.19011" lon="6.62351">
        <ele>288</ele>
        <time>2020-02-22T13:13:08.000Z</time>
      </trkpt>
      <trkpt lat="49.19006" lon="6.62377">
        <ele>291</ele>
        <time>2020-02-22T13:13:18.000Z</time>
      </trkpt>
      <trkpt lat="49.19004" lon="6.62397">
        <ele>290</ele>
        <time>2020-02-22T13:13:28.000Z</time>
      </trkpt>
      <trkpt lat="49.19" lon="6.62416">
        <ele>285</ele>
        <time>2020-02-22T13:13:38.000Z</time>
      </trkpt>
      <trkpt lat="49.18999" lon="6.62437">
        <ele>276</ele>
        <time>2020-02-22T13:13:48.000Z</time>
      </trkpt>
      <trkpt lat="49.18999" lon="6.62443">
        <ele>275</ele>
        <time>2020-02-22T13:13:58.000Z</time>
      </trkpt>
      <trkpt lat="49.19" lon="6.62441">
        <ele>292</ele>
        <time>2020-02-22T13:14:08.000Z</time>
      </trkpt>
      <trkpt lat="49.19001" lon="6.62442">
        <ele>292</ele>
        <time>2020-02-22T13:14:18.000Z</time>
      </trkpt>
      <trkpt lat="49.18997" lon="6.62455">
        <ele>273</ele>
        <time>2020-02-22T13:14:28.000Z</time>
      </trkpt>
      <trkpt lat="49.18995" lon="6.62472">
        <ele>274</ele>
        <time>2020-02-22T13:14:38.000Z</time>
      </trkpt>
      <trkpt lat="49.18995" lon="6.62488">
        <ele>277</ele>
        <time>2020-02-22T13:14:48.000Z</time>
      </trkpt>
      <trkpt lat="49.18994" lon="6.62506">
        <ele>278</ele>
        <time>2020-02-22T13:14:58.000Z</time>
      </trkpt>
      <trkpt lat="49.18992" lon="6.62524">
        <ele>272</ele>
        <time>2020-02-22T13:15:08.000Z</time>
      </trkpt>
      <trkpt lat="49.18989" lon="6.62557">
        <ele>270</ele>
        <time>2020-02-22T13:15:18.000Z</time>
      </trkpt>
      <trkpt lat="49.18989" lon="6.6258">
        <ele>274</ele>
        <time>2020-02-22T13:15:28.000Z</time>
      </trkpt>
      <trkpt lat="49.18994" lon="6.62601">
        <ele>270</ele>
        <time>2020-02-22T13:15:38.000Z</time>
      </trkpt>
      <trkpt lat="49.18997" lon="6.62623">
        <ele>267</ele>
        <time>2020-02-22T13:15:48.000Z</time>
      </trkpt>
      <trkpt lat="49.18997" lon="6.62644">
        <ele>267</ele>
        <time>2020-02-22T13:15:58.000Z</time>
      </trkpt>
      <trkpt lat="49.18997" lon="6.6266">
        <ele>271</ele>
        <time>2020-02-22T13:16:08.000Z</time>
      </trkpt>
      <trkpt lat="49.18996" lon="6.62682">
        <ele>266</ele>
        <time>2020-02-22T13:16:18.000Z</time>
      </trkpt>
      <trkpt lat="49.19" lon="6.62708">
        <ele>278</ele>
        <time>2020-02-22T13:16:28.000Z</time>
      </trkpt>
      <trkpt lat="49.19006" lon="6.62729">
        <ele>275</ele>
        <time>2020-02-22T13:16:38.000Z</time>
      </trkpt>
      <trkpt lat="49.19011" lon="6.62748">
        <ele>270</ele>
        <time>2020-02-22T13:16:48.000Z</time>
      </trkpt>
      <trkpt lat="49.19014" lon="6.62764">
        <ele>268</ele>
        <time>2020-02-22T13:16:58.000Z</time>
      </trkpt>
      <trkpt lat="49.19017" lon="6.62778">
        <ele>270</ele>
        <time>2020-02-22T13:17:08.000Z</time>
      </trkpt>
      <trkpt lat="49.1902" lon="6.62795">
        <ele>269</ele>
        <time>2020-02-22T13:17:18.000Z</time>
      </trkpt>
      <trkpt lat="49.19022" lon="6.62817">
        <ele>266</ele>
        <time>2020-02-22T13:17:28.000Z</time>
      </trkpt>
      <trkpt lat="49.19022" lon="6.62839">
        <ele>260</ele>
        <time>2020-02-22T13:17:38.000Z</time>
      </trkpt>
      <trkpt lat="49.19023" lon="6.62861">
        <ele>261</ele>
        <time>2020-02-22T13:17:48.000Z</time>
      </trkpt>
      <trkpt lat="49.19025" lon="6.62883">
        <ele>261</ele>
        <time>2020-02-22T13:17:58.000Z</time>
      </trkpt>
      <trkpt lat="49.1903" lon="6.62906">
        <ele>261</ele>
        <time>2020-02-22T13:18:08.000Z</time>
      </trkpt>
      <trkpt lat="49.19032" lon="6.62926">
        <ele>260</ele>
        <time>2020-02-22T13:18:18.000Z</time>
      </trkpt>
      <trkpt lat="49.19027" lon="6.62937">
        <ele>260</ele>
        <time>2020-02-22T13:18:28.000Z</time>
      </trkpt>
      <trkpt lat="49.19026" lon="6.6295">
        <ele>261</ele>
        <time>2020-02-22T13:18:38.000Z</time>
      </trkpt>
      <trkpt lat="49.19025" lon="6.62955">
        <ele>261</ele>
        <time>2020-02-22T13:18:48.000Z</time>
      </trkpt>
      <trkpt lat="49.19024" lon="6.62957">
        <ele>261</ele>
        <time>2020-02-22T13:18:58.000Z</time>
      </trkpt>
      <trkpt lat="49.19024" lon="6.62959">
        <ele>262</ele>
        <time>2020-02-22T13:19:49.000Z</time>
      </trkpt>
      <trkpt lat="49.19021" lon="6.6297">
        <ele>262</ele>
        <time>2020-02-22T13:19:59.000Z</time>
      </trkpt>
      <trkpt lat="49.19021" lon="6.62979">
        <ele>262</ele>
        <time>2020-02-22T13:20:09.000Z</time>
      </trkpt>
      <trkpt lat="49.19018" lon="6.62988">
        <ele>262</ele>
        <time>2020-02-22T13:20:19.000Z</time>
      </trkpt>
      <trkpt lat="49.19" lon="6.62997">
        <ele>261</ele>
        <time>2020-02-22T13:20:29.000Z</time>
      </trkpt>
      <trkpt lat="49.18984" lon="6.62995">
        <ele>255</ele>
        <time>2020-02-22T13:20:39.000Z</time>
      </trkpt>
      <trkpt lat="49.18973" lon="6.62992">
        <ele>252</ele>
        <time>2020-02-22T13:20:49.000Z</time>
      </trkpt>
      <trkpt lat="49.18964" lon="6.62995">
        <ele>251</ele>
        <time>2020-02-22T13:20:59.000Z</time>
      </trkpt>
      <trkpt lat="49.1896" lon="6.63004">
        <ele>258</ele>
        <time>2020-02-22T13:21:09.000Z</time>
      </trkpt>
      <trkpt lat="49.18956" lon="6.63016">
        <ele>258</ele>
        <time>2020-02-22T13:21:19.000Z</time>
      </trkpt>
      <trkpt lat="49.18955" lon="6.63029">
        <ele>259</ele>
        <time>2020-02-22T13:21:29.000Z</time>
      </trkpt>
      <trkpt lat="49.18951" lon="6.63052">
        <ele>260</ele>
        <time>2020-02-22T13:21:39.000Z</time>
      </trkpt>
      <trkpt lat="49.1895" lon="6.63067">
        <ele>261</ele>
        <time>2020-02-22T13:21:49.000Z</time>
      </trkpt>
      <trkpt lat="49.18944" lon="6.63081">
        <ele>260</ele>
        <time>2020-02-22T13:21:59.000Z</time>
      </trkpt>
      <trkpt lat="49.18941" lon="6.631">
        <ele>268</ele>
        <time>2020-02-22T13:22:09.000Z</time>
      </trkpt>
      <trkpt lat="49.18939" lon="6.63122">
        <ele>269</ele>
        <time>2020-02-22T13:22:19.000Z</time>
      </trkpt>
      <trkpt lat="49.18937" lon="6.6314">
        <ele>270</ele>
        <time>2020-02-22T13:22:29.000Z</time>
      </trkpt>
      <trkpt lat="49.18934" lon="6.63157">
        <ele>269</ele>
        <time>2020-02-22T13:22:39.000Z</time>
      </trkpt>
      <trkpt lat="49.18932" lon="6.63179">
        <ele>272</ele>
        <time>2020-02-22T13:22:49.000Z</time>
      </trkpt>
      <trkpt lat="49.1893" lon="6.632">
        <ele>275</ele>
        <time>2020-02-22T13:22:59.000Z</time>
      </trkpt>
      <trkpt lat="49.18929" lon="6.63217">
        <ele>275</ele>
        <time>2020-02-22T13:23:09.000Z</time>
      </trkpt>
      <trkpt lat="49.18928" lon="6.63233">
        <ele>274</ele>
        <time>2020-02-22T13:23:19.000Z</time>
      </trkpt>
      <trkpt lat="49.18924" lon="6.63252">
        <ele>271</ele>
        <time>2020-02-22T13:23:29.000Z</time>
      </trkpt>
      <trkpt lat="49.18918" lon="6.63271">
        <ele>275</ele>
        <time>2020-02-22T13:23:39.000Z</time>
      </trkpt>
      <trkpt lat="49.18912" lon="6.63293">
        <ele>259</ele>
        <time>2020-02-22T13:23:49.000Z</time>
      </trkpt>
      <trkpt lat="49.18909" lon="6.63315">
        <ele>261</ele>
        <time>2020-02-22T13:23:59.000Z</time>
      </trkpt>
      <trkpt lat="49.18908" lon="6.63334">
        <ele>265</ele>
        <time>2020-02-22T13:24:09.000Z</time>
      </trkpt>
      <trkpt lat="49.18907" lon="6.63355">
        <ele>262</ele>
        <time>2020-02-22T13:24:19.000Z</time>
      </trkpt>
      <trkpt lat="49.18903" lon="6.63373">
        <ele>261</ele>
        <time>2020-02-22T13:24:29.000Z</time>
      </trkpt>
      <trkpt lat="49.18899" lon="6.63386">
        <ele>261</ele>
        <time>2020-02-22T13:24:39.000Z</time>
      </trkpt>
      <trkpt lat="49.18895" lon="6.634">
        <ele>262</ele>
        <time>2020-02-22T13:24:49.000Z</time>
      </trkpt>
      <trkpt lat="49.18888" lon="6.63416">
        <ele>261</ele>
        <time>2020-02-22T13:24:59.000Z</time>
      </trkpt>
      <trkpt lat="49.18882" lon="6.63428">
        <ele>262</ele>
        <time>2020-02-22T13:25:09.000Z</time>
      </trkpt>
      <trkpt lat="49.18877" lon="6.63438">
        <ele>261</ele>
        <time>2020-02-22T13:25:19.000Z</time>
      </trkpt>
      <trkpt lat="49.18874" lon="6.63454">
        <ele>261</ele>
        <time>2020-02-22T13:25:29.000Z</time>
      </trkpt>
      <trkpt lat="49.18872" lon="6.63465">
        <ele>260</ele>
        <time>2020-02-22T13:25:39.000Z</time>
      </trkpt>
      <trkpt lat="49.1887" lon="6.6348">
        <ele>260</ele>
        <time>2020-02-22T13:25:49.000Z</time>
      </trkpt>
      <trkpt lat="49.18871" lon="6.635">
        <ele>260</ele>
        <time>2020-02-22T13:25:59.000Z</time>
      </trkpt>
      <trkpt lat="49.18866" lon="6.63516">
        <ele>262</ele>
        <time>2020-02-22T13:26:09.000Z</time>
      </trkpt>
      <trkpt lat="49.18861" lon="6.63543">
        <ele>262</ele>
        <time>2020-02-22T13:26:19.000Z</time>
      </trkpt>
      <trkpt lat="49.18858" lon="6.63565">
        <ele>262</ele>
        <time>2020-02-22T13:26:29.000Z</time>
      </trkpt>
      <trkpt lat="49.18856" lon="6.63584">
        <ele>262</ele>
        <time>2020-02-22T13:26:39.000Z</time>
      </trkpt>
      <trkpt lat="49.18849" lon="6.63603">
        <ele>262</ele>
        <time>2020-02-22T13:26:49.000Z</time>
      </trkpt>
      <trkpt lat="49.18838" lon="6.63624">
        <ele>263</ele>
        <time>2020-02-22T13:26:59.000Z</time>
      </trkpt>
      <trkpt lat="49.18829" lon="6.63643">
        <ele>250</ele>
        <time>2020-02-22T13:27:09.000Z</time>
      </trkpt>
      <trkpt lat="49.18823" lon="6.63662">
        <ele>252</ele>
        <time>2020-02-22T13:27:19.000Z</time>
      </trkpt>
      <trkpt lat="49.18816" lon="6.63679">
        <ele>250</ele>
        <time>2020-02-22T13:27:29.000Z</time>
      </trkpt>
      <trkpt lat="49.1881" lon="6.63698">
        <ele>247</ele>
        <time>2020-02-22T13:27:39.000Z</time>
      </trkpt>
      <trkpt lat="49.18803" lon="6.63716">
        <ele>246</ele>
        <time>2020-02-22T13:27:49.000Z</time>
      </trkpt>
      <trkpt lat="49.18798" lon="6.63735">
        <ele>246</ele>
        <time>2020-02-22T13:27:59.000Z</time>
      </trkpt>
      <trkpt lat="49.18796" lon="6.63753">
        <ele>244</ele>
        <time>2020-02-22T13:28:09.000Z</time>
      </trkpt>
      <trkpt lat="49.18793" lon="6.63768">
        <ele>244</ele>
        <time>2020-02-22T13:28:19.000Z</time>
      </trkpt>
      <trkpt lat="49.18789" lon="6.63783">
        <ele>243</ele>
        <time>2020-02-22T13:28:29.000Z</time>
      </trkpt>
      <trkpt lat="49.1878" lon="6.63787">
        <ele>242</ele>
        <time>2020-02-22T13:28:39.000Z</time>
      </trkpt>
      <trkpt lat="49.1878" lon="6.63797">
        <ele>242</ele>
        <time>2020-02-22T13:28:49.000Z</time>
      </trkpt>
      <trkpt lat="49.18782" lon="6.638">
        <ele>242</ele>
        <time>2020-02-22T13:28:59.000Z</time>
      </trkpt>
      <trkpt lat="49.18784" lon="6.63813">
        <ele>242</ele>
        <time>2020-02-22T13:29:09.000Z</time>
      </trkpt>
      <trkpt lat="49.18782" lon="6.63829">
        <ele>242</ele>
        <time>2020-02-22T13:29:19.000Z</time>
      </trkpt>
      <trkpt lat="49.18783" lon="6.63844">
        <ele>241</ele>
        <time>2020-02-22T13:29:29.000Z</time>
      </trkpt>
      <trkpt lat="49.18784" lon="6.6386">
        <ele>242</ele>
        <time>2020-02-22T13:29:39.000Z</time>
      </trkpt>
      <trkpt lat="49.18784" lon="6.63881">
        <ele>242</ele>
        <time>2020-02-22T13:29:49.000Z</time>
      </trkpt>
      <trkpt lat="49.18785" lon="6.639">
        <ele>242</ele>
        <time>2020-02-22T13:29:59.000Z</time>
      </trkpt>
      <trkpt lat="49.18787" lon="6.63916">
        <ele>242</ele>
        <time>2020-02-22T13:30:09.000Z</time>
      </trkpt>
      <trkpt lat="49.18791" lon="6.63936">
        <ele>241</ele>
        <time>2020-02-22T13:30:19.000Z</time>
      </trkpt>
      <trkpt lat="49.18793" lon="6.63955">
        <ele>241</ele>
        <time>2020-02-22T13:30:29.000Z</time>
      </trkpt>
      <trkpt lat="49.18795" lon="6.63972">
        <ele>241</ele>
        <time>2020-02-22T13:30:39.000Z</time>
      </trkpt>
      <trkpt lat="49.18799" lon="6.63988">
        <ele>241</ele>
        <time>2020-02-22T13:30:49.000Z</time>
      </trkpt>
      <trkpt lat="49.18802" lon="6.63995">
        <ele>242</ele>
        <time>2020-02-22T13:30:59.000Z</time>
      </trkpt>
      <trkpt lat="49.18805" lon="6.64011">
        <ele>241</ele>
        <time>2020-02-22T13:31:09.000Z</time>
      </trkpt>
      <trkpt lat="49.1881" lon="6.64032">
        <ele>241</ele>
        <time>2020-02-22T13:31:19.000Z</time>
      </trkpt>
      <trkpt lat="49.18814" lon="6.64058">
        <ele>241</ele>
        <time>2020-02-22T13:31:29.000Z</time>
      </trkpt>
      <trkpt lat="49.18817" lon="6.64078">
        <ele>243</ele>
        <time>2020-02-22T13:31:39.000Z</time>
      </trkpt>
      <trkpt lat="49.1882" lon="6.64098">
        <ele>242</ele>
        <time>2020-02-22T13:31:49.000Z</time>
      </trkpt>
      <trkpt lat="49.18821" lon="6.6412">
        <ele>242</ele>
        <time>2020-02-22T13:31:59.000Z</time>
      </trkpt>
      <trkpt lat="49.18826" lon="6.64138">
        <ele>243</ele>
        <time>2020-02-22T13:32:09.000Z</time>
      </trkpt>
      <trkpt lat="49.18828" lon="6.64158">
        <ele>246</ele>
        <time>2020-02-22T13:32:19.000Z</time>
      </trkpt>
      <trkpt lat="49.18829" lon="6.64179">
        <ele>245</ele>
        <time>2020-02-22T13:32:29.000Z</time>
      </trkpt>
      <trkpt lat="49.1883" lon="6.64196">
        <ele>242</ele>
        <time>2020-02-22T13:32:39.000Z</time>
      </trkpt>
      <trkpt lat="49.18834" lon="6.64212">
        <ele>256</ele>
        <time>2020-02-22T13:32:49.000Z</time>
      </trkpt>
      <trkpt lat="49.18839" lon="6.64225">
        <ele>255</ele>
        <time>2020-02-22T13:32:59.000Z</time>
      </trkpt>
      <trkpt lat="49.18839" lon="6.64238">
        <ele>252</ele>
        <time>2020-02-22T13:33:09.000Z</time>
      </trkpt>
      <trkpt lat="49.18841" lon="6.64254">
        <ele>249</ele>
        <time>2020-02-22T13:33:19.000Z</time>
      </trkpt>
      <trkpt lat="49.18841" lon="6.6427">
        <ele>252</ele>
        <time>2020-02-22T13:33:29.000Z</time>
      </trkpt>
      <trkpt lat="49.18842" lon="6.64285">
        <ele>252</ele>
        <time>2020-02-22T13:33:39.000Z</time>
      </trkpt>
      <trkpt lat="49.18846" lon="6.64301">
        <ele>252</ele>
        <time>2020-02-22T13:33:49.000Z</time>
      </trkpt>
      <trkpt lat="49.1885" lon="6.64318">
        <ele>250</ele>
        <time>2020-02-22T13:33:59.000Z</time>
      </trkpt>
      <trkpt lat="49.18853" lon="6.64337">
        <ele>244</ele>
        <time>2020-02-22T13:34:09.000Z</time>
      </trkpt>
      <trkpt lat="49.18854" lon="6.64353">
        <ele>244</ele>
        <time>2020-02-22T13:34:19.000Z</time>
      </trkpt>
      <trkpt lat="49.18856" lon="6.64369">
        <ele>244</ele>
        <time>2020-02-22T13:34:29.000Z</time>
      </trkpt>
      <trkpt lat="49.18852" lon="6.6439">
        <ele>241</ele>
        <time>2020-02-22T13:34:39.000Z</time>
      </trkpt>
      <trkpt lat="49.18848" lon="6.64409">
        <ele>237</ele>
        <time>2020-02-22T13:34:49.000Z</time>
      </trkpt>
      <trkpt lat="49.18844" lon="6.64427">
        <ele>234</ele>
        <time>2020-02-22T13:34:59.000Z</time>
      </trkpt>
      <trkpt lat="49.1884" lon="6.64444">
        <ele>235</ele>
        <time>2020-02-22T13:35:09.000Z</time>
      </trkpt>
      <trkpt lat="49.18837" lon="6.64463">
        <ele>236</ele>
        <time>2020-02-22T13:35:19.000Z</time>
      </trkpt>
      <trkpt lat="49.18834" lon="6.6448">
        <ele>235</ele>
        <time>2020-02-22T13:35:29.000Z</time>
      </trkpt>
      <trkpt lat="49.18832" lon="6.645">
        <ele>233</ele>
        <time>2020-02-22T13:35:39.000Z</time>
      </trkpt>
      <trkpt lat="49.18831" lon="6.64519">
        <ele>232</ele>
        <time>2020-02-22T13:35:49.000Z</time>
      </trkpt>
      <trkpt lat="49.18832" lon="6.64542">
        <ele>232</ele>
        <time>2020-02-22T13:35:59.000Z</time>
      </trkpt>
      <trkpt lat="49.18833" lon="6.64562">
        <ele>237</ele>
        <time>2020-02-22T13:36:09.000Z</time>
      </trkpt>
      <trkpt lat="49.18836" lon="6.64577">
        <ele>237</ele>
        <time>2020-02-22T13:36:19.000Z</time>
      </trkpt>
      <trkpt lat="49.1884" lon="6.64594">
        <ele>238</ele>
        <time>2020-02-22T13:36:29.000Z</time>
      </trkpt>
      <trkpt lat="49.18846" lon="6.64609">
        <ele>239</ele>
        <time>2020-02-22T13:36:39.000Z</time>
      </trkpt>
      <trkpt lat="49.18851" lon="6.64623">
        <ele>240</ele>
        <time>2020-02-22T13:36:49.000Z</time>
      </trkpt>
      <trkpt lat="49.18856" lon="6.64635">
        <ele>240</ele>
        <time>2020-02-22T13:36:59.000Z</time>
      </trkpt>
      <trkpt lat="49.18855" lon="6.64636">
        <ele>240</ele>
        <time>2020-02-22T13:37:09.000Z</time>
      </trkpt>
      <trkpt lat="49.18854" lon="6.64639">
        <ele>240</ele>
        <time>2020-02-22T13:37:19.000Z</time>
      </trkpt>
      <trkpt lat="49.1886" lon="6.64642">
        <ele>240</ele>
        <time>2020-02-22T13:37:29.000Z</time>
      </trkpt>
      <trkpt lat="49.18871" lon="6.64648">
        <ele>241</ele>
        <time>2020-02-22T13:37:39.000Z</time>
      </trkpt>
      <trkpt lat="49.18884" lon="6.64653">
        <ele>241</ele>
        <time>2020-02-22T13:37:49.000Z</time>
      </trkpt>
      <trkpt lat="49.18897" lon="6.64657">
        <ele>242</ele>
        <time>2020-02-22T13:37:59.000Z</time>
      </trkpt>
      <trkpt lat="49.18911" lon="6.64663">
        <ele>243</ele>
        <time>2020-02-22T13:38:09.000Z</time>
      </trkpt>
      <trkpt lat="49.1892" lon="6.64668">
        <ele>244</ele>
        <time>2020-02-22T13:38:19.000Z</time>
      </trkpt>
      <trkpt lat="49.18926" lon="6.64671">
        <ele>245</ele>
        <time>2020-02-22T13:38:29.000Z</time>
      </trkpt>
      <trkpt lat="49.18939" lon="6.64673">
        <ele>246</ele>
        <time>2020-02-22T13:38:39.000Z</time>
      </trkpt>
      <trkpt lat="49.18955" lon="6.64679">
        <ele>247</ele>
        <time>2020-02-22T13:38:49.000Z</time>
      </trkpt>
      <trkpt lat="49.18969" lon="6.64683">
        <ele>248</ele>
        <time>2020-02-22T13:38:59.000Z</time>
      </trkpt>
      <trkpt lat="49.18978" lon="6.64688">
        <ele>248</ele>
        <time>2020-02-22T13:39:09.000Z</time>
      </trkpt>
      <trkpt lat="49.18987" lon="6.64697">
        <ele>248</ele>
        <time>2020-02-22T13:39:19.000Z</time>
      </trkpt>
      <trkpt lat="49.18992" lon="6.64705">
        <ele>248</ele>
        <time>2020-02-22T13:39:29.000Z</time>
      </trkpt>
      <trkpt lat="49.19004" lon="6.64711">
        <ele>253</ele>
        <time>2020-02-22T13:39:39.000Z</time>
      </trkpt>
      <trkpt lat="49.19019" lon="6.6472">
        <ele>253</ele>
        <time>2020-02-22T13:39:49.000Z</time>
      </trkpt>
      <trkpt lat="49.19034" lon="6.64728">
        <ele>253</ele>
        <time>2020-02-22T13:39:59.000Z</time>
      </trkpt>
      <trkpt lat="49.19048" lon="6.64735">
        <ele>254</ele>
        <time>2020-02-22T13:40:09.000Z</time>
      </trkpt>
      <trkpt lat="49.1906" lon="6.64744">
        <ele>254</ele>
        <time>2020-02-22T13:40:19.000Z</time>
      </trkpt>
      <trkpt lat="49.1907" lon="6.64754">
        <ele>255</ele>
        <time>2020-02-22T13:40:29.000Z</time>
      </trkpt>
      <trkpt lat="49.19082" lon="6.64762">
        <ele>255</ele>
        <time>2020-02-22T13:40:39.000Z</time>
      </trkpt>
      <trkpt lat="49.19091" lon="6.64771">
        <ele>260</ele>
        <time>2020-02-22T13:40:49.000Z</time>
      </trkpt>
      <trkpt lat="49.191" lon="6.64777">
        <ele>261</ele>
        <time>2020-02-22T13:40:59.000Z</time>
      </trkpt>
      <trkpt lat="49.1911" lon="6.64785">
        <ele>262</ele>
        <time>2020-02-22T13:41:09.000Z</time>
      </trkpt>
      <trkpt lat="49.1912" lon="6.64794">
        <ele>262</ele>
        <time>2020-02-22T13:41:19.000Z</time>
      </trkpt>
      <trkpt lat="49.19128" lon="6.64809">
        <ele>263</ele>
        <time>2020-02-22T13:41:29.000Z</time>
      </trkpt>
      <trkpt lat="49.19136" lon="6.64828">
        <ele>264</ele>
        <time>2020-02-22T13:41:39.000Z</time>
      </trkpt>
      <trkpt lat="49.19139" lon="6.64848">
        <ele>262</ele>
        <time>2020-02-22T13:41:49.000Z</time>
      </trkpt>
      <trkpt lat="49.1914" lon="6.64869">
        <ele>262</ele>
        <time>2020-02-22T13:41:59.000Z</time>
      </trkpt>
      <trkpt lat="49.1914" lon="6.6489">
        <ele>261</ele>
        <time>2020-02-22T13:42:09.000Z</time>
      </trkpt>
      <trkpt lat="49.19141" lon="6.64907">
        <ele>262</ele>
        <time>2020-02-22T13:42:19.000Z</time>
      </trkpt>
      <trkpt lat="49.19142" lon="6.64924">
        <ele>261</ele>
        <time>2020-02-22T13:42:29.000Z</time>
      </trkpt>
      <trkpt lat="49.19142" lon="6.64943">
        <ele>260</ele>
        <time>2020-02-22T13:42:39.000Z</time>
      </trkpt>
      <trkpt lat="49.19147" lon="6.64969">
        <ele>260</ele>
        <time>2020-02-22T13:42:49.000Z</time>
      </trkpt>
      <trkpt lat="49.19153" lon="6.64988">
        <ele>261</ele>
        <time>2020-02-22T13:42:59.000Z</time>
      </trkpt>
      <trkpt lat="49.19157" lon="6.65005">
        <ele>262</ele>
        <time>2020-02-22T13:43:09.000Z</time>
      </trkpt>
      <trkpt lat="49.19159" lon="6.65022">
        <ele>261</ele>
        <time>2020-02-22T13:43:19.000Z</time>
      </trkpt>
      <trkpt lat="49.1916" lon="6.65039">
        <ele>260</ele>
        <time>2020-02-22T13:43:29.000Z</time>
      </trkpt>
      <trkpt lat="49.19164" lon="6.65057">
        <ele>260</ele>
        <time>2020-02-22T13:43:39.000Z</time>
      </trkpt>
      <trkpt lat="49.19169" lon="6.65077">
        <ele>266</ele>
        <time>2020-02-22T13:43:49.000Z</time>
      </trkpt>
      <trkpt lat="49.19175" lon="6.65092">
        <ele>266</ele>
        <time>2020-02-22T13:43:59.000Z</time>
      </trkpt>
      <trkpt lat="49.1918" lon="6.65111">
        <ele>267</ele>
        <time>2020-02-22T13:44:09.000Z</time>
      </trkpt>
      <trkpt lat="49.19183" lon="6.65129">
        <ele>267</ele>
        <time>2020-02-22T13:44:19.000Z</time>
      </trkpt>
      <trkpt lat="49.19189" lon="6.65143">
        <ele>267</ele>
        <time>2020-02-22T13:44:29.000Z</time>
      </trkpt>
      <trkpt lat="49.19193" lon="6.6516">
        <ele>266</ele>
        <time>2020-02-22T13:44:39.000Z</time>
      </trkpt>
      <trkpt lat="49.19197" lon="6.65181">
        <ele>265</ele>
        <time>2020-02-22T13:44:49.000Z</time>
      </trkpt>
      <trkpt lat="49.19199" lon="6.65199">
        <ele>265</ele>
        <time>2020-02-22T13:44:59.000Z</time>
      </trkpt>
      <trkpt lat="49.19203" lon="6.6522">
        <ele>265</ele>
        <time>2020-02-22T13:45:09.000Z</time>
      </trkpt>
      <trkpt lat="49.19209" lon="6.65243">
        <ele>265</ele>
        <time>2020-02-22T13:45:19.000Z</time>
      </trkpt>
      <trkpt lat="49.1921" lon="6.65263">
        <ele>263</ele>
        <time>2020-02-22T13:45:29.000Z</time>
      </trkpt>
      <trkpt lat="49.19213" lon="6.65284">
        <ele>263</ele>
        <time>2020-02-22T13:45:39.000Z</time>
      </trkpt>
      <trkpt lat="49.19218" lon="6.65302">
        <ele>263</ele>
        <time>2020-02-22T13:45:49.000Z</time>
      </trkpt>
      <trkpt lat="49.19225" lon="6.65321">
        <ele>264</ele>
        <time>2020-02-22T13:45:59.000Z</time>
      </trkpt>
      <trkpt lat="49.1923" lon="6.65341">
        <ele>264</ele>
        <time>2020-02-22T13:46:09.000Z</time>
      </trkpt>
      <trkpt lat="49.19235" lon="6.6536">
        <ele>263</ele>
        <time>2020-02-22T13:46:19.000Z</time>
      </trkpt>
      <trkpt lat="49.1924" lon="6.65381">
        <ele>262</ele>
        <time>2020-02-22T13:46:29.000Z</time>
      </trkpt>
      <trkpt lat="49.19245" lon="6.65403">
        <ele>263</ele>
        <time>2020-02-22T13:46:39.000Z</time>
      </trkpt>
      <trkpt lat="49.19248" lon="6.65422">
        <ele>264</ele>
        <time>2020-02-22T13:46:49.000Z</time>
      </trkpt>
      <trkpt lat="49.19249" lon="6.65441">
        <ele>261</ele>
        <time>2020-02-22T13:46:59.000Z</time>
      </trkpt>
      <trkpt lat="49.19252" lon="6.65458">
        <ele>271</ele>
        <time>2020-02-22T13:47:09.000Z</time>
      </trkpt>
      <trkpt lat="49.19254" lon="6.65476">
        <ele>270</ele>
        <time>2020-02-22T13:47:19.000Z</time>
      </trkpt>
      <trkpt lat="49.19259" lon="6.65494">
        <ele>267</ele>
        <time>2020-02-22T13:47:29.000Z</time>
      </trkpt>
      <trkpt lat="49.19263" lon="6.65511">
        <ele>266</ele>
        <time>2020-02-22T13:47:39.000Z</time>
      </trkpt>
      <trkpt lat="49.19267" lon="6.65526">
        <ele>267</ele>
        <time>2020-02-22T13:47:49.000Z</time>
      </trkpt>
      <trkpt lat="49.19275" lon="6.65528">
        <ele>268</ele>
        <time>2020-02-22T13:47:59.000Z</time>
      </trkpt>
      <trkpt lat="49.19276" lon="6.65529">
        <ele>268</ele>
        <time>2020-02-22T13:48:09.000Z</time>
      </trkpt>
      <trkpt lat="49.1928" lon="6.65539">
        <ele>268</ele>
        <time>2020-02-22T13:48:19.000Z</time>
      </trkpt>
      <trkpt lat="49.19293" lon="6.65564">
        <ele>268</ele>
        <time>2020-02-22T13:48:29.000Z</time>
      </trkpt>
      <trkpt lat="49.19305" lon="6.65585">
        <ele>265</ele>
        <time>2020-02-22T13:48:39.000Z</time>
      </trkpt>
      <trkpt lat="49.19308" lon="6.65598">
        <ele>265</ele>
        <time>2020-02-22T13:48:49.000Z</time>
      </trkpt>
      <trkpt lat="49.19317" lon="6.65622">
        <ele>264</ele>
        <time>2020-02-22T13:48:59.000Z</time>
      </trkpt>
      <trkpt lat="49.19325" lon="6.65634">
        <ele>264</ele>
        <time>2020-02-22T13:49:09.000Z</time>
      </trkpt>
      <trkpt lat="49.19331" lon="6.6564">
        <ele>264</ele>
        <time>2020-02-22T13:49:19.000Z</time>
      </trkpt>
      <trkpt lat="49.19341" lon="6.6565">
        <ele>268</ele>
        <time>2020-02-22T13:49:29.000Z</time>
      </trkpt>
      <trkpt lat="49.19345" lon="6.65656">
        <ele>268</ele>
        <time>2020-02-22T13:49:39.000Z</time>
      </trkpt>
      <trkpt lat="49.1935" lon="6.65662">
        <ele>268</ele>
        <time>2020-02-22T13:49:49.000Z</time>
      </trkpt>
      <trkpt lat="49.19358" lon="6.65667">
        <ele>265</ele>
        <time>2020-02-22T13:49:59.000Z</time>
      </trkpt>
      <trkpt lat="49.1937" lon="6.65677">
        <ele>266</ele>
        <time>2020-02-22T13:50:09.000Z</time>
      </trkpt>
      <trkpt lat="49.19381" lon="6.65686">
        <ele>266</ele>
        <time>2020-02-22T13:50:19.000Z</time>
      </trkpt>
      <trkpt lat="49.19392" lon="6.65695">
        <ele>266</ele>
        <time>2020-02-22T13:50:29.000Z</time>
      </trkpt>
      <trkpt lat="49.19407" lon="6.65712">
        <ele>266</ele>
        <time>2020-02-22T13:50:39.000Z</time>
      </trkpt>
      <trkpt lat="49.19417" lon="6.65725">
        <ele>266</ele>
        <time>2020-02-22T13:50:49.000Z</time>
      </trkpt>
      <trkpt lat="49.19426" lon="6.65737">
        <ele>265</ele>
        <time>2020-02-22T13:50:59.000Z</time>
      </trkpt>
      <trkpt lat="49.19437" lon="6.65749">
        <ele>265</ele>
        <time>2020-02-22T13:51:09.000Z</time>
      </trkpt>
      <trkpt lat="49.19444" lon="6.65762">
        <ele>262</ele>
        <time>2020-02-22T13:51:19.000Z</time>
      </trkpt>
      <trkpt lat="49.1945" lon="6.65777">
        <ele>261</ele>
        <time>2020-02-22T13:51:29.000Z</time>
      </trkpt>
      <trkpt lat="49.19456" lon="6.65788">
        <ele>261</ele>
        <time>2020-02-22T13:51:39.000Z</time>
      </trkpt>
      <trkpt lat="49.19461" lon="6.65803">
        <ele>260</ele>
        <time>2020-02-22T13:51:49.000Z</time>
      </trkpt>
      <trkpt lat="49.19469" lon="6.65818">
        <ele>260</ele>
        <time>2020-02-22T13:51:59.000Z</time>
      </trkpt>
      <trkpt lat="49.19476" lon="6.65833">
        <ele>259</ele>
        <time>2020-02-22T13:52:09.000Z</time>
      </trkpt>
      <trkpt lat="49.19483" lon="6.65848">
        <ele>256</ele>
        <time>2020-02-22T13:52:19.000Z</time>
      </trkpt>
      <trkpt lat="49.19491" lon="6.65859">
        <ele>255</ele>
        <time>2020-02-22T13:52:29.000Z</time>
      </trkpt>
      <trkpt lat="49.19498" lon="6.6587">
        <ele>255</ele>
        <time>2020-02-22T13:52:39.000Z</time>
      </trkpt>
      <trkpt lat="49.19508" lon="6.6588">
        <ele>250</ele>
        <time>2020-02-22T13:52:49.000Z</time>
      </trkpt>
      <trkpt lat="49.19518" lon="6.65892">
        <ele>250</ele>
        <time>2020-02-22T13:52:59.000Z</time>
      </trkpt>
      <trkpt lat="49.19527" lon="6.65903">
        <ele>249</ele>
        <time>2020-02-22T13:53:09.000Z</time>
      </trkpt>
      <trkpt lat="49.19535" lon="6.65916">
        <ele>248</ele>
        <time>2020-02-22T13:53:19.000Z</time>
      </trkpt>
      <trkpt lat="49.19542" lon="6.65927">
        <ele>243</ele>
        <time>2020-02-22T13:53:29.000Z</time>
      </trkpt>
      <trkpt lat="49.19545" lon="6.6593">
        <ele>243</ele>
        <time>2020-02-22T13:53:39.000Z</time>
      </trkpt>
      <trkpt lat="49.1955" lon="6.6593">
        <ele>243</ele>
        <time>2020-02-22T13:53:49.000Z</time>
      </trkpt>
      <trkpt lat="49.19555" lon="6.65934">
        <ele>242</ele>
        <time>2020-02-22T13:53:59.000Z</time>
      </trkpt>
      <trkpt lat="49.19553" lon="6.65929">
        <ele>242</ele>
        <time>2020-02-22T13:54:09.000Z</time>
      </trkpt>
      <trkpt lat="49.19555" lon="6.65931">
        <ele>242</ele>
        <time>2020-02-22T13:54:19.000Z</time>
      </trkpt>
      <trkpt lat="49.19554" lon="6.65936">
        <ele>242</ele>
        <time>2020-02-22T13:54:29.000Z</time>
      </trkpt>
      <trkpt lat="49.19552" lon="6.65941">
        <ele>242</ele>
        <time>2020-02-22T13:54:39.000Z</time>
      </trkpt>
      <trkpt lat="49.19547" lon="6.65944">
        <ele>242</ele>
        <time>2020-02-22T13:54:49.000Z</time>
      </trkpt>
      <trkpt lat="49.19546" lon="6.65955">
        <ele>242</ele>
        <time>2020-02-22T13:54:59.000Z</time>
      </trkpt>
      <trkpt lat="49.19543" lon="6.65976">
        <ele>241</ele>
        <time>2020-02-22T13:55:09.000Z</time>
      </trkpt>
      <trkpt lat="49.19541" lon="6.65999">
        <ele>241</ele>
        <time>2020-02-22T13:55:19.000Z</time>
      </trkpt>
      <trkpt lat="49.19536" lon="6.66019">
        <ele>239</ele>
        <time>2020-02-22T13:55:29.000Z</time>
      </trkpt>
      <trkpt lat="49.19531" lon="6.66037">
        <ele>239</ele>
        <time>2020-02-22T13:55:39.000Z</time>
      </trkpt>
      <trkpt lat="49.19526" lon="6.6605">
        <ele>239</ele>
        <time>2020-02-22T13:55:49.000Z</time>
      </trkpt>
      <trkpt lat="49.19523" lon="6.66068">
        <ele>239</ele>
        <time>2020-02-22T13:55:59.000Z</time>
      </trkpt>
      <trkpt lat="49.19519" lon="6.66086">
        <ele>239</ele>
        <time>2020-02-22T13:56:09.000Z</time>
      </trkpt>
      <trkpt lat="49.19516" lon="6.66103">
        <ele>239</ele>
        <time>2020-02-22T13:56:19.000Z</time>
      </trkpt>
      <trkpt lat="49.19513" lon="6.66118">
        <ele>240</ele>
        <time>2020-02-22T13:56:29.000Z</time>
      </trkpt>
      <trkpt lat="49.19509" lon="6.66136">
        <ele>240</ele>
        <time>2020-02-22T13:56:39.000Z</time>
      </trkpt>
      <trkpt lat="49.19505" lon="6.66154">
        <ele>240</ele>
        <time>2020-02-22T13:56:49.000Z</time>
      </trkpt>
      <trkpt lat="49.19501" lon="6.66173">
        <ele>240</ele>
        <time>2020-02-22T13:56:59.000Z</time>
      </trkpt>
      <trkpt lat="49.19496" lon="6.66191">
        <ele>238</ele>
        <time>2020-02-22T13:57:09.000Z</time>
      </trkpt>
      <trkpt lat="49.19491" lon="6.66209">
        <ele>238</ele>
        <time>2020-02-22T13:57:19.000Z</time>
      </trkpt>
      <trkpt lat="49.19489" lon="6.66227">
        <ele>239</ele>
        <time>2020-02-22T13:57:29.000Z</time>
      </trkpt>
      <trkpt lat="49.19489" lon="6.66244">
        <ele>239</ele>
        <time>2020-02-22T13:57:39.000Z</time>
      </trkpt>
      <trkpt lat="49.19488" lon="6.66265">
        <ele>239</ele>
        <time>2020-02-22T13:57:49.000Z</time>
      </trkpt>
      <trkpt lat="49.1949" lon="6.66286">
        <ele>239</ele>
        <time>2020-02-22T13:57:59.000Z</time>
      </trkpt>
      <trkpt lat="49.19494" lon="6.66304">
        <ele>239</ele>
        <time>2020-02-22T13:58:09.000Z</time>
      </trkpt>
      <trkpt lat="49.19497" lon="6.66322">
        <ele>239</ele>
        <time>2020-02-22T13:58:19.000Z</time>
      </trkpt>
      <trkpt lat="49.195" lon="6.66344">
        <ele>239</ele>
        <time>2020-02-22T13:58:29.000Z</time>
      </trkpt>
      <trkpt lat="49.19504" lon="6.66365">
        <ele>246</ele>
        <time>2020-02-22T13:58:39.000Z</time>
      </trkpt>
      <trkpt lat="49.19507" lon="6.66384">
        <ele>247</ele>
        <time>2020-02-22T13:58:49.000Z</time>
      </trkpt>
      <trkpt lat="49.19504" lon="6.66403">
        <ele>245</ele>
        <time>2020-02-22T13:58:59.000Z</time>
      </trkpt>
      <trkpt lat="49.19503" lon="6.66423">
        <ele>245</ele>
        <time>2020-02-22T13:59:09.000Z</time>
      </trkpt>
      <trkpt lat="49.195" lon="6.66436">
        <ele>241</ele>
        <time>2020-02-22T13:59:19.000Z</time>
      </trkpt>
      <trkpt lat="49.19496" lon="6.6646">
        <ele>240</ele>
        <time>2020-02-22T13:59:29.000Z</time>
      </trkpt>
      <trkpt lat="49.19496" lon="6.6647">
        <ele>240</ele>
        <time>2020-02-22T13:59:39.000Z</time>
      </trkpt>
      <trkpt lat="49.19506" lon="6.66473">
        <ele>247</ele>
        <time>2020-02-22T13:59:49.000Z</time>
      </trkpt>
      <trkpt lat="49.19516" lon="6.6647">
        <ele>248</ele>
        <time>2020-02-22T13:59:59.000Z</time>
      </trkpt>
      <trkpt lat="49.1953" lon="6.66472">
        <ele>249</ele>
        <time>2020-02-22T14:00:09.000Z</time>
      </trkpt>
      <trkpt lat="49.19544" lon="6.66481">
        <ele>250</ele>
        <time>2020-02-22T14:00:19.000Z</time>
      </trkpt>
      <trkpt lat="49.19552" lon="6.66489">
        <ele>251</ele>
        <time>2020-02-22T14:00:29.000Z</time>
      </trkpt>
      <trkpt lat="49.19555" lon="6.665">
        <ele>252</ele>
        <time>2020-02-22T14:00:39.000Z</time>
      </trkpt>
      <trkpt lat="49.19564" lon="6.66506">
        <ele>253</ele>
        <time>2020-02-22T14:00:49.000Z</time>
      </trkpt>
      <trkpt lat="49.19568" lon="6.66519">
        <ele>253</ele>
        <time>2020-02-22T14:00:59.000Z</time>
      </trkpt>
      <trkpt lat="49.19572" lon="6.66533">
        <ele>252</ele>
        <time>2020-02-22T14:01:09.000Z</time>
      </trkpt>
      <trkpt lat="49.19574" lon="6.66545">
        <ele>252</ele>
        <time>2020-02-22T14:01:19.000Z</time>
      </trkpt>
      <trkpt lat="49.19574" lon="6.66568">
        <ele>254</ele>
        <time>2020-02-22T14:01:29.000Z</time>
      </trkpt>
      <trkpt lat="49.19574" lon="6.66588">
        <ele>255</ele>
        <time>2020-02-22T14:01:39.000Z</time>
      </trkpt>
      <trkpt lat="49.1957" lon="6.66611">
        <ele>252</ele>
        <time>2020-02-22T14:01:49.000Z</time>
      </trkpt>
      <trkpt lat="49.1957" lon="6.66636">
        <ele>251</ele>
        <time>2020-02-22T14:01:59.000Z</time>
      </trkpt>
      <trkpt lat="49.19572" lon="6.66654">
        <ele>252</ele>
        <time>2020-02-22T14:02:09.000Z</time>
      </trkpt>
      <trkpt lat="49.19574" lon="6.66667">
        <ele>253</ele>
        <time>2020-02-22T14:02:19.000Z</time>
      </trkpt>
      <trkpt lat="49.19577" lon="6.66682">
        <ele>252</ele>
        <time>2020-02-22T14:02:29.000Z</time>
      </trkpt>
      <trkpt lat="49.19578" lon="6.66696">
        <ele>250</ele>
        <time>2020-02-22T14:02:39.000Z</time>
      </trkpt>
      <trkpt lat="49.1958" lon="6.66711">
        <ele>250</ele>
        <time>2020-02-22T14:02:49.000Z</time>
      </trkpt>
      <trkpt lat="49.19582" lon="6.66734">
        <ele>251</ele>
        <time>2020-02-22T14:02:59.000Z</time>
      </trkpt>
      <trkpt lat="49.19586" lon="6.6676">
        <ele>253</ele>
        <time>2020-02-22T14:03:09.000Z</time>
      </trkpt>
      <trkpt lat="49.1959" lon="6.66779">
        <ele>253</ele>
        <time>2020-02-22T14:03:19.000Z</time>
      </trkpt>
      <trkpt lat="49.19593" lon="6.66796">
        <ele>253</ele>
        <time>2020-02-22T14:03:29.000Z</time>
      </trkpt>
      <trkpt lat="49.19598" lon="6.66813">
        <ele>252</ele>
        <time>2020-02-22T14:03:39.000Z</time>
      </trkpt>
      <trkpt lat="49.19603" lon="6.66834">
        <ele>250</ele>
        <time>2020-02-22T14:03:49.000Z</time>
      </trkpt>
      <trkpt lat="49.19609" lon="6.66861">
        <ele>251</ele>
        <time>2020-02-22T14:03:59.000Z</time>
      </trkpt>
      <trkpt lat="49.19614" lon="6.66884">
        <ele>251</ele>
        <time>2020-02-22T14:04:09.000Z</time>
      </trkpt>
      <trkpt lat="49.19618" lon="6.66902">
        <ele>250</ele>
        <time>2020-02-22T14:04:19.000Z</time>
      </trkpt>
      <trkpt lat="49.19619" lon="6.66921">
        <ele>247</ele>
        <time>2020-02-22T14:04:29.000Z</time>
      </trkpt>
      <trkpt lat="49.19622" lon="6.66942">
        <ele>247</ele>
        <time>2020-02-22T14:04:39.000Z</time>
      </trkpt>
      <trkpt lat="49.19627" lon="6.66961">
        <ele>246</ele>
        <time>2020-02-22T14:04:49.000Z</time>
      </trkpt>
      <trkpt lat="49.1963" lon="6.66982">
        <ele>246</ele>
        <time>2020-02-22T14:04:59.000Z</time>
      </trkpt>
      <trkpt lat="49.19629" lon="6.67004">
        <ele>241</ele>
        <time>2020-02-22T14:05:09.000Z</time>
      </trkpt>
      <trkpt lat="49.19623" lon="6.67025">
        <ele>241</ele>
        <time>2020-02-22T14:05:19.000Z</time>
      </trkpt>
      <trkpt lat="49.19613" lon="6.67046">
        <ele>240</ele>
        <time>2020-02-22T14:05:29.000Z</time>
      </trkpt>
      <trkpt lat="49.19601" lon="6.67062">
        <ele>239</ele>
        <time>2020-02-22T14:05:39.000Z</time>
      </trkpt>
      <trkpt lat="49.19592" lon="6.67073">
        <ele>238</ele>
        <time>2020-02-22T14:05:49.000Z</time>
      </trkpt>
      <trkpt lat="49.19582" lon="6.67087">
        <ele>236</ele>
        <time>2020-02-22T14:05:59.000Z</time>
      </trkpt>
      <trkpt lat="49.19571" lon="6.67101">
        <ele>234</ele>
        <time>2020-02-22T14:06:09.000Z</time>
      </trkpt>
      <trkpt lat="49.19561" lon="6.67117">
        <ele>233</ele>
        <time>2020-02-22T14:06:19.000Z</time>
      </trkpt>
      <trkpt lat="49.19552" lon="6.67134">
        <ele>233</ele>
        <time>2020-02-22T14:06:29.000Z</time>
      </trkpt>
      <trkpt lat="49.19543" lon="6.67148">
        <ele>232</ele>
        <time>2020-02-22T14:06:39.000Z</time>
      </trkpt>
      <trkpt lat="49.19534" lon="6.67163">
        <ele>232</ele>
        <time>2020-02-22T14:06:49.000Z</time>
      </trkpt>
      <trkpt lat="49.19525" lon="6.67179">
        <ele>231</ele>
        <time>2020-02-22T14:06:59.000Z</time>
      </trkpt>
      <trkpt lat="49.19516" lon="6.67195">
        <ele>231</ele>
        <time>2020-02-22T14:07:09.000Z</time>
      </trkpt>
      <trkpt lat="49.1951" lon="6.6721">
        <ele>230</ele>
        <time>2020-02-22T14:07:19.000Z</time>
      </trkpt>
      <trkpt lat="49.19501" lon="6.67226">
        <ele>230</ele>
        <time>2020-02-22T14:07:29.000Z</time>
      </trkpt>
      <trkpt lat="49.19492" lon="6.67243">
        <ele>228</ele>
        <time>2020-02-22T14:07:39.000Z</time>
      </trkpt>
      <trkpt lat="49.19486" lon="6.67257">
        <ele>227</ele>
        <time>2020-02-22T14:07:49.000Z</time>
      </trkpt>
      <trkpt lat="49.19481" lon="6.67275">
        <ele>227</ele>
        <time>2020-02-22T14:07:59.000Z</time>
      </trkpt>
      <trkpt lat="49.19477" lon="6.67285">
        <ele>227</ele>
        <time>2020-02-22T14:08:09.000Z</time>
      </trkpt>
      <trkpt lat="49.19473" lon="6.67292">
        <ele>227</ele>
        <time>2020-02-22T14:08:19.000Z</time>
      </trkpt>
      <trkpt lat="49.19467" lon="6.67301">
        <ele>227</ele>
        <time>2020-02-22T14:08:29.000Z</time>
      </trkpt>
      <trkpt lat="49.19461" lon="6.67316">
        <ele>227</ele>
        <time>2020-02-22T14:08:39.000Z</time>
      </trkpt>
      <trkpt lat="49.19452" lon="6.67331">
        <ele>227</ele>
        <time>2020-02-22T14:08:49.000Z</time>
      </trkpt>
      <trkpt lat="49.19444" lon="6.67352">
        <ele>227</ele>
        <time>2020-02-22T14:08:59.000Z</time>
      </trkpt>
      <trkpt lat="49.19437" lon="6.67368">
        <ele>227</ele>
        <time>2020-02-22T14:09:09.000Z</time>
      </trkpt>
      <trkpt lat="49.1943" lon="6.67386">
        <ele>227</ele>
        <time>2020-02-22T14:09:19.000Z</time>
      </trkpt>
      <trkpt lat="49.19424" lon="6.67404">
        <ele>227</ele>
        <time>2020-02-22T14:09:29.000Z</time>
      </trkpt>
      <trkpt lat="49.19418" lon="6.6742">
        <ele>226</ele>
        <time>2020-02-22T14:09:39.000Z</time>
      </trkpt>
      <trkpt lat="49.19411" lon="6.67436">
        <ele>225</ele>
        <time>2020-02-22T14:09:49.000Z</time>
      </trkpt>
      <trkpt lat="49.19404" lon="6.67451">
        <ele>225</ele>
        <time>2020-02-22T14:09:59.000Z</time>
      </trkpt>
      <trkpt lat="49.19397" lon="6.67466">
        <ele>225</ele>
        <time>2020-02-22T14:10:09.000Z</time>
      </trkpt>
      <trkpt lat="49.19389" lon="6.67481">
        <ele>224</ele>
        <time>2020-02-22T14:10:19.000Z</time>
      </trkpt>
      <trkpt lat="49.1938" lon="6.6749">
        <ele>224</ele>
        <time>2020-02-22T14:10:29.000Z</time>
      </trkpt>
      <trkpt lat="49.19366" lon="6.67496">
        <ele>224</ele>
        <time>2020-02-22T14:10:39.000Z</time>
      </trkpt>
      <trkpt lat="49.1936" lon="6.67514">
        <ele>224</ele>
        <time>2020-02-22T14:10:49.000Z</time>
      </trkpt>
      <trkpt lat="49.19358" lon="6.67527">
        <ele>224</ele>
        <time>2020-02-22T14:10:59.000Z</time>
      </trkpt>
      <trkpt lat="49.19355" lon="6.67544">
        <ele>224</ele>
        <time>2020-02-22T14:11:09.000Z</time>
      </trkpt>
      <trkpt lat="49.19353" lon="6.6756">
        <ele>224</ele>
        <time>2020-02-22T14:11:19.000Z</time>
      </trkpt>
      <trkpt lat="49.19351" lon="6.67579">
        <ele>223</ele>
        <time>2020-02-22T14:11:29.000Z</time>
      </trkpt>
      <trkpt lat="49.19349" lon="6.67599">
        <ele>224</ele>
        <time>2020-02-22T14:11:39.000Z</time>
      </trkpt>
      <trkpt lat="49.19344" lon="6.67619">
        <ele>224</ele>
        <time>2020-02-22T14:11:49.000Z</time>
      </trkpt>
      <trkpt lat="49.19335" lon="6.67641">
        <ele>224</ele>
        <time>2020-02-22T14:11:59.000Z</time>
      </trkpt>
      <trkpt lat="49.19327" lon="6.67659">
        <ele>222</ele>
        <time>2020-02-22T14:12:09.000Z</time>
      </trkpt>
      <trkpt lat="49.19318" lon="6.67671">
        <ele>221</ele>
        <time>2020-02-22T14:12:19.000Z</time>
      </trkpt>
      <trkpt lat="49.19311" lon="6.67674">
        <ele>221</ele>
        <time>2020-02-22T14:12:29.000Z</time>
      </trkpt>
      <trkpt lat="49.1931" lon="6.67681">
        <ele>220</ele>
        <time>2020-02-22T14:12:39.000Z</time>
      </trkpt>
      <trkpt lat="49.19312" lon="6.67687">
        <ele>220</ele>
        <time>2020-02-22T14:12:49.000Z</time>
      </trkpt>
      <trkpt lat="49.19317" lon="6.67701">
        <ele>220</ele>
        <time>2020-02-22T14:12:59.000Z</time>
      </trkpt>
      <trkpt lat="49.19312" lon="6.67723">
        <ele>220</ele>
        <time>2020-02-22T14:13:09.000Z</time>
      </trkpt>
      <trkpt lat="49.19305" lon="6.67739">
        <ele>220</ele>
        <time>2020-02-22T14:13:19.000Z</time>
      </trkpt>
      <trkpt lat="49.19296" lon="6.67752">
        <ele>219</ele>
        <time>2020-02-22T14:13:29.000Z</time>
      </trkpt>
      <trkpt lat="49.19285" lon="6.67768">
        <ele>219</ele>
        <time>2020-02-22T14:13:39.000Z</time>
      </trkpt>
      <trkpt lat="49.19279" lon="6.67784">
        <ele>219</ele>
        <time>2020-02-22T14:13:49.000Z</time>
      </trkpt>
      <trkpt lat="49.19272" lon="6.67804">
        <ele>219</ele>
        <time>2020-02-22T14:13:59.000Z</time>
      </trkpt>
      <trkpt lat="49.19265" lon="6.67822">
        <ele>218</ele>
        <time>2020-02-22T14:14:09.000Z</time>
      </trkpt>
      <trkpt lat="49.19256" lon="6.67836">
        <ele>218</ele>
        <time>2020-02-22T14:14:19.000Z</time>
      </trkpt>
      <trkpt lat="49.19247" lon="6.67853">
        <ele>218</ele>
        <time>2020-02-22T14:14:29.000Z</time>
      </trkpt>
      <trkpt lat="49.1924" lon="6.67868">
        <ele>217</ele>
        <time>2020-02-22T14:14:39.000Z</time>
      </trkpt>
      <trkpt lat="49.19235" lon="6.67885">
        <ele>218</ele>
        <time>2020-02-22T14:14:49.000Z</time>
      </trkpt>
      <trkpt lat="49.19227" lon="6.67903">
        <ele>218</ele>
        <time>2020-02-22T14:14:59.000Z</time>
      </trkpt>
      <trkpt lat="49.19217" lon="6.67919">
        <ele>219</ele>
        <time>2020-02-22T14:15:09.000Z</time>
      </trkpt>
      <trkpt lat="49.19208" lon="6.67935">
        <ele>219</ele>
        <time>2020-02-22T14:15:19.000Z</time>
      </trkpt>
      <trkpt lat="49.19202" lon="6.67951">
        <ele>219</ele>
        <time>2020-02-22T14:15:29.000Z</time>
      </trkpt>
      <trkpt lat="49.19194" lon="6.67963">
        <ele>219</ele>
        <time>2020-02-22T14:15:39.000Z</time>
      </trkpt>
      <trkpt lat="49.19189" lon="6.67981">
        <ele>220</ele>
        <time>2020-02-22T14:15:49.000Z</time>
      </trkpt>
      <trkpt lat="49.19183" lon="6.67997">
        <ele>222</ele>
        <time>2020-02-22T14:15:59.000Z</time>
      </trkpt>
      <trkpt lat="49.19177" lon="6.68008">
        <ele>224</ele>
        <time>2020-02-22T14:16:09.000Z</time>
      </trkpt>
      <trkpt lat="49.19175" lon="6.68019">
        <ele>224</ele>
        <time>2020-02-22T14:16:19.000Z</time>
      </trkpt>
      <trkpt lat="49.19169" lon="6.68029">
        <ele>224</ele>
        <time>2020-02-22T14:16:29.000Z</time>
      </trkpt>
      <trkpt lat="49.19162" lon="6.68039">
        <ele>229</ele>
        <time>2020-02-22T14:16:39.000Z</time>
      </trkpt>
      <trkpt lat="49.19155" lon="6.68049">
        <ele>230</ele>
        <time>2020-02-22T14:16:49.000Z</time>
      </trkpt>
      <trkpt lat="49.19151" lon="6.68058">
        <ele>230</ele>
        <time>2020-02-22T14:16:59.000Z</time>
      </trkpt>
      <trkpt lat="49.1915" lon="6.68066">
        <ele>230</ele>
        <time>2020-02-22T14:17:09.000Z</time>
      </trkpt>
      <trkpt lat="49.19142" lon="6.68082">
        <ele>230</ele>
        <time>2020-02-22T14:17:19.000Z</time>
      </trkpt>
      <trkpt lat="49.19134" lon="6.68093">
        <ele>232</ele>
        <time>2020-02-22T14:17:29.000Z</time>
      </trkpt>
      <trkpt lat="49.19127" lon="6.68105">
        <ele>232</ele>
        <time>2020-02-22T14:17:39.000Z</time>
      </trkpt>
      <trkpt lat="49.19111" lon="6.68124">
        <ele>233</ele>
        <time>2020-02-22T14:17:49.000Z</time>
      </trkpt>
      <trkpt lat="49.19097" lon="6.68136">
        <ele>233</ele>
        <time>2020-02-22T14:17:59.000Z</time>
      </trkpt>
      <trkpt lat="49.19084" lon="6.68149">
        <ele>232</ele>
        <time>2020-02-22T14:18:09.000Z</time>
      </trkpt>
      <trkpt lat="49.19073" lon="6.68165">
        <ele>233</ele>
        <time>2020-02-22T14:18:19.000Z</time>
      </trkpt>
      <trkpt lat="49.19063" lon="6.68178">
        <ele>233</ele>
        <time>2020-02-22T14:18:29.000Z</time>
      </trkpt>
      <trkpt lat="49.19053" lon="6.68189">
        <ele>233</ele>
        <time>2020-02-22T14:18:39.000Z</time>
      </trkpt>
      <trkpt lat="49.19043" lon="6.68199">
        <ele>233</ele>
        <time>2020-02-22T14:18:49.000Z</time>
      </trkpt>
      <trkpt lat="49.19034" lon="6.68211">
        <ele>233</ele>
        <time>2020-02-22T14:18:59.000Z</time>
      </trkpt>
      <trkpt lat="49.19021" lon="6.68219">
        <ele>234</ele>
        <time>2020-02-22T14:19:09.000Z</time>
      </trkpt>
      <trkpt lat="49.19009" lon="6.68224">
        <ele>234</ele>
        <time>2020-02-22T14:19:19.000Z</time>
      </trkpt>
      <trkpt lat="49.18997" lon="6.68229">
        <ele>236</ele>
        <time>2020-02-22T14:19:29.000Z</time>
      </trkpt>
      <trkpt lat="49.18988" lon="6.68234">
        <ele>236</ele>
        <time>2020-02-22T14:19:39.000Z</time>
      </trkpt>
      <trkpt lat="49.18986" lon="6.68233">
        <ele>236</ele>
        <time>2020-02-22T14:19:49.000Z</time>
      </trkpt>
      <trkpt lat="49.18989" lon="6.68219">
        <ele>236</ele>
        <time>2020-02-22T14:19:59.000Z</time>
      </trkpt>
      <trkpt lat="49.18993" lon="6.68223">
        <ele>236</ele>
        <time>2020-02-22T14:20:09.000Z</time>
      </trkpt>
      <trkpt lat="49.18983" lon="6.68242">
        <ele>236</ele>
        <time>2020-02-22T14:20:19.000Z</time>
      </trkpt>
      <trkpt lat="49.18973" lon="6.68251">
        <ele>236</ele>
        <time>2020-02-22T14:20:29.000Z</time>
      </trkpt>
      <trkpt lat="49.18964" lon="6.68257">
        <ele>236</ele>
        <time>2020-02-22T14:20:39.000Z</time>
      </trkpt>
      <trkpt lat="49.18957" lon="6.68264">
        <ele>236</ele>
        <time>2020-02-22T14:20:49.000Z</time>
      </trkpt>
      <trkpt lat="49.1894" lon="6.68272">
        <ele>237</ele>
        <time>2020-02-22T14:20:59.000Z</time>
      </trkpt>
      <trkpt lat="49.18929" lon="6.68278">
        <ele>237</ele>
        <time>2020-02-22T14:21:09.000Z</time>
      </trkpt>
      <trkpt lat="49.18918" lon="6.68283">
        <ele>237</ele>
        <time>2020-02-22T14:21:19.000Z</time>
      </trkpt>
      <trkpt lat="49.18907" lon="6.68287">
        <ele>238</ele>
        <time>2020-02-22T14:21:29.000Z</time>
      </trkpt>
      <trkpt lat="49.18895" lon="6.68291">
        <ele>238</ele>
        <time>2020-02-22T14:21:39.000Z</time>
      </trkpt>
      <trkpt lat="49.18886" lon="6.68295">
        <ele>238</ele>
        <time>2020-02-22T14:21:49.000Z</time>
      </trkpt>
      <trkpt lat="49.18876" lon="6.68299">
        <ele>238</ele>
        <time>2020-02-22T14:21:59.000Z</time>
      </trkpt>
      <trkpt lat="49.18864" lon="6.68302">
        <ele>239</ele>
        <time>2020-02-22T14:22:09.000Z</time>
      </trkpt>
      <trkpt lat="49.1885" lon="6.68308">
        <ele>239</ele>
        <time>2020-02-22T14:22:19.000Z</time>
      </trkpt>
      <trkpt lat="49.18837" lon="6.68313">
        <ele>239</ele>
        <time>2020-02-22T14:22:29.000Z</time>
      </trkpt>
      <trkpt lat="49.18824" lon="6.68316">
        <ele>238</ele>
        <time>2020-02-22T14:22:39.000Z</time>
      </trkpt>
      <trkpt lat="49.18813" lon="6.68319">
        <ele>238</ele>
        <time>2020-02-22T14:22:49.000Z</time>
      </trkpt>
      <trkpt lat="49.18803" lon="6.68323">
        <ele>238</ele>
        <time>2020-02-22T14:22:59.000Z</time>
      </trkpt>
      <trkpt lat="49.18794" lon="6.68323">
        <ele>237</ele>
        <time>2020-02-22T14:23:09.000Z</time>
      </trkpt>
      <trkpt lat="49.18784" lon="6.68328">
        <ele>237</ele>
        <time>2020-02-22T14:23:19.000Z</time>
      </trkpt>
      <trkpt lat="49.18773" lon="6.68327">
        <ele>237</ele>
        <time>2020-02-22T14:23:29.000Z</time>
      </trkpt>
      <trkpt lat="49.18756" lon="6.68332">
        <ele>236</ele>
        <time>2020-02-22T14:23:39.000Z</time>
      </trkpt>
      <trkpt lat="49.18738" lon="6.68342">
        <ele>235</ele>
        <time>2020-02-22T14:23:49.000Z</time>
      </trkpt>
      <trkpt lat="49.18726" lon="6.68345">
        <ele>235</ele>
        <time>2020-02-22T14:23:59.000Z</time>
      </trkpt>
      <trkpt lat="49.18717" lon="6.68353">
        <ele>234</ele>
        <time>2020-02-22T14:24:09.000Z</time>
      </trkpt>
      <trkpt lat="49.18706" lon="6.68356">
        <ele>234</ele>
        <time>2020-02-22T14:24:19.000Z</time>
      </trkpt>
      <trkpt lat="49.18696" lon="6.68356">
        <ele>234</ele>
        <time>2020-02-22T14:24:29.000Z</time>
      </trkpt>
      <trkpt lat="49.1869" lon="6.68358">
        <ele>234</ele>
        <time>2020-02-22T14:24:39.000Z</time>
      </trkpt>
      <trkpt lat="49.18682" lon="6.68363">
        <ele>234</ele>
        <time>2020-02-22T14:24:49.000Z</time>
      </trkpt>
      <trkpt lat="49.18674" lon="6.68374">
        <ele>234</ele>
        <time>2020-02-22T14:24:59.000Z</time>
      </trkpt>
      <trkpt lat="49.18665" lon="6.68382">
        <ele>235</ele>
        <time>2020-02-22T14:25:09.000Z</time>
      </trkpt>
      <trkpt lat="49.18656" lon="6.68386">
        <ele>235</ele>
        <time>2020-02-22T14:25:19.000Z</time>
      </trkpt>
      <trkpt lat="49.18646" lon="6.68389">
        <ele>236</ele>
        <time>2020-02-22T14:25:29.000Z</time>
      </trkpt>
      <trkpt lat="49.18633" lon="6.68395">
        <ele>236</ele>
        <time>2020-02-22T14:25:39.000Z</time>
      </trkpt>
      <trkpt lat="49.18619" lon="6.68406">
        <ele>237</ele>
        <time>2020-02-22T14:25:49.000Z</time>
      </trkpt>
      <trkpt lat="49.18603" lon="6.68416">
        <ele>238</ele>
        <time>2020-02-22T14:25:59.000Z</time>
      </trkpt>
      <trkpt lat="49.1859" lon="6.68419">
        <ele>240</ele>
        <time>2020-02-22T14:26:09.000Z</time>
      </trkpt>
      <trkpt lat="49.18577" lon="6.68423">
        <ele>241</ele>
        <time>2020-02-22T14:26:19.000Z</time>
      </trkpt>
      <trkpt lat="49.18561" lon="6.68424">
        <ele>242</ele>
        <time>2020-02-22T14:26:29.000Z</time>
      </trkpt>
      <trkpt lat="49.18547" lon="6.68425">
        <ele>242</ele>
        <time>2020-02-22T14:26:39.000Z</time>
      </trkpt>
      <trkpt lat="49.18534" lon="6.68426">
        <ele>242</ele>
        <time>2020-02-22T14:26:49.000Z</time>
      </trkpt>
      <trkpt lat="49.1852" lon="6.68429">
        <ele>242</ele>
        <time>2020-02-22T14:26:59.000Z</time>
      </trkpt>
      <trkpt lat="49.18507" lon="6.6843">
        <ele>242</ele>
        <time>2020-02-22T14:27:09.000Z</time>
      </trkpt>
      <trkpt lat="49.18492" lon="6.68431">
        <ele>243</ele>
        <time>2020-02-22T14:27:19.000Z</time>
      </trkpt>
      <trkpt lat="49.1848" lon="6.68434">
        <ele>243</ele>
        <time>2020-02-22T14:27:29.000Z</time>
      </trkpt>
      <trkpt lat="49.18467" lon="6.68439">
        <ele>243</ele>
        <time>2020-02-22T14:27:39.000Z</time>
      </trkpt>
      <trkpt lat="49.18454" lon="6.6844">
        <ele>243</ele>
        <time>2020-02-22T14:27:49.000Z</time>
      </trkpt>
      <trkpt lat="49.18441" lon="6.68442">
        <ele>243</ele>
        <time>2020-02-22T14:27:59.000Z</time>
      </trkpt>
      <trkpt lat="49.18428" lon="6.68447">
        <ele>243</ele>
        <time>2020-02-22T14:28:09.000Z</time>
      </trkpt>
      <trkpt lat="49.18419" lon="6.68447">
        <ele>243</ele>
        <time>2020-02-22T14:28:19.000Z</time>
      </trkpt>
      <trkpt lat="49.18416" lon="6.68449">
        <ele>244</ele>
        <time>2020-02-22T14:28:29.000Z</time>
      </trkpt>
      <trkpt lat="49.18416" lon="6.68452">
        <ele>244</ele>
        <time>2020-02-22T14:28:40.000Z</time>
      </trkpt>
      <trkpt lat="49.18412" lon="6.68463">
        <ele>244</ele>
        <time>2020-02-22T14:28:50.000Z</time>
      </trkpt>
      <trkpt lat="49.18413" lon="6.68475">
        <ele>245</ele>
        <time>2020-02-22T14:29:00.000Z</time>
      </trkpt>
      <trkpt lat="49.18414" lon="6.68491">
        <ele>246</ele>
        <time>2020-02-22T14:29:10.000Z</time>
      </trkpt>
      <trkpt lat="49.18419" lon="6.68509">
        <ele>246</ele>
        <time>2020-02-22T14:29:20.000Z</time>
      </trkpt>
      <trkpt lat="49.18422" lon="6.68528">
        <ele>247</ele>
        <time>2020-02-22T14:29:30.000Z</time>
      </trkpt>
      <trkpt lat="49.18425" lon="6.68547">
        <ele>247</ele>
        <time>2020-02-22T14:29:40.000Z</time>
      </trkpt>
      <trkpt lat="49.18425" lon="6.68564">
        <ele>248</ele>
        <time>2020-02-22T14:29:50.000Z</time>
      </trkpt>
      <trkpt lat="49.18427" lon="6.68582">
        <ele>249</ele>
        <time>2020-02-22T14:30:00.000Z</time>
      </trkpt>
      <trkpt lat="49.18429" lon="6.686">
        <ele>248</ele>
        <time>2020-02-22T14:30:10.000Z</time>
      </trkpt>
      <trkpt lat="49.1843" lon="6.68621">
        <ele>248</ele>
        <time>2020-02-22T14:30:20.000Z</time>
      </trkpt>
      <trkpt lat="49.18431" lon="6.68642">
        <ele>248</ele>
        <time>2020-02-22T14:30:30.000Z</time>
      </trkpt>
      <trkpt lat="49.18432" lon="6.68661">
        <ele>248</ele>
        <time>2020-02-22T14:30:40.000Z</time>
      </trkpt>
      <trkpt lat="49.18438" lon="6.68682">
        <ele>247</ele>
        <time>2020-02-22T14:30:50.000Z</time>
      </trkpt>
      <trkpt lat="49.18441" lon="6.68701">
        <ele>246</ele>
        <time>2020-02-22T14:31:00.000Z</time>
      </trkpt>
      <trkpt lat="49.18438" lon="6.68714">
        <ele>246</ele>
        <time>2020-02-22T14:31:10.000Z</time>
      </trkpt>
      <trkpt lat="49.18435" lon="6.68717">
        <ele>246</ele>
        <time>2020-02-22T14:31:20.000Z</time>
      </trkpt>
      <trkpt lat="49.18425" lon="6.68729">
        <ele>246</ele>
        <time>2020-02-22T14:31:30.000Z</time>
      </trkpt>
      <trkpt lat="49.18414" lon="6.68742">
        <ele>249</ele>
        <time>2020-02-22T14:31:40.000Z</time>
      </trkpt>
      <trkpt lat="49.18399" lon="6.68753">
        <ele>249</ele>
        <time>2020-02-22T14:31:50.000Z</time>
      </trkpt>
      <trkpt lat="49.18385" lon="6.6876">
        <ele>250</ele>
        <time>2020-02-22T14:32:00.000Z</time>
      </trkpt>
      <trkpt lat="49.18374" lon="6.68767">
        <ele>250</ele>
        <time>2020-02-22T14:32:10.000Z</time>
      </trkpt>
      <trkpt lat="49.18362" lon="6.68775">
        <ele>251</ele>
        <time>2020-02-22T14:32:20.000Z</time>
      </trkpt>
      <trkpt lat="49.18351" lon="6.68784">
        <ele>251</ele>
        <time>2020-02-22T14:32:30.000Z</time>
      </trkpt>
      <trkpt lat="49.18342" lon="6.68793">
        <ele>251</ele>
        <time>2020-02-22T14:32:40.000Z</time>
      </trkpt>
      <trkpt lat="49.18331" lon="6.68802">
        <ele>253</ele>
        <time>2020-02-22T14:32:50.000Z</time>
      </trkpt>
      <trkpt lat="49.1832" lon="6.68811">
        <ele>253</ele>
        <time>2020-02-22T14:33:00.000Z</time>
      </trkpt>
      <trkpt lat="49.18309" lon="6.68818">
        <ele>253</ele>
        <time>2020-02-22T14:33:10.000Z</time>
      </trkpt>
      <trkpt lat="49.18297" lon="6.68827">
        <ele>254</ele>
        <time>2020-02-22T14:33:20.000Z</time>
      </trkpt>
      <trkpt lat="49.18286" lon="6.68836">
        <ele>252</ele>
        <time>2020-02-22T14:33:30.000Z</time>
      </trkpt>
      <trkpt lat="49.18275" lon="6.68845">
        <ele>253</ele>
        <time>2020-02-22T14:33:40.000Z</time>
      </trkpt>
      <trkpt lat="49.18264" lon="6.68856">
        <ele>253</ele>
        <time>2020-02-22T14:33:50.000Z</time>
      </trkpt>
      <trkpt lat="49.18258" lon="6.68872">
        <ele>253</ele>
        <time>2020-02-22T14:34:00.000Z</time>
      </trkpt>
      <trkpt lat="49.18262" lon="6.6889">
        <ele>252</ele>
        <time>2020-02-22T14:34:10.000Z</time>
      </trkpt>
      <trkpt lat="49.18267" lon="6.68904">
        <ele>252</ele>
        <time>2020-02-22T14:34:20.000Z</time>
      </trkpt>
      <trkpt lat="49.18272" lon="6.68916">
        <ele>252</ele>
        <time>2020-02-22T14:34:30.000Z</time>
      </trkpt>
      <trkpt lat="49.18277" lon="6.68925">
        <ele>254</ele>
        <time>2020-02-22T14:34:40.000Z</time>
      </trkpt>
      <trkpt lat="49.18285" lon="6.6894">
        <ele>255</ele>
        <time>2020-02-22T14:34:50.000Z</time>
      </trkpt>
      <trkpt lat="49.1829" lon="6.68957">
        <ele>255</ele>
        <time>2020-02-22T14:35:00.000Z</time>
      </trkpt>
      <trkpt lat="49.18297" lon="6.68973">
        <ele>256</ele>
        <time>2020-02-22T14:35:10.000Z</time>
      </trkpt>
      <trkpt lat="49.18303" lon="6.68991">
        <ele>257</ele>
        <time>2020-02-22T14:35:20.000Z</time>
      </trkpt>
      <trkpt lat="49.18307" lon="6.69008">
        <ele>260</ele>
        <time>2020-02-22T14:35:30.000Z</time>
      </trkpt>
      <trkpt lat="49.1831" lon="6.69014">
        <ele>260</ele>
        <time>2020-02-22T14:35:40.000Z</time>
      </trkpt>
      <trkpt lat="49.18311" lon="6.69014">
        <ele>260</ele>
        <time>2020-02-22T14:35:51.000Z</time>
      </trkpt>
      <trkpt lat="49.18311" lon="6.69024">
        <ele>261</ele>
        <time>2020-02-22T14:36:01.000Z</time>
      </trkpt>
      <trkpt lat="49.18306" lon="6.69042">
        <ele>261</ele>
        <time>2020-02-22T14:36:11.000Z</time>
      </trkpt>
      <trkpt lat="49.18296" lon="6.69055">
        <ele>262</ele>
        <time>2020-02-22T14:36:21.000Z</time>
      </trkpt>
      <trkpt lat="49.18285" lon="6.69063">
        <ele>262</ele>
        <time>2020-02-22T14:36:31.000Z</time>
      </trkpt>
      <trkpt lat="49.18269" lon="6.69075">
        <ele>262</ele>
        <time>2020-02-22T14:36:41.000Z</time>
      </trkpt>
      <trkpt lat="49.18257" lon="6.69085">
        <ele>263</ele>
        <time>2020-02-22T14:36:51.000Z</time>
      </trkpt>
      <trkpt lat="49.18251" lon="6.69097">
        <ele>264</ele>
        <time>2020-02-22T14:37:01.000Z</time>
      </trkpt>
      <trkpt lat="49.18246" lon="6.69107">
        <ele>261</ele>
        <time>2020-02-22T14:37:11.000Z</time>
      </trkpt>
      <trkpt lat="49.18244" lon="6.6912">
        <ele>261</ele>
        <time>2020-02-22T14:37:21.000Z</time>
      </trkpt>
      <trkpt lat="49.18245" lon="6.69135">
        <ele>261</ele>
        <time>2020-02-22T14:37:31.000Z</time>
      </trkpt>
      <trkpt lat="49.18249" lon="6.69149">
        <ele>262</ele>
        <time>2020-02-22T14:37:41.000Z</time>
      </trkpt>
      <trkpt lat="49.18253" lon="6.69171">
        <ele>265</ele>
        <time>2020-02-22T14:37:51.000Z</time>
      </trkpt>
      <trkpt lat="49.18259" lon="6.69193">
        <ele>266</ele>
        <time>2020-02-22T14:38:01.000Z</time>
      </trkpt>
      <trkpt lat="49.18266" lon="6.69213">
        <ele>267</ele>
        <time>2020-02-22T14:38:11.000Z</time>
      </trkpt>
      <trkpt lat="49.18272" lon="6.69227">
        <ele>267</ele>
        <time>2020-02-22T14:38:21.000Z</time>
      </trkpt>
      <trkpt lat="49.18275" lon="6.69238">
        <ele>267</ele>
        <time>2020-02-22T14:38:31.000Z</time>
      </trkpt>
      <trkpt lat="49.18281" lon="6.69254">
        <ele>269</ele>
        <time>2020-02-22T14:38:41.000Z</time>
      </trkpt>
      <trkpt lat="49.18285" lon="6.69274">
        <ele>269</ele>
        <time>2020-02-22T14:38:51.000Z</time>
      </trkpt>
      <trkpt lat="49.18289" lon="6.69291">
        <ele>269</ele>
        <time>2020-02-22T14:39:01.000Z</time>
      </trkpt>
      <trkpt lat="49.18291" lon="6.69304">
        <ele>270</ele>
        <time>2020-02-22T14:39:11.000Z</time>
      </trkpt>
      <trkpt lat="49.18294" lon="6.69318">
        <ele>270</ele>
        <time>2020-02-22T14:39:21.000Z</time>
      </trkpt>
      <trkpt lat="49.18301" lon="6.69339">
        <ele>269</ele>
        <time>2020-02-22T14:39:31.000Z</time>
      </trkpt>
      <trkpt lat="49.18307" lon="6.69361">
        <ele>269</ele>
        <time>2020-02-22T14:39:41.000Z</time>
      </trkpt>
      <trkpt lat="49.18316" lon="6.69384">
        <ele>269</ele>
        <time>2020-02-22T14:39:51.000Z</time>
      </trkpt>
      <trkpt lat="49.18322" lon="6.69401">
        <ele>269</ele>
        <time>2020-02-22T14:40:01.000Z</time>
      </trkpt>
      <trkpt lat="49.18326" lon="6.69415">
        <ele>269</ele>
        <time>2020-02-22T14:40:11.000Z</time>
      </trkpt>
      <trkpt lat="49.18329" lon="6.69429">
        <ele>268</ele>
        <time>2020-02-22T14:40:21.000Z</time>
      </trkpt>
      <trkpt lat="49.18325" lon="6.6944">
        <ele>267</ele>
        <time>2020-02-22T14:40:31.000Z</time>
      </trkpt>
      <trkpt lat="49.18317" lon="6.69458">
        <ele>267</ele>
        <time>2020-02-22T14:40:41.000Z</time>
      </trkpt>
      <trkpt lat="49.18302" lon="6.69464">
        <ele>267</ele>
        <time>2020-02-22T14:40:51.000Z</time>
      </trkpt>
      <trkpt lat="49.18286" lon="6.69469">
        <ele>267</ele>
        <time>2020-02-22T14:41:01.000Z</time>
      </trkpt>
      <trkpt lat="49.18277" lon="6.69473">
        <ele>267</ele>
        <time>2020-02-22T14:41:11.000Z</time>
      </trkpt>
      <trkpt lat="49.18269" lon="6.69477">
        <ele>267</ele>
        <time>2020-02-22T14:41:21.000Z</time>
      </trkpt>
      <trkpt lat="49.18263" lon="6.69483">
        <ele>267</ele>
        <time>2020-02-22T14:41:31.000Z</time>
      </trkpt>
      <trkpt lat="49.18256" lon="6.69493">
        <ele>268</ele>
        <time>2020-02-22T14:41:41.000Z</time>
      </trkpt>
      <trkpt lat="49.18247" lon="6.69501">
        <ele>269</ele>
        <time>2020-02-22T14:41:51.000Z</time>
      </trkpt>
      <trkpt lat="49.18237" lon="6.69508">
        <ele>270</ele>
        <time>2020-02-22T14:42:01.000Z</time>
      </trkpt>
      <trkpt lat="49.18227" lon="6.69516">
        <ele>271</ele>
        <time>2020-02-22T14:42:11.000Z</time>
      </trkpt>
      <trkpt lat="49.18216" lon="6.69526">
        <ele>272</ele>
        <time>2020-02-22T14:42:21.000Z</time>
      </trkpt>
      <trkpt lat="49.18201" lon="6.69542">
        <ele>272</ele>
        <time>2020-02-22T14:42:31.000Z</time>
      </trkpt>
      <trkpt lat="49.1819" lon="6.69554">
        <ele>273</ele>
        <time>2020-02-22T14:42:41.000Z</time>
      </trkpt>
      <trkpt lat="49.18184" lon="6.69566">
        <ele>273</ele>
        <time>2020-02-22T14:42:51.000Z</time>
      </trkpt>
      <trkpt lat="49.18177" lon="6.69577">
        <ele>273</ele>
        <time>2020-02-22T14:43:01.000Z</time>
      </trkpt>
      <trkpt lat="49.18168" lon="6.69587">
        <ele>274</ele>
        <time>2020-02-22T14:43:11.000Z</time>
      </trkpt>
      <trkpt lat="49.18158" lon="6.69599">
        <ele>274</ele>
        <time>2020-02-22T14:43:21.000Z</time>
      </trkpt>
      <trkpt lat="49.18149" lon="6.69606">
        <ele>275</ele>
        <time>2020-02-22T14:43:31.000Z</time>
      </trkpt>
      <trkpt lat="49.18141" lon="6.69611">
        <ele>275</ele>
        <time>2020-02-22T14:43:41.000Z</time>
      </trkpt>
      <trkpt lat="49.18128" lon="6.69619">
        <ele>275</ele>
        <time>2020-02-22T14:43:51.000Z</time>
      </trkpt>
      <trkpt lat="49.18114" lon="6.69632">
        <ele>275</ele>
        <time>2020-02-22T14:44:01.000Z</time>
      </trkpt>
      <trkpt lat="49.18099" lon="6.69639">
        <ele>275</ele>
        <time>2020-02-22T14:44:11.000Z</time>
      </trkpt>
      <trkpt lat="49.18084" lon="6.69648">
        <ele>275</ele>
        <time>2020-02-22T14:44:21.000Z</time>
      </trkpt>
      <trkpt lat="49.18074" lon="6.69649">
        <ele>274</ele>
        <time>2020-02-22T14:44:31.000Z</time>
      </trkpt>
      <trkpt lat="49.18065" lon="6.69651">
        <ele>274</ele>
        <time>2020-02-22T14:44:41.000Z</time>
      </trkpt>
      <trkpt lat="49.18054" lon="6.69653">
        <ele>274</ele>
        <time>2020-02-22T14:44:51.000Z</time>
      </trkpt>
      <trkpt lat="49.18042" lon="6.69653">
        <ele>274</ele>
        <time>2020-02-22T14:45:01.000Z</time>
      </trkpt>
      <trkpt lat="49.18031" lon="6.69659">
        <ele>274</ele>
        <time>2020-02-22T14:45:11.000Z</time>
      </trkpt>
      <trkpt lat="49.18021" lon="6.69665">
        <ele>274</ele>
        <time>2020-02-22T14:45:21.000Z</time>
      </trkpt>
      <trkpt lat="49.18007" lon="6.69669">
        <ele>275</ele>
        <time>2020-02-22T14:45:31.000Z</time>
      </trkpt>
      <trkpt lat="49.17992" lon="6.69672">
        <ele>274</ele>
        <time>2020-02-22T14:45:41.000Z</time>
      </trkpt>
      <trkpt lat="49.1798" lon="6.69678">
        <ele>274</ele>
        <time>2020-02-22T14:45:51.000Z</time>
      </trkpt>
      <trkpt lat="49.17971" lon="6.69683">
        <ele>274</ele>
        <time>2020-02-22T14:46:01.000Z</time>
      </trkpt>
      <trkpt lat="49.17966" lon="6.69688">
        <ele>274</ele>
        <time>2020-02-22T14:46:11.000Z</time>
      </trkpt>
      <trkpt lat="49.17966" lon="6.69694">
        <ele>274</ele>
        <time>2020-02-22T14:46:21.000Z</time>
      </trkpt>
      <trkpt lat="49.17968" lon="6.69695">
        <ele>274</ele>
        <time>2020-02-22T14:46:31.000Z</time>
      </trkpt>
      <trkpt lat="49.17962" lon="6.69697">
        <ele>274</ele>
        <time>2020-02-22T14:46:41.000Z</time>
      </trkpt>
      <trkpt lat="49.1796" lon="6.69699">
        <ele>274</ele>
        <time>2020-02-22T14:46:51.000Z</time>
      </trkpt>
      <trkpt lat="49.17944" lon="6.69699">
        <ele>274</ele>
        <time>2020-02-22T14:47:01.000Z</time>
      </trkpt>
      <trkpt lat="49.17935" lon="6.69703">
        <ele>274</ele>
        <time>2020-02-22T14:47:11.000Z</time>
      </trkpt>
      <trkpt lat="49.17927" lon="6.69706">
        <ele>274</ele>
        <time>2020-02-22T14:47:21.000Z</time>
      </trkpt>
      <trkpt lat="49.17922" lon="6.69712">
        <ele>274</ele>
        <time>2020-02-22T14:47:31.000Z</time>
      </trkpt>
      <trkpt lat="49.17904" lon="6.69719">
        <ele>272</ele>
        <time>2020-02-22T14:47:41.000Z</time>
      </trkpt>
      <trkpt lat="49.17901" lon="6.69718">
        <ele>272</ele>
        <time>2020-02-22T14:47:51.000Z</time>
      </trkpt>
      <trkpt lat="49.1789" lon="6.69723">
        <ele>272</ele>
        <time>2020-02-22T14:48:01.000Z</time>
      </trkpt>
      <trkpt lat="49.17881" lon="6.69736">
        <ele>272</ele>
        <time>2020-02-22T14:48:11.000Z</time>
      </trkpt>
      <trkpt lat="49.17872" lon="6.69745">
        <ele>272</ele>
        <time>2020-02-22T14:48:21.000Z</time>
      </trkpt>
      <trkpt lat="49.17857" lon="6.69752">
        <ele>275</ele>
        <time>2020-02-22T14:48:31.000Z</time>
      </trkpt>
      <trkpt lat="49.17839" lon="6.69755">
        <ele>274</ele>
        <time>2020-02-22T14:48:41.000Z</time>
      </trkpt>
      <trkpt lat="49.17826" lon="6.69761">
        <ele>272</ele>
        <time>2020-02-22T14:48:51.000Z</time>
      </trkpt>
      <trkpt lat="49.17813" lon="6.69764">
        <ele>271</ele>
        <time>2020-02-22T14:49:01.000Z</time>
      </trkpt>
      <trkpt lat="49.17797" lon="6.6976">
        <ele>269</ele>
        <time>2020-02-22T14:49:11.000Z</time>
      </trkpt>
      <trkpt lat="49.17781" lon="6.69752">
        <ele>267</ele>
        <time>2020-02-22T14:49:21.000Z</time>
      </trkpt>
      <trkpt lat="49.17769" lon="6.69741">
        <ele>263</ele>
        <time>2020-02-22T14:49:31.000Z</time>
      </trkpt>
      <trkpt lat="49.17757" lon="6.69731">
        <ele>263</ele>
        <time>2020-02-22T14:49:41.000Z</time>
      </trkpt>
      <trkpt lat="49.17746" lon="6.69727">
        <ele>261</ele>
        <time>2020-02-22T14:49:51.000Z</time>
      </trkpt>
      <trkpt lat="49.17736" lon="6.69732">
        <ele>261</ele>
        <time>2020-02-22T14:50:01.000Z</time>
      </trkpt>
      <trkpt lat="49.17727" lon="6.69741">
        <ele>261</ele>
        <time>2020-02-22T14:50:11.000Z</time>
      </trkpt>
      <trkpt lat="49.17718" lon="6.69751">
        <ele>262</ele>
        <time>2020-02-22T14:50:21.000Z</time>
      </trkpt>
      <trkpt lat="49.1771" lon="6.69764">
        <ele>263</ele>
        <time>2020-02-22T14:50:31.000Z</time>
      </trkpt>
      <trkpt lat="49.17702" lon="6.69774">
        <ele>263</ele>
        <time>2020-02-22T14:50:41.000Z</time>
      </trkpt>
      <trkpt lat="49.17693" lon="6.69782">
        <ele>263</ele>
        <time>2020-02-22T14:50:51.000Z</time>
      </trkpt>
      <trkpt lat="49.17683" lon="6.69784">
        <ele>263</ele>
        <time>2020-02-22T14:51:01.000Z</time>
      </trkpt>
      <trkpt lat="49.17673" lon="6.69783">
        <ele>263</ele>
        <time>2020-02-22T14:51:11.000Z</time>
      </trkpt>
      <trkpt lat="49.17659" lon="6.69788">
        <ele>263</ele>
        <time>2020-02-22T14:51:21.000Z</time>
      </trkpt>
      <trkpt lat="49.17642" lon="6.69793">
        <ele>263</ele>
        <time>2020-02-22T14:51:31.000Z</time>
      </trkpt>
      <trkpt lat="49.1763" lon="6.69794">
        <ele>263</ele>
        <time>2020-02-22T14:51:41.000Z</time>
      </trkpt>
      <trkpt lat="49.17617" lon="6.69793">
        <ele>263</ele>
        <time>2020-02-22T14:51:51.000Z</time>
      </trkpt>
      <trkpt lat="49.17602" lon="6.69791">
        <ele>264</ele>
        <time>2020-02-22T14:52:01.000Z</time>
      </trkpt>
      <trkpt lat="49.17587" lon="6.69789">
        <ele>264</ele>
        <time>2020-02-22T14:52:11.000Z</time>
      </trkpt>
      <trkpt lat="49.1757" lon="6.69787">
        <ele>265</ele>
        <time>2020-02-22T14:52:21.000Z</time>
      </trkpt>
      <trkpt lat="49.1756" lon="6.69785">
        <ele>265</ele>
        <time>2020-02-22T14:52:31.000Z</time>
      </trkpt>
      <trkpt lat="49.17549" lon="6.69786">
        <ele>265</ele>
        <time>2020-02-22T14:52:41.000Z</time>
      </trkpt>
      <trkpt lat="49.17533" lon="6.69782">
        <ele>265</ele>
        <time>2020-02-22T14:52:51.000Z</time>
      </trkpt>
      <trkpt lat="49.17517" lon="6.69783">
        <ele>265</ele>
        <time>2020-02-22T14:53:01.000Z</time>
      </trkpt>
      <trkpt lat="49.175" lon="6.69784">
        <ele>265</ele>
        <time>2020-02-22T14:53:11.000Z</time>
      </trkpt>
      <trkpt lat="49.17484" lon="6.69785">
        <ele>266</ele>
        <time>2020-02-22T14:53:21.000Z</time>
      </trkpt>
      <trkpt lat="49.17469" lon="6.69783">
        <ele>266</ele>
        <time>2020-02-22T14:53:31.000Z</time>
      </trkpt>
      <trkpt lat="49.17455" lon="6.69781">
        <ele>267</ele>
        <time>2020-02-22T14:53:41.000Z</time>
      </trkpt>
      <trkpt lat="49.17444" lon="6.69777">
        <ele>267</ele>
        <time>2020-02-22T14:53:51.000Z</time>
      </trkpt>
      <trkpt lat="49.17432" lon="6.6977">
        <ele>267</ele>
        <time>2020-02-22T14:54:01.000Z</time>
      </trkpt>
      <trkpt lat="49.17419" lon="6.69763">
        <ele>267</ele>
        <time>2020-02-22T14:54:11.000Z</time>
      </trkpt>
      <trkpt lat="49.17403" lon="6.69759">
        <ele>268</ele>
        <time>2020-02-22T14:54:21.000Z</time>
      </trkpt>
      <trkpt lat="49.17387" lon="6.69757">
        <ele>268</ele>
        <time>2020-02-22T14:54:31.000Z</time>
      </trkpt>
      <trkpt lat="49.17373" lon="6.69759">
        <ele>268</ele>
        <time>2020-02-22T14:54:41.000Z</time>
      </trkpt>
      <trkpt lat="49.17356" lon="6.69759">
        <ele>268</ele>
        <time>2020-02-22T14:54:51.000Z</time>
      </trkpt>
      <trkpt lat="49.17342" lon="6.69757">
        <ele>268</ele>
        <time>2020-02-22T14:55:01.000Z</time>
      </trkpt>
      <trkpt lat="49.17328" lon="6.69756">
        <ele>268</ele>
        <time>2020-02-22T14:55:11.000Z</time>
      </trkpt>
      <trkpt lat="49.17315" lon="6.69754">
        <ele>267</ele>
        <time>2020-02-22T14:55:21.000Z</time>
      </trkpt>
      <trkpt lat="49.17303" lon="6.69752">
        <ele>266</ele>
        <time>2020-02-22T14:55:31.000Z</time>
      </trkpt>
      <trkpt lat="49.1729" lon="6.6975">
        <ele>265</ele>
        <time>2020-02-22T14:55:41.000Z</time>
      </trkpt>
      <trkpt lat="49.17278" lon="6.69747">
        <ele>265</ele>
        <time>2020-02-22T14:55:51.000Z</time>
      </trkpt>
      <trkpt lat="49.17268" lon="6.69745">
        <ele>265</ele>
        <time>2020-02-22T14:56:01.000Z</time>
      </trkpt>
      <trkpt lat="49.17259" lon="6.69744">
        <ele>264</ele>
        <time>2020-02-22T14:56:11.000Z</time>
      </trkpt>
      <trkpt lat="49.17251" lon="6.69742">
        <ele>264</ele>
        <time>2020-02-22T14:56:21.000Z</time>
      </trkpt>
      <trkpt lat="49.17238" lon="6.69741">
        <ele>265</ele>
        <time>2020-02-22T14:56:31.000Z</time>
      </trkpt>
      <trkpt lat="49.17223" lon="6.69736">
        <ele>265</ele>
        <time>2020-02-22T14:56:41.000Z</time>
      </trkpt>
      <trkpt lat="49.17212" lon="6.69732">
        <ele>266</ele>
        <time>2020-02-22T14:56:51.000Z</time>
      </trkpt>
      <trkpt lat="49.17199" lon="6.69733">
        <ele>266</ele>
        <time>2020-02-22T14:57:01.000Z</time>
      </trkpt>
      <trkpt lat="49.17186" lon="6.6973">
        <ele>267</ele>
        <time>2020-02-22T14:57:11.000Z</time>
      </trkpt>
      <trkpt lat="49.17172" lon="6.69724">
        <ele>267</ele>
        <time>2020-02-22T14:57:21.000Z</time>
      </trkpt>
      <trkpt lat="49.17157" lon="6.69718">
        <ele>266</ele>
        <time>2020-02-22T14:57:31.000Z</time>
      </trkpt>
      <trkpt lat="49.17137" lon="6.69715">
        <ele>265</ele>
        <time>2020-02-22T14:57:41.000Z</time>
      </trkpt>
      <trkpt lat="49.17122" lon="6.69709">
        <ele>265</ele>
        <time>2020-02-22T14:57:51.000Z</time>
      </trkpt>
      <trkpt lat="49.17109" lon="6.69702">
        <ele>265</ele>
        <time>2020-02-22T14:58:01.000Z</time>
      </trkpt>
      <trkpt lat="49.17097" lon="6.69695">
        <ele>264</ele>
        <time>2020-02-22T14:58:11.000Z</time>
      </trkpt>
      <trkpt lat="49.17083" lon="6.6969">
        <ele>264</ele>
        <time>2020-02-22T14:58:21.000Z</time>
      </trkpt>
      <trkpt lat="49.17071" lon="6.69687">
        <ele>261</ele>
        <time>2020-02-22T14:58:31.000Z</time>
      </trkpt>
      <trkpt lat="49.17058" lon="6.69682">
        <ele>260</ele>
        <time>2020-02-22T14:58:41.000Z</time>
      </trkpt>
      <trkpt lat="49.17042" lon="6.6968">
        <ele>260</ele>
        <time>2020-02-22T14:58:51.000Z</time>
      </trkpt>
      <trkpt lat="49.1703" lon="6.69673">
        <ele>259</ele>
        <time>2020-02-22T14:59:01.000Z</time>
      </trkpt>
      <trkpt lat="49.17014" lon="6.69669">
        <ele>258</ele>
        <time>2020-02-22T14:59:11.000Z</time>
      </trkpt>
      <trkpt lat="49.17" lon="6.69667">
        <ele>257</ele>
        <time>2020-02-22T14:59:21.000Z</time>
      </trkpt>
      <trkpt lat="49.16987" lon="6.69664">
        <ele>256</ele>
        <time>2020-02-22T14:59:31.000Z</time>
      </trkpt>
      <trkpt lat="49.16976" lon="6.69661">
        <ele>256</ele>
        <time>2020-02-22T14:59:41.000Z</time>
      </trkpt>
      <trkpt lat="49.16969" lon="6.6966">
        <ele>256</ele>
        <time>2020-02-22T14:59:51.000Z</time>
      </trkpt>
      <trkpt lat="49.16959" lon="6.69658">
        <ele>256</ele>
        <time>2020-02-22T15:00:01.000Z</time>
      </trkpt>
      <trkpt lat="49.16943" lon="6.6966">
        <ele>256</ele>
        <time>2020-02-22T15:00:11.000Z</time>
      </trkpt>
      <trkpt lat="49.16925" lon="6.69661">
        <ele>256</ele>
        <time>2020-02-22T15:00:21.000Z</time>
      </trkpt>
      <trkpt lat="49.16912" lon="6.69664">
        <ele>257</ele>
        <time>2020-02-22T15:00:31.000Z</time>
      </trkpt>
      <trkpt lat="49.16898" lon="6.69664">
        <ele>258</ele>
        <time>2020-02-22T15:00:41.000Z</time>
      </trkpt>
      <trkpt lat="49.16885" lon="6.6966">
        <ele>259</ele>
        <time>2020-02-22T15:00:51.000Z</time>
      </trkpt>
      <trkpt lat="49.16868" lon="6.6966">
        <ele>261</ele>
        <time>2020-02-22T15:01:01.000Z</time>
      </trkpt>
      <trkpt lat="49.16851" lon="6.69657">
        <ele>262</ele>
        <time>2020-02-22T15:01:11.000Z</time>
      </trkpt>
      <trkpt lat="49.16836" lon="6.69654">
        <ele>263</ele>
        <time>2020-02-22T15:01:21.000Z</time>
      </trkpt>
      <trkpt lat="49.16824" lon="6.69653">
        <ele>265</ele>
        <time>2020-02-22T15:01:31.000Z</time>
      </trkpt>
      <trkpt lat="49.16809" lon="6.69645">
        <ele>264</ele>
        <time>2020-02-22T15:01:41.000Z</time>
      </trkpt>
      <trkpt lat="49.16795" lon="6.69636">
        <ele>264</ele>
        <time>2020-02-22T15:01:51.000Z</time>
      </trkpt>
      <trkpt lat="49.16778" lon="6.69625">
        <ele>264</ele>
        <time>2020-02-22T15:02:01.000Z</time>
      </trkpt>
      <trkpt lat="49.16764" lon="6.69613">
        <ele>264</ele>
        <time>2020-02-22T15:02:11.000Z</time>
      </trkpt>
      <trkpt lat="49.16752" lon="6.69606">
        <ele>264</ele>
        <time>2020-02-22T15:02:21.000Z</time>
      </trkpt>
      <trkpt lat="49.16744" lon="6.69603">
        <ele>266</ele>
        <time>2020-02-22T15:02:31.000Z</time>
      </trkpt>
      <trkpt lat="49.16734" lon="6.69604">
        <ele>266</ele>
        <time>2020-02-22T15:02:41.000Z</time>
      </trkpt>
      <trkpt lat="49.16726" lon="6.69602">
        <ele>267</ele>
        <time>2020-02-22T15:02:51.000Z</time>
      </trkpt>
      <trkpt lat="49.16713" lon="6.69598">
        <ele>267</ele>
        <time>2020-02-22T15:03:01.000Z</time>
      </trkpt>
      <trkpt lat="49.16699" lon="6.69594">
        <ele>268</ele>
        <time>2020-02-22T15:03:11.000Z</time>
      </trkpt>
      <trkpt lat="49.16686" lon="6.69592">
        <ele>268</ele>
        <time>2020-02-22T15:03:21.000Z</time>
      </trkpt>
      <trkpt lat="49.16674" lon="6.69589">
        <ele>269</ele>
        <time>2020-02-22T15:03:31.000Z</time>
      </trkpt>
      <trkpt lat="49.16659" lon="6.69587">
        <ele>269</ele>
        <time>2020-02-22T15:03:41.000Z</time>
      </trkpt>
      <trkpt lat="49.16645" lon="6.6958">
        <ele>268</ele>
        <time>2020-02-22T15:03:51.000Z</time>
      </trkpt>
      <trkpt lat="49.16629" lon="6.69574">
        <ele>268</ele>
        <time>2020-02-22T15:04:01.000Z</time>
      </trkpt>
      <trkpt lat="49.16612" lon="6.69566">
        <ele>267</ele>
        <time>2020-02-22T15:04:11.000Z</time>
      </trkpt>
      <trkpt lat="49.16604" lon="6.69565">
        <ele>267</ele>
        <time>2020-02-22T15:04:21.000Z</time>
      </trkpt>
      <trkpt lat="49.16605" lon="6.69568">
        <ele>267</ele>
        <time>2020-02-22T15:04:31.000Z</time>
      </trkpt>
      <trkpt lat="49.16602" lon="6.6956">
        <ele>267</ele>
        <time>2020-02-22T15:04:41.000Z</time>
      </trkpt>
      <trkpt lat="49.16593" lon="6.69546">
        <ele>267</ele>
        <time>2020-02-22T15:04:51.000Z</time>
      </trkpt>
      <trkpt lat="49.16581" lon="6.69527">
        <ele>263</ele>
        <time>2020-02-22T15:05:01.000Z</time>
      </trkpt>
      <trkpt lat="49.16568" lon="6.695">
        <ele>264</ele>
        <time>2020-02-22T15:05:11.000Z</time>
      </trkpt>
      <trkpt lat="49.1656" lon="6.69483">
        <ele>264</ele>
        <time>2020-02-22T15:05:21.000Z</time>
      </trkpt>
      <trkpt lat="49.16553" lon="6.69467">
        <ele>263</ele>
        <time>2020-02-22T15:05:31.000Z</time>
      </trkpt>
      <trkpt lat="49.16546" lon="6.6945">
        <ele>263</ele>
        <time>2020-02-22T15:05:41.000Z</time>
      </trkpt>
      <trkpt lat="49.16538" lon="6.69432">
        <ele>262</ele>
        <time>2020-02-22T15:05:51.000Z</time>
      </trkpt>
      <trkpt lat="49.16529" lon="6.69416">
        <ele>263</ele>
        <time>2020-02-22T15:06:01.000Z</time>
      </trkpt>
      <trkpt lat="49.16521" lon="6.69398">
        <ele>263</ele>
        <time>2020-02-22T15:06:11.000Z</time>
      </trkpt>
      <trkpt lat="49.16513" lon="6.69381">
        <ele>263</ele>
        <time>2020-02-22T15:06:21.000Z</time>
      </trkpt>
      <trkpt lat="49.16503" lon="6.69366">
        <ele>264</ele>
        <time>2020-02-22T15:06:31.000Z</time>
      </trkpt>
      <trkpt lat="49.16496" lon="6.69347">
        <ele>263</ele>
        <time>2020-02-22T15:06:41.000Z</time>
      </trkpt>
      <trkpt lat="49.16491" lon="6.69329">
        <ele>264</ele>
        <time>2020-02-22T15:06:51.000Z</time>
      </trkpt>
      <trkpt lat="49.16481" lon="6.69313">
        <ele>265</ele>
        <time>2020-02-22T15:07:01.000Z</time>
      </trkpt>
      <trkpt lat="49.16472" lon="6.69297">
        <ele>266</ele>
        <time>2020-02-22T15:07:11.000Z</time>
      </trkpt>
      <trkpt lat="49.16463" lon="6.69281">
        <ele>266</ele>
        <time>2020-02-22T15:07:21.000Z</time>
      </trkpt>
      <trkpt lat="49.16457" lon="6.69266">
        <ele>266</ele>
        <time>2020-02-22T15:07:31.000Z</time>
      </trkpt>
      <trkpt lat="49.16451" lon="6.6925">
        <ele>266</ele>
        <time>2020-02-22T15:07:41.000Z</time>
      </trkpt>
      <trkpt lat="49.16445" lon="6.69233">
        <ele>266</ele>
        <time>2020-02-22T15:07:51.000Z</time>
      </trkpt>
      <trkpt lat="49.16444" lon="6.69217">
        <ele>266</ele>
        <time>2020-02-22T15:08:01.000Z</time>
      </trkpt>
      <trkpt lat="49.1645" lon="6.69203">
        <ele>266</ele>
        <time>2020-02-22T15:08:11.000Z</time>
      </trkpt>
      <trkpt lat="49.1646" lon="6.6918">
        <ele>266</ele>
        <time>2020-02-22T15:08:21.000Z</time>
      </trkpt>
      <trkpt lat="49.16468" lon="6.69156">
        <ele>267</ele>
        <time>2020-02-22T15:08:31.000Z</time>
      </trkpt>
      <trkpt lat="49.16479" lon="6.69146">
        <ele>267</ele>
        <time>2020-02-22T15:08:41.000Z</time>
      </trkpt>
      <trkpt lat="49.16489" lon="6.69134">
        <ele>267</ele>
        <time>2020-02-22T15:08:51.000Z</time>
      </trkpt>
      <trkpt lat="49.16502" lon="6.69119">
        <ele>266</ele>
        <time>2020-02-22T15:09:01.000Z</time>
      </trkpt>
      <trkpt lat="49.16515" lon="6.69105">
        <ele>265</ele>
        <time>2020-02-22T15:09:11.000Z</time>
      </trkpt>
      <trkpt lat="49.16525" lon="6.69091">
        <ele>265</ele>
        <time>2020-02-22T15:09:21.000Z</time>
      </trkpt>
      <trkpt lat="49.16536" lon="6.6908">
        <ele>265</ele>
        <time>2020-02-22T15:09:31.000Z</time>
      </trkpt>
      <trkpt lat="49.16551" lon="6.6907">
        <ele>264</ele>
        <time>2020-02-22T15:09:41.000Z</time>
      </trkpt>
      <trkpt lat="49.16567" lon="6.6906">
        <ele>263</ele>
        <time>2020-02-22T15:09:51.000Z</time>
      </trkpt>
      <trkpt lat="49.16579" lon="6.69049">
        <ele>263</ele>
        <time>2020-02-22T15:10:01.000Z</time>
      </trkpt>
      <trkpt lat="49.16592" lon="6.6904">
        <ele>256</ele>
        <time>2020-02-22T15:10:11.000Z</time>
      </trkpt>
      <trkpt lat="49.16602" lon="6.69028">
        <ele>256</ele>
        <time>2020-02-22T15:10:21.000Z</time>
      </trkpt>
      <trkpt lat="49.16604" lon="6.69022">
        <ele>256</ele>
        <time>2020-02-22T15:10:31.000Z</time>
      </trkpt>
      <trkpt lat="49.16614" lon="6.69005">
        <ele>255</ele>
        <time>2020-02-22T15:10:41.000Z</time>
      </trkpt>
      <trkpt lat="49.16624" lon="6.68987">
        <ele>257</ele>
        <time>2020-02-22T15:10:51.000Z</time>
      </trkpt>
      <trkpt lat="49.16637" lon="6.68974">
        <ele>256</ele>
        <time>2020-02-22T15:11:01.000Z</time>
      </trkpt>
      <trkpt lat="49.16649" lon="6.68964">
        <ele>255</ele>
        <time>2020-02-22T15:11:11.000Z</time>
      </trkpt>
      <trkpt lat="49.16662" lon="6.68957">
        <ele>255</ele>
        <time>2020-02-22T15:11:21.000Z</time>
      </trkpt>
      <trkpt lat="49.16675" lon="6.68949">
        <ele>248</ele>
        <time>2020-02-22T15:11:31.000Z</time>
      </trkpt>
      <trkpt lat="49.16686" lon="6.68942">
        <ele>248</ele>
        <time>2020-02-22T15:11:41.000Z</time>
      </trkpt>
      <trkpt lat="49.16698" lon="6.6893">
        <ele>248</ele>
        <time>2020-02-22T15:11:51.000Z</time>
      </trkpt>
      <trkpt lat="49.16711" lon="6.68921">
        <ele>247</ele>
        <time>2020-02-22T15:12:01.000Z</time>
      </trkpt>
      <trkpt lat="49.16723" lon="6.68921">
        <ele>246</ele>
        <time>2020-02-22T15:12:11.000Z</time>
      </trkpt>
      <trkpt lat="49.16732" lon="6.68925">
        <ele>246</ele>
        <time>2020-02-22T15:12:21.000Z</time>
      </trkpt>
      <trkpt lat="49.16731" lon="6.68923">
        <ele>246</ele>
        <time>2020-02-22T15:12:31.000Z</time>
      </trkpt>
      <trkpt lat="49.16739" lon="6.6891">
        <ele>247</ele>
        <time>2020-02-22T15:12:41.000Z</time>
      </trkpt>
      <trkpt lat="49.16752" lon="6.6891">
        <ele>245</ele>
        <time>2020-02-22T15:12:51.000Z</time>
      </trkpt>
      <trkpt lat="49.16766" lon="6.68905">
        <ele>245</ele>
        <time>2020-02-22T15:13:01.000Z</time>
      </trkpt>
      <trkpt lat="49.16781" lon="6.68895">
        <ele>245</ele>
        <time>2020-02-22T15:13:11.000Z</time>
      </trkpt>
      <trkpt lat="49.16794" lon="6.68888">
        <ele>245</ele>
        <time>2020-02-22T15:13:21.000Z</time>
      </trkpt>
      <trkpt lat="49.16806" lon="6.68882">
        <ele>245</ele>
        <time>2020-02-22T15:13:31.000Z</time>
      </trkpt>
      <trkpt lat="49.16821" lon="6.6888">
        <ele>245</ele>
        <time>2020-02-22T15:13:41.000Z</time>
      </trkpt>
      <trkpt lat="49.16834" lon="6.68876">
        <ele>244</ele>
        <time>2020-02-22T15:13:51.000Z</time>
      </trkpt>
      <trkpt lat="49.16847" lon="6.68871">
        <ele>245</ele>
        <time>2020-02-22T15:14:01.000Z</time>
      </trkpt>
      <trkpt lat="49.1686" lon="6.68864">
        <ele>245</ele>
        <time>2020-02-22T15:14:11.000Z</time>
      </trkpt>
      <trkpt lat="49.16872" lon="6.68856">
        <ele>245</ele>
        <time>2020-02-22T15:14:21.000Z</time>
      </trkpt>
      <trkpt lat="49.16886" lon="6.6885">
        <ele>245</ele>
        <time>2020-02-22T15:14:31.000Z</time>
      </trkpt>
      <trkpt lat="49.169" lon="6.68844">
        <ele>246</ele>
        <time>2020-02-22T15:14:41.000Z</time>
      </trkpt>
      <trkpt lat="49.16914" lon="6.68838">
        <ele>246</ele>
        <time>2020-02-22T15:14:51.000Z</time>
      </trkpt>
      <trkpt lat="49.1693" lon="6.68834">
        <ele>247</ele>
        <time>2020-02-22T15:15:01.000Z</time>
      </trkpt>
      <trkpt lat="49.16941" lon="6.68834">
        <ele>247</ele>
        <time>2020-02-22T15:15:11.000Z</time>
      </trkpt>
      <trkpt lat="49.16949" lon="6.68836">
        <ele>247</ele>
        <time>2020-02-22T15:15:21.000Z</time>
      </trkpt>
      <trkpt lat="49.16951" lon="6.68837">
        <ele>247</ele>
        <time>2020-02-22T15:15:31.000Z</time>
      </trkpt>
      <trkpt lat="49.1695" lon="6.68829">
        <ele>248</ele>
        <time>2020-02-22T15:15:59.000Z</time>
      </trkpt>
      <trkpt lat="49.1696" lon="6.68834">
        <ele>248</ele>
        <time>2020-02-22T15:16:09.000Z</time>
      </trkpt>
      <trkpt lat="49.16966" lon="6.68836">
        <ele>248</ele>
        <time>2020-02-22T15:16:19.000Z</time>
      </trkpt>
      <trkpt lat="49.16974" lon="6.68835">
        <ele>248</ele>
        <time>2020-02-22T15:16:29.000Z</time>
      </trkpt>
      <trkpt lat="49.16981" lon="6.68838">
        <ele>249</ele>
        <time>2020-02-22T15:16:39.000Z</time>
      </trkpt>
      <trkpt lat="49.16984" lon="6.68839">
        <ele>249</ele>
        <time>2020-02-22T15:16:49.000Z</time>
      </trkpt>
      <trkpt lat="49.16984" lon="6.68837">
        <ele>249</ele>
        <time>2020-02-22T15:17:00.000Z</time>
      </trkpt>
      <trkpt lat="49.16986" lon="6.68824">
        <ele>249</ele>
        <time>2020-02-22T15:17:10.000Z</time>
      </trkpt>
      <trkpt lat="49.16999" lon="6.68815">
        <ele>249</ele>
        <time>2020-02-22T15:17:20.000Z</time>
      </trkpt>
      <trkpt lat="49.17013" lon="6.68804">
        <ele>249</ele>
        <time>2020-02-22T15:17:30.000Z</time>
      </trkpt>
      <trkpt lat="49.17027" lon="6.68798">
        <ele>249</ele>
        <time>2020-02-22T15:17:40.000Z</time>
      </trkpt>
      <trkpt lat="49.1704" lon="6.68796">
        <ele>249</ele>
        <time>2020-02-22T15:17:50.000Z</time>
      </trkpt>
      <trkpt lat="49.17052" lon="6.68793">
        <ele>249</ele>
        <time>2020-02-22T15:18:00.000Z</time>
      </trkpt>
      <trkpt lat="49.17064" lon="6.68787">
        <ele>248</ele>
        <time>2020-02-22T15:18:10.000Z</time>
      </trkpt>
      <trkpt lat="49.17075" lon="6.68784">
        <ele>248</ele>
        <time>2020-02-22T15:18:20.000Z</time>
      </trkpt>
      <trkpt lat="49.17085" lon="6.68781">
        <ele>248</ele>
        <time>2020-02-22T15:18:30.000Z</time>
      </trkpt>
      <trkpt lat="49.17097" lon="6.68778">
        <ele>248</ele>
        <time>2020-02-22T15:18:40.000Z</time>
      </trkpt>
      <trkpt lat="49.17108" lon="6.68771">
        <ele>248</ele>
        <time>2020-02-22T15:18:50.000Z</time>
      </trkpt>
      <trkpt lat="49.1712" lon="6.68771">
        <ele>248</ele>
        <time>2020-02-22T15:19:00.000Z</time>
      </trkpt>
      <trkpt lat="49.17133" lon="6.68765">
        <ele>248</ele>
        <time>2020-02-22T15:19:10.000Z</time>
      </trkpt>
      <trkpt lat="49.17145" lon="6.68761">
        <ele>248</ele>
        <time>2020-02-22T15:19:20.000Z</time>
      </trkpt>
      <trkpt lat="49.17158" lon="6.68757">
        <ele>248</ele>
        <time>2020-02-22T15:19:30.000Z</time>
      </trkpt>
      <trkpt lat="49.17172" lon="6.68758">
        <ele>247</ele>
        <time>2020-02-22T15:19:40.000Z</time>
      </trkpt>
      <trkpt lat="49.17184" lon="6.68757">
        <ele>248</ele>
        <time>2020-02-22T15:19:50.000Z</time>
      </trkpt>
      <trkpt lat="49.17195" lon="6.68758">
        <ele>248</ele>
        <time>2020-02-22T15:20:00.000Z</time>
      </trkpt>
      <trkpt lat="49.17208" lon="6.68754">
        <ele>247</ele>
        <time>2020-02-22T15:20:10.000Z</time>
      </trkpt>
      <trkpt lat="49.17221" lon="6.68753">
        <ele>247</ele>
        <time>2020-02-22T15:20:20.000Z</time>
      </trkpt>
      <trkpt lat="49.17235" lon="6.68753">
        <ele>247</ele>
        <time>2020-02-22T15:20:30.000Z</time>
      </trkpt>
      <trkpt lat="49.17251" lon="6.68754">
        <ele>246</ele>
        <time>2020-02-22T15:20:40.000Z</time>
      </trkpt>
      <trkpt lat="49.17266" lon="6.68751">
        <ele>247</ele>
        <time>2020-02-22T15:20:50.000Z</time>
      </trkpt>
      <trkpt lat="49.17277" lon="6.68746">
        <ele>247</ele>
        <time>2020-02-22T15:21:00.000Z</time>
      </trkpt>
      <trkpt lat="49.17285" lon="6.68737">
        <ele>247</ele>
        <time>2020-02-22T15:21:10.000Z</time>
      </trkpt>
      <trkpt lat="49.17294" lon="6.68727">
        <ele>247</ele>
        <time>2020-02-22T15:21:20.000Z</time>
      </trkpt>
      <trkpt lat="49.17302" lon="6.68716">
        <ele>248</ele>
        <time>2020-02-22T15:21:30.000Z</time>
      </trkpt>
      <trkpt lat="49.17312" lon="6.68705">
        <ele>247</ele>
        <time>2020-02-22T15:21:40.000Z</time>
      </trkpt>
      <trkpt lat="49.17324" lon="6.68697">
        <ele>247</ele>
        <time>2020-02-22T15:21:50.000Z</time>
      </trkpt>
      <trkpt lat="49.17334" lon="6.68677">
        <ele>248</ele>
        <time>2020-02-22T15:22:00.000Z</time>
      </trkpt>
      <trkpt lat="49.17339" lon="6.68661">
        <ele>247</ele>
        <time>2020-02-22T15:22:10.000Z</time>
      </trkpt>
      <trkpt lat="49.17345" lon="6.68647">
        <ele>247</ele>
        <time>2020-02-22T15:22:20.000Z</time>
      </trkpt>
      <trkpt lat="49.17353" lon="6.68633">
        <ele>246</ele>
        <time>2020-02-22T15:22:30.000Z</time>
      </trkpt>
      <trkpt lat="49.17362" lon="6.68616">
        <ele>246</ele>
        <time>2020-02-22T15:22:40.000Z</time>
      </trkpt>
      <trkpt lat="49.1737" lon="6.68597">
        <ele>246</ele>
        <time>2020-02-22T15:22:50.000Z</time>
      </trkpt>
      <trkpt lat="49.17374" lon="6.6858">
        <ele>246</ele>
        <time>2020-02-22T15:23:00.000Z</time>
      </trkpt>
      <trkpt lat="49.17374" lon="6.68561">
        <ele>246</ele>
        <time>2020-02-22T15:23:10.000Z</time>
      </trkpt>
      <trkpt lat="49.17374" lon="6.68544">
        <ele>246</ele>
        <time>2020-02-22T15:23:20.000Z</time>
      </trkpt>
      <trkpt lat="49.17374" lon="6.68528">
        <ele>246</ele>
        <time>2020-02-22T15:23:30.000Z</time>
      </trkpt>
      <trkpt lat="49.17373" lon="6.6851">
        <ele>246</ele>
        <time>2020-02-22T15:23:40.000Z</time>
      </trkpt>
      <trkpt lat="49.17372" lon="6.68489">
        <ele>246</ele>
        <time>2020-02-22T15:23:50.000Z</time>
      </trkpt>
      <trkpt lat="49.17372" lon="6.68474">
        <ele>246</ele>
        <time>2020-02-22T15:24:00.000Z</time>
      </trkpt>
      <trkpt lat="49.17375" lon="6.68455">
        <ele>245</ele>
        <time>2020-02-22T15:24:10.000Z</time>
      </trkpt>
      <trkpt lat="49.17369" lon="6.68447">
        <ele>245</ele>
        <time>2020-02-22T15:24:20.000Z</time>
      </trkpt>
      <trkpt lat="49.17367" lon="6.68431">
        <ele>245</ele>
        <time>2020-02-22T15:24:30.000Z</time>
      </trkpt>
      <trkpt lat="49.17364" lon="6.68409">
        <ele>243</ele>
        <time>2020-02-22T15:24:40.000Z</time>
      </trkpt>
      <trkpt lat="49.17365" lon="6.68404">
        <ele>243</ele>
        <time>2020-02-22T15:24:50.000Z</time>
      </trkpt>
      <trkpt lat="49.17375" lon="6.68401">
        <ele>243</ele>
        <time>2020-02-22T15:25:00.000Z</time>
      </trkpt>
      <trkpt lat="49.17386" lon="6.68386">
        <ele>242</ele>
        <time>2020-02-22T15:25:10.000Z</time>
      </trkpt>
      <trkpt lat="49.17395" lon="6.68372">
        <ele>242</ele>
        <time>2020-02-22T15:25:20.000Z</time>
      </trkpt>
      <trkpt lat="49.17391" lon="6.68367">
        <ele>242</ele>
        <time>2020-02-22T15:25:30.000Z</time>
      </trkpt>
      <trkpt lat="49.17387" lon="6.68361">
        <ele>242</ele>
        <time>2020-02-22T15:25:40.000Z</time>
      </trkpt>
      <trkpt lat="49.1738" lon="6.6834">
        <ele>242</ele>
        <time>2020-02-22T15:25:50.000Z</time>
      </trkpt>
      <trkpt lat="49.17375" lon="6.68318">
        <ele>240</ele>
        <time>2020-02-22T15:26:00.000Z</time>
      </trkpt>
      <trkpt lat="49.1737" lon="6.68301">
        <ele>240</ele>
        <time>2020-02-22T15:26:10.000Z</time>
      </trkpt>
      <trkpt lat="49.17366" lon="6.68286">
        <ele>240</ele>
        <time>2020-02-22T15:26:20.000Z</time>
      </trkpt>
      <trkpt lat="49.17362" lon="6.68275">
        <ele>241</ele>
        <time>2020-02-22T15:26:30.000Z</time>
      </trkpt>
      <trkpt lat="49.17357" lon="6.6826">
        <ele>241</ele>
        <time>2020-02-22T15:26:40.000Z</time>
      </trkpt>
      <trkpt lat="49.17353" lon="6.68245">
        <ele>241</ele>
        <time>2020-02-22T15:26:50.000Z</time>
      </trkpt>
      <trkpt lat="49.17345" lon="6.68227">
        <ele>241</ele>
        <time>2020-02-22T15:27:00.000Z</time>
      </trkpt>
      <trkpt lat="49.1734" lon="6.6821">
        <ele>240</ele>
        <time>2020-02-22T15:27:10.000Z</time>
      </trkpt>
      <trkpt lat="49.17333" lon="6.68193">
        <ele>243</ele>
        <time>2020-02-22T15:27:20.000Z</time>
      </trkpt>
      <trkpt lat="49.17327" lon="6.68172">
        <ele>242</ele>
        <time>2020-02-22T15:27:30.000Z</time>
      </trkpt>
      <trkpt lat="49.17322" lon="6.6815">
        <ele>241</ele>
        <time>2020-02-22T15:27:40.000Z</time>
      </trkpt>
      <trkpt lat="49.17314" lon="6.68129">
        <ele>241</ele>
        <time>2020-02-22T15:27:50.000Z</time>
      </trkpt>
      <trkpt lat="49.17307" lon="6.68107">
        <ele>240</ele>
        <time>2020-02-22T15:28:00.000Z</time>
      </trkpt>
      <trkpt lat="49.17302" lon="6.68088">
        <ele>240</ele>
        <time>2020-02-22T15:28:10.000Z</time>
      </trkpt>
      <trkpt lat="49.17298" lon="6.6807">
        <ele>238</ele>
        <time>2020-02-22T15:28:20.000Z</time>
      </trkpt>
      <trkpt lat="49.17294" lon="6.68051">
        <ele>238</ele>
        <time>2020-02-22T15:28:30.000Z</time>
      </trkpt>
      <trkpt lat="49.1729" lon="6.68032">
        <ele>238</ele>
        <time>2020-02-22T15:28:40.000Z</time>
      </trkpt>
      <trkpt lat="49.17285" lon="6.68014">
        <ele>239</ele>
        <time>2020-02-22T15:28:50.000Z</time>
      </trkpt>
      <trkpt lat="49.17279" lon="6.67994">
        <ele>239</ele>
        <time>2020-02-22T15:29:00.000Z</time>
      </trkpt>
      <trkpt lat="49.17275" lon="6.67972">
        <ele>239</ele>
        <time>2020-02-22T15:29:10.000Z</time>
      </trkpt>
      <trkpt lat="49.17272" lon="6.67951">
        <ele>239</ele>
        <time>2020-02-22T15:29:20.000Z</time>
      </trkpt>
      <trkpt lat="49.17267" lon="6.67932">
        <ele>240</ele>
        <time>2020-02-22T15:29:30.000Z</time>
      </trkpt>
      <trkpt lat="49.17263" lon="6.67914">
        <ele>240</ele>
        <time>2020-02-22T15:29:40.000Z</time>
      </trkpt>
      <trkpt lat="49.1726" lon="6.67897">
        <ele>239</ele>
        <time>2020-02-22T15:29:50.000Z</time>
      </trkpt>
      <trkpt lat="49.17255" lon="6.67881">
        <ele>239</ele>
        <time>2020-02-22T15:30:00.000Z</time>
      </trkpt>
      <trkpt lat="49.17251" lon="6.67864">
        <ele>238</ele>
        <time>2020-02-22T15:30:10.000Z</time>
      </trkpt>
      <trkpt lat="49.17246" lon="6.67843">
        <ele>242</ele>
        <time>2020-02-22T15:30:20.000Z</time>
      </trkpt>
      <trkpt lat="49.1724" lon="6.67824">
        <ele>240</ele>
        <time>2020-02-22T15:30:30.000Z</time>
      </trkpt>
      <trkpt lat="49.17231" lon="6.67809">
        <ele>240</ele>
        <time>2020-02-22T15:30:40.000Z</time>
      </trkpt>
      <trkpt lat="49.17223" lon="6.67797">
        <ele>240</ele>
        <time>2020-02-22T15:30:50.000Z</time>
      </trkpt>
      <trkpt lat="49.17215" lon="6.67789">
        <ele>240</ele>
        <time>2020-02-22T15:31:00.000Z</time>
      </trkpt>
      <trkpt lat="49.17206" lon="6.67783">
        <ele>240</ele>
        <time>2020-02-22T15:31:10.000Z</time>
      </trkpt>
      <trkpt lat="49.172" lon="6.67779">
        <ele>240</ele>
        <time>2020-02-22T15:31:20.000Z</time>
      </trkpt>
      <trkpt lat="49.17197" lon="6.67775">
        <ele>240</ele>
        <time>2020-02-22T15:31:30.000Z</time>
      </trkpt>
      <trkpt lat="49.17191" lon="6.6776">
        <ele>240</ele>
        <time>2020-02-22T15:31:40.000Z</time>
      </trkpt>
      <trkpt lat="49.17184" lon="6.67743">
        <ele>238</ele>
        <time>2020-02-22T15:31:50.000Z</time>
      </trkpt>
      <trkpt lat="49.17175" lon="6.67723">
        <ele>237</ele>
        <time>2020-02-22T15:32:00.000Z</time>
      </trkpt>
      <trkpt lat="49.17171" lon="6.67706">
        <ele>237</ele>
        <time>2020-02-22T15:32:10.000Z</time>
      </trkpt>
      <trkpt lat="49.17167" lon="6.67687">
        <ele>237</ele>
        <time>2020-02-22T15:32:20.000Z</time>
      </trkpt>
      <trkpt lat="49.17162" lon="6.67672">
        <ele>239</ele>
        <time>2020-02-22T15:32:30.000Z</time>
      </trkpt>
      <trkpt lat="49.17162" lon="6.6767">
        <ele>238</ele>
        <time>2020-02-22T15:32:40.000Z</time>
      </trkpt>
      <trkpt lat="49.17164" lon="6.67671">
        <ele>238</ele>
        <time>2020-02-22T15:32:54.000Z</time>
      </trkpt>
      <trkpt lat="49.17164" lon="6.67671">
        <ele>238</ele>
        <time>2020-02-22T15:33:22.000Z</time>
      </trkpt>
      <trkpt lat="49.17165" lon="6.67669">
        <ele>238</ele>
        <time>2020-02-22T15:34:19.000Z</time>
      </trkpt>
      <trkpt lat="49.17165" lon="6.6766">
        <ele>237</ele>
        <time>2020-02-22T15:34:29.000Z</time>
      </trkpt>
      <trkpt lat="49.17164" lon="6.67659">
        <ele>237</ele>
        <time>2020-02-22T15:34:58.000Z</time>
      </trkpt>
      <trkpt lat="49.17162" lon="6.67648">
        <ele>235</ele>
        <time>2020-02-22T15:35:08.000Z</time>
      </trkpt>
      <trkpt lat="49.17158" lon="6.67632">
        <ele>234</ele>
        <time>2020-02-22T15:35:18.000Z</time>
      </trkpt>
      <trkpt lat="49.17154" lon="6.67629">
        <ele>234</ele>
        <time>2020-02-22T15:35:28.000Z</time>
      </trkpt>
      <trkpt lat="49.17157" lon="6.6763">
        <ele>234</ele>
        <time>2020-02-22T15:36:30.000Z</time>
      </trkpt>
      <trkpt lat="49.17156" lon="6.6762">
        <ele>234</ele>
        <time>2020-02-22T15:36:40.000Z</time>
      </trkpt>
      <trkpt lat="49.17153" lon="6.67612">
        <ele>233</ele>
        <time>2020-02-22T15:36:50.000Z</time>
      </trkpt>
      <trkpt lat="49.17153" lon="6.67606">
        <ele>233</ele>
        <time>2020-02-22T15:37:03.000Z</time>
      </trkpt>
      <trkpt lat="49.17152" lon="6.67596">
        <ele>233</ele>
        <time>2020-02-22T15:37:13.000Z</time>
      </trkpt>
      <trkpt lat="49.17151" lon="6.67593">
        <ele>233</ele>
        <time>2020-02-22T15:37:26.000Z</time>
      </trkpt>
      <trkpt lat="49.1715" lon="6.67588">
        <ele>233</ele>
        <time>2020-02-22T15:37:36.000Z</time>
      </trkpt>
      <trkpt lat="49.17149" lon="6.67583">
        <ele>232</ele>
        <time>2020-02-22T15:37:46.000Z</time>
      </trkpt>
      <trkpt lat="49.17148" lon="6.67577">
        <ele>232</ele>
        <time>2020-02-22T15:37:56.000Z</time>
      </trkpt>
      <trkpt lat="49.17147" lon="6.67573">
        <ele>232</ele>
        <time>2020-02-22T15:38:15.000Z</time>
      </trkpt>
      <trkpt lat="49.17145" lon="6.67559">
        <ele>232</ele>
        <time>2020-02-22T15:38:25.000Z</time>
      </trkpt>
      <trkpt lat="49.17139" lon="6.67541">
        <ele>232</ele>
        <time>2020-02-22T15:38:35.000Z</time>
      </trkpt>
      <trkpt lat="49.17137" lon="6.67531">
        <ele>233</ele>
        <time>2020-02-22T15:38:45.000Z</time>
      </trkpt>
      <trkpt lat="49.17133" lon="6.67519">
        <ele>233</ele>
        <time>2020-02-22T15:38:55.000Z</time>
      </trkpt>
      <trkpt lat="49.17127" lon="6.67503">
        <ele>233</ele>
        <time>2020-02-22T15:39:05.000Z</time>
      </trkpt>
      <trkpt lat="49.17119" lon="6.67483">
        <ele>236</ele>
        <time>2020-02-22T15:39:15.000Z</time>
      </trkpt>
      <trkpt lat="49.17115" lon="6.67467">
        <ele>236</ele>
        <time>2020-02-22T15:39:25.000Z</time>
      </trkpt>
      <trkpt lat="49.1711" lon="6.67449">
        <ele>236</ele>
        <time>2020-02-22T15:39:35.000Z</time>
      </trkpt>
      <trkpt lat="49.17105" lon="6.6743">
        <ele>237</ele>
        <time>2020-02-22T15:39:45.000Z</time>
      </trkpt>
      <trkpt lat="49.17101" lon="6.67413">
        <ele>238</ele>
        <time>2020-02-22T15:39:55.000Z</time>
      </trkpt>
      <trkpt lat="49.17098" lon="6.67397">
        <ele>238</ele>
        <time>2020-02-22T15:40:05.000Z</time>
      </trkpt>
      <trkpt lat="49.17095" lon="6.67379">
        <ele>239</ele>
        <time>2020-02-22T15:40:15.000Z</time>
      </trkpt>
      <trkpt lat="49.17095" lon="6.67376">
        <ele>239</ele>
        <time>2020-02-22T15:40:25.000Z</time>
      </trkpt>
      <trkpt lat="49.17092" lon="6.67385">
        <ele>239</ele>
        <time>2020-02-22T15:41:11.000Z</time>
      </trkpt>
      <trkpt lat="49.1709" lon="6.67378">
        <ele>239</ele>
        <time>2020-02-22T15:41:21.000Z</time>
      </trkpt>
      <trkpt lat="49.17087" lon="6.67365">
        <ele>239</ele>
        <time>2020-02-22T15:41:31.000Z</time>
      </trkpt>
      <trkpt lat="49.17082" lon="6.67345">
        <ele>239</ele>
        <time>2020-02-22T15:41:41.000Z</time>
      </trkpt>
      <trkpt lat="49.1708" lon="6.67325">
        <ele>240</ele>
        <time>2020-02-22T15:41:51.000Z</time>
      </trkpt>
      <trkpt lat="49.17078" lon="6.67305">
        <ele>242</ele>
        <time>2020-02-22T15:42:01.000Z</time>
      </trkpt>
      <trkpt lat="49.17074" lon="6.67284">
        <ele>243</ele>
        <time>2020-02-22T15:42:11.000Z</time>
      </trkpt>
      <trkpt lat="49.1707" lon="6.67267">
        <ele>243</ele>
        <time>2020-02-22T15:42:21.000Z</time>
      </trkpt>
      <trkpt lat="49.17068" lon="6.67249">
        <ele>244</ele>
        <time>2020-02-22T15:42:31.000Z</time>
      </trkpt>
      <trkpt lat="49.17063" lon="6.67241">
        <ele>245</ele>
        <time>2020-02-22T15:42:41.000Z</time>
      </trkpt>
      <trkpt lat="49.17062" lon="6.67239">
        <ele>245</ele>
        <time>2020-02-22T15:42:58.000Z</time>
      </trkpt>
      <trkpt lat="49.17062" lon="6.67236">
        <ele>245</ele>
        <time>2020-02-22T15:43:08.000Z</time>
      </trkpt>
      <trkpt lat="49.17062" lon="6.67234">
        <ele>245</ele>
        <time>2020-02-22T15:44:18.000Z</time>
      </trkpt>
      <trkpt lat="49.17064" lon="6.67224">
        <ele>245</ele>
        <time>2020-02-22T15:44:28.000Z</time>
      </trkpt>
      <trkpt lat="49.17061" lon="6.67208">
        <ele>246</ele>
        <time>2020-02-22T15:44:38.000Z</time>
      </trkpt>
      <trkpt lat="49.17057" lon="6.67199">
        <ele>246</ele>
        <time>2020-02-22T15:44:48.000Z</time>
      </trkpt>
      <trkpt lat="49.17049" lon="6.67178">
        <ele>246</ele>
        <time>2020-02-22T15:44:58.000Z</time>
      </trkpt>
      <trkpt lat="49.17044" lon="6.67158">
        <ele>248</ele>
        <time>2020-02-22T15:45:08.000Z</time>
      </trkpt>
      <trkpt lat="49.17041" lon="6.67139">
        <ele>248</ele>
        <time>2020-02-22T15:45:18.000Z</time>
      </trkpt>
      <trkpt lat="49.17039" lon="6.67127">
        <ele>248</ele>
        <time>2020-02-22T15:45:28.000Z</time>
      </trkpt>
      <trkpt lat="49.17041" lon="6.67125">
        <ele>248</ele>
        <time>2020-02-22T15:45:38.000Z</time>
      </trkpt>
      <trkpt lat="49.17049" lon="6.67112">
        <ele>248</ele>
        <time>2020-02-22T15:45:48.000Z</time>
      </trkpt>
      <trkpt lat="49.17055" lon="6.67114">
        <ele>247</ele>
        <time>2020-02-22T15:45:58.000Z</time>
      </trkpt>
      <trkpt lat="49.17061" lon="6.671">
        <ele>247</ele>
        <time>2020-02-22T15:46:08.000Z</time>
      </trkpt>
      <trkpt lat="49.17069" lon="6.67094">
        <ele>246</ele>
        <time>2020-02-22T15:46:18.000Z</time>
      </trkpt>
      <trkpt lat="49.17081" lon="6.6709">
        <ele>246</ele>
        <time>2020-02-22T15:46:28.000Z</time>
      </trkpt>
      <trkpt lat="49.17093" lon="6.67081">
        <ele>243</ele>
        <time>2020-02-22T15:46:38.000Z</time>
      </trkpt>
      <trkpt lat="49.17104" lon="6.67071">
        <ele>241</ele>
        <time>2020-02-22T15:46:48.000Z</time>
      </trkpt>
      <trkpt lat="49.17114" lon="6.67071">
        <ele>240</ele>
        <time>2020-02-22T15:46:58.000Z</time>
      </trkpt>
      <trkpt lat="49.17122" lon="6.67081">
        <ele>239</ele>
        <time>2020-02-22T15:47:08.000Z</time>
      </trkpt>
      <trkpt lat="49.17134" lon="6.67096">
        <ele>242</ele>
        <time>2020-02-22T15:47:18.000Z</time>
      </trkpt>
      <trkpt lat="49.17149" lon="6.6711">
        <ele>241</ele>
        <time>2020-02-22T15:47:28.000Z</time>
      </trkpt>
      <trkpt lat="49.17158" lon="6.67123">
        <ele>242</ele>
        <time>2020-02-22T15:47:38.000Z</time>
      </trkpt>
      <trkpt lat="49.17166" lon="6.67136">
        <ele>243</ele>
        <time>2020-02-22T15:47:48.000Z</time>
      </trkpt>
      <trkpt lat="49.17174" lon="6.67149">
        <ele>240</ele>
        <time>2020-02-22T15:47:58.000Z</time>
      </trkpt>
      <trkpt lat="49.1718" lon="6.6716">
        <ele>241</ele>
        <time>2020-02-22T15:48:08.000Z</time>
      </trkpt>
      <trkpt lat="49.17187" lon="6.6717">
        <ele>242</ele>
        <time>2020-02-22T15:48:18.000Z</time>
      </trkpt>
      <trkpt lat="49.17197" lon="6.67182">
        <ele>241</ele>
        <time>2020-02-22T15:48:28.000Z</time>
      </trkpt>
      <trkpt lat="49.17209" lon="6.67195">
        <ele>241</ele>
        <time>2020-02-22T15:48:38.000Z</time>
      </trkpt>
      <trkpt lat="49.17221" lon="6.67209">
        <ele>241</ele>
        <time>2020-02-22T15:48:48.000Z</time>
      </trkpt>
      <trkpt lat="49.17232" lon="6.67223">
        <ele>241</ele>
        <time>2020-02-22T15:48:58.000Z</time>
      </trkpt>
      <trkpt lat="49.17244" lon="6.67238">
        <ele>241</ele>
        <time>2020-02-22T15:49:08.000Z</time>
      </trkpt>
      <trkpt lat="49.17254" lon="6.67248">
        <ele>240</ele>
        <time>2020-02-22T15:49:18.000Z</time>
      </trkpt>
      <trkpt lat="49.17264" lon="6.67258">
        <ele>242</ele>
        <time>2020-02-22T15:49:28.000Z</time>
      </trkpt>
      <trkpt lat="49.17278" lon="6.67264">
        <ele>243</ele>
        <time>2020-02-22T15:49:38.000Z</time>
      </trkpt>
      <trkpt lat="49.17289" lon="6.67275">
        <ele>244</ele>
        <time>2020-02-22T15:49:48.000Z</time>
      </trkpt>
      <trkpt lat="49.173" lon="6.67286">
        <ele>244</ele>
        <time>2020-02-22T15:49:58.000Z</time>
      </trkpt>
      <trkpt lat="49.17312" lon="6.67298">
        <ele>245</ele>
        <time>2020-02-22T15:50:08.000Z</time>
      </trkpt>
      <trkpt lat="49.17319" lon="6.67306">
        <ele>245</ele>
        <time>2020-02-22T15:50:18.000Z</time>
      </trkpt>
      <trkpt lat="49.17325" lon="6.67315">
        <ele>246</ele>
        <time>2020-02-22T15:50:28.000Z</time>
      </trkpt>
      <trkpt lat="49.17333" lon="6.67326">
        <ele>248</ele>
        <time>2020-02-22T15:50:38.000Z</time>
      </trkpt>
      <trkpt lat="49.17342" lon="6.67338">
        <ele>248</ele>
        <time>2020-02-22T15:50:48.000Z</time>
      </trkpt>
      <trkpt lat="49.17352" lon="6.67353">
        <ele>248</ele>
        <time>2020-02-22T15:50:58.000Z</time>
      </trkpt>
      <trkpt lat="49.17362" lon="6.67367">
        <ele>247</ele>
        <time>2020-02-22T15:51:08.000Z</time>
      </trkpt>
      <trkpt lat="49.17367" lon="6.67383">
        <ele>248</ele>
        <time>2020-02-22T15:51:18.000Z</time>
      </trkpt>
      <trkpt lat="49.17373" lon="6.67399">
        <ele>248</ele>
        <time>2020-02-22T15:51:28.000Z</time>
      </trkpt>
      <trkpt lat="49.17378" lon="6.67414">
        <ele>248</ele>
        <time>2020-02-22T15:51:38.000Z</time>
      </trkpt>
      <trkpt lat="49.17386" lon="6.6743">
        <ele>248</ele>
        <time>2020-02-22T15:51:48.000Z</time>
      </trkpt>
      <trkpt lat="49.17394" lon="6.67441">
        <ele>247</ele>
        <time>2020-02-22T15:51:58.000Z</time>
      </trkpt>
      <trkpt lat="49.17402" lon="6.6745">
        <ele>247</ele>
        <time>2020-02-22T15:52:08.000Z</time>
      </trkpt>
      <trkpt lat="49.17412" lon="6.67457">
        <ele>246</ele>
        <time>2020-02-22T15:52:18.000Z</time>
      </trkpt>
      <trkpt lat="49.17428" lon="6.67471">
        <ele>240</ele>
        <time>2020-02-22T15:52:28.000Z</time>
      </trkpt>
      <trkpt lat="49.17446" lon="6.67479">
        <ele>239</ele>
        <time>2020-02-22T15:52:38.000Z</time>
      </trkpt>
      <trkpt lat="49.17457" lon="6.67478">
        <ele>238</ele>
        <time>2020-02-22T15:52:48.000Z</time>
      </trkpt>
      <trkpt lat="49.17468" lon="6.67473">
        <ele>238</ele>
        <time>2020-02-22T15:52:58.000Z</time>
      </trkpt>
      <trkpt lat="49.17479" lon="6.67469">
        <ele>237</ele>
        <time>2020-02-22T15:53:08.000Z</time>
      </trkpt>
      <trkpt lat="49.17489" lon="6.67464">
        <ele>237</ele>
        <time>2020-02-22T15:53:18.000Z</time>
      </trkpt>
      <trkpt lat="49.17496" lon="6.67457">
        <ele>237</ele>
        <time>2020-02-22T15:53:28.000Z</time>
      </trkpt>
      <trkpt lat="49.17504" lon="6.67448">
        <ele>233</ele>
        <time>2020-02-22T15:53:38.000Z</time>
      </trkpt>
      <trkpt lat="49.17514" lon="6.6744">
        <ele>233</ele>
        <time>2020-02-22T15:53:48.000Z</time>
      </trkpt>
      <trkpt lat="49.17523" lon="6.67435">
        <ele>233</ele>
        <time>2020-02-22T15:53:58.000Z</time>
      </trkpt>
      <trkpt lat="49.17527" lon="6.67429">
        <ele>233</ele>
        <time>2020-02-22T15:54:08.000Z</time>
      </trkpt>
      <trkpt lat="49.17539" lon="6.67434">
        <ele>233</ele>
        <time>2020-02-22T15:54:18.000Z</time>
      </trkpt>
      <trkpt lat="49.17548" lon="6.67449">
        <ele>232</ele>
        <time>2020-02-22T15:54:28.000Z</time>
      </trkpt>
      <trkpt lat="49.17549" lon="6.67467">
        <ele>232</ele>
        <time>2020-02-22T15:54:38.000Z</time>
      </trkpt>
      <trkpt lat="49.17558" lon="6.67475">
        <ele>231</ele>
        <time>2020-02-22T15:54:48.000Z</time>
      </trkpt>
      <trkpt lat="49.17568" lon="6.67482">
        <ele>231</ele>
        <time>2020-02-22T15:54:58.000Z</time>
      </trkpt>
      <trkpt lat="49.17578" lon="6.6749">
        <ele>230</ele>
        <time>2020-02-22T15:55:08.000Z</time>
      </trkpt>
      <trkpt lat="49.17587" lon="6.67496">
        <ele>229</ele>
        <time>2020-02-22T15:55:18.000Z</time>
      </trkpt>
      <trkpt lat="49.17599" lon="6.67499">
        <ele>230</ele>
        <time>2020-02-22T15:55:28.000Z</time>
      </trkpt>
      <trkpt lat="49.17612" lon="6.67504">
        <ele>229</ele>
        <time>2020-02-22T15:55:38.000Z</time>
      </trkpt>
      <trkpt lat="49.17624" lon="6.67508">
        <ele>229</ele>
        <time>2020-02-22T15:55:48.000Z</time>
      </trkpt>
      <trkpt lat="49.17636" lon="6.67514">
        <ele>229</ele>
        <time>2020-02-22T15:55:58.000Z</time>
      </trkpt>
      <trkpt lat="49.17648" lon="6.67523">
        <ele>229</ele>
        <time>2020-02-22T15:56:08.000Z</time>
      </trkpt>
      <trkpt lat="49.17662" lon="6.67529">
        <ele>229</ele>
        <time>2020-02-22T15:56:18.000Z</time>
      </trkpt>
      <trkpt lat="49.17673" lon="6.67533">
        <ele>229</ele>
        <time>2020-02-22T15:56:28.000Z</time>
      </trkpt>
      <trkpt lat="49.17685" lon="6.67542">
        <ele>229</ele>
        <time>2020-02-22T15:56:38.000Z</time>
      </trkpt>
      <trkpt lat="49.17692" lon="6.67546">
        <ele>229</ele>
        <time>2020-02-22T15:56:48.000Z</time>
      </trkpt>
      <trkpt lat="49.17703" lon="6.67551">
        <ele>229</ele>
        <time>2020-02-22T15:56:58.000Z</time>
      </trkpt>
      <trkpt lat="49.17714" lon="6.67558">
        <ele>229</ele>
        <time>2020-02-22T15:57:08.000Z</time>
      </trkpt>
      <trkpt lat="49.17723" lon="6.6756">
        <ele>229</ele>
        <time>2020-02-22T15:57:18.000Z</time>
      </trkpt>
      <trkpt lat="49.17729" lon="6.67565">
        <ele>229</ele>
        <time>2020-02-22T15:57:28.000Z</time>
      </trkpt>
      <trkpt lat="49.17728" lon="6.67572">
        <ele>229</ele>
        <time>2020-02-22T15:57:38.000Z</time>
      </trkpt>
      <trkpt lat="49.17728" lon="6.67573">
        <ele>229</ele>
        <time>2020-02-22T15:57:41.000Z</time>
      </trkpt>
    </trkseg>
  </trk>
</gpx>